<?xml version="1.0" encoding="UTF-8" standalone="no" ?>
<gpx xmlns="http://www.topografix.com/GPX/1/1" xmlns:xsi="http://www.w3.org/2001/XMLSchema-instance" xsi:schemaLocation="http://www.topografix.com/GPX/1/1 http://www.topografix.com/GPX/1/1/gpx.xsd" version="1.1" creator="VisuGPX - https://www.visugpx.com">
  <metadata>
    <name>rando-font-communal-20kms</name>
  </metadata>
  <trk>
    <name><![CDATA[2019-08-31-13-32-14 on AllTrails]]></name>
    <extensions>
      <line xmlns="http://www.topografix.com/GPX/gpx_style/0/2">
        <color>0000FF</color>
        <width>4</width>
      </line>
    </extensions>
    <trkseg>
      <trkpt lat="43.09477" lon="1.73923">
        <ele>274</ele>
        <time>2019-08-31T13:32:14Z</time>
      </trkpt>
      <trkpt lat="43.09468" lon="1.73935">
        <ele>273</ele>
        <time>2019-08-31T13:32:18Z</time>
      </trkpt>
      <trkpt lat="43.09466" lon="1.73939">
        <ele>273</ele>
        <time>2019-08-31T13:32:19Z</time>
      </trkpt>
      <trkpt lat="43.09462" lon="1.73951">
        <ele>272</ele>
        <time>2019-08-31T13:32:22Z</time>
      </trkpt>
      <trkpt lat="43.09457" lon="1.7397">
        <ele>271</ele>
        <time>2019-08-31T13:32:27Z</time>
      </trkpt>
      <trkpt lat="43.09455" lon="1.73974">
        <ele>271</ele>
        <time>2019-08-31T13:32:28Z</time>
      </trkpt>
      <trkpt lat="43.09447" lon="1.73993">
        <ele>270</ele>
        <time>2019-08-31T13:32:33Z</time>
      </trkpt>
      <trkpt lat="43.09445" lon="1.73997">
        <ele>269</ele>
        <time>2019-08-31T13:32:34Z</time>
      </trkpt>
      <trkpt lat="43.09431" lon="1.74022">
        <ele>269</ele>
        <time>2019-08-31T13:32:40Z</time>
      </trkpt>
      <trkpt lat="43.09428" lon="1.74026">
        <ele>268</ele>
        <time>2019-08-31T13:32:41Z</time>
      </trkpt>
      <trkpt lat="43.09415" lon="1.74045">
        <ele>268</ele>
        <time>2019-08-31T13:32:46Z</time>
      </trkpt>
      <trkpt lat="43.09402" lon="1.74071">
        <ele>269</ele>
        <time>2019-08-31T13:32:52Z</time>
      </trkpt>
      <trkpt lat="43.09395" lon="1.74084">
        <ele>269</ele>
        <time>2019-08-31T13:32:55Z</time>
      </trkpt>
      <trkpt lat="43.09385" lon="1.74106">
        <ele>270</ele>
        <time>2019-08-31T13:33:00Z</time>
      </trkpt>
      <trkpt lat="43.09382" lon="1.7411">
        <ele>271</ele>
        <time>2019-08-31T13:33:01Z</time>
      </trkpt>
      <trkpt lat="43.09368" lon="1.7414">
        <ele>272</ele>
        <time>2019-08-31T13:33:08Z</time>
      </trkpt>
      <trkpt lat="43.09364" lon="1.74147">
        <ele>272</ele>
        <time>2019-08-31T13:33:10Z</time>
      </trkpt>
      <trkpt lat="43.09359" lon="1.74156">
        <ele>273</ele>
        <time>2019-08-31T13:33:13Z</time>
      </trkpt>
      <trkpt lat="43.09356" lon="1.74163">
        <ele>273</ele>
        <time>2019-08-31T13:33:16Z</time>
      </trkpt>
      <trkpt lat="43.09355" lon="1.7417">
        <ele>274</ele>
        <time>2019-08-31T13:33:19Z</time>
      </trkpt>
      <trkpt lat="43.09356" lon="1.74171">
        <ele>274</ele>
        <time>2019-08-31T13:33:20Z</time>
      </trkpt>
      <trkpt lat="43.09357" lon="1.74173">
        <ele>274</ele>
        <time>2019-08-31T13:33:21Z</time>
      </trkpt>
      <trkpt lat="43.09359" lon="1.74174">
        <ele>273</ele>
        <time>2019-08-31T13:33:23Z</time>
      </trkpt>
      <trkpt lat="43.09362" lon="1.74176">
        <ele>273</ele>
        <time>2019-08-31T13:33:26Z</time>
      </trkpt>
      <trkpt lat="43.09364" lon="1.74176">
        <ele>273</ele>
        <time>2019-08-31T13:33:27Z</time>
      </trkpt>
      <trkpt lat="43.09365" lon="1.74176">
        <ele>273</ele>
        <time>2019-08-31T13:33:28Z</time>
      </trkpt>
      <trkpt lat="43.09369" lon="1.74176">
        <ele>272</ele>
        <time>2019-08-31T13:33:31Z</time>
      </trkpt>
      <trkpt lat="43.0937" lon="1.74177">
        <ele>272</ele>
        <time>2019-08-31T13:33:32Z</time>
      </trkpt>
      <trkpt lat="43.09377" lon="1.74178">
        <ele>271</ele>
        <time>2019-08-31T13:33:36Z</time>
      </trkpt>
      <trkpt lat="43.09379" lon="1.74178">
        <ele>270</ele>
        <time>2019-08-31T13:33:37Z</time>
      </trkpt>
      <trkpt lat="43.09384" lon="1.74178">
        <ele>269</ele>
        <time>2019-08-31T13:33:39Z</time>
      </trkpt>
      <trkpt lat="43.0939" lon="1.74179">
        <ele>268</ele>
        <time>2019-08-31T13:33:41Z</time>
      </trkpt>
      <trkpt lat="43.09396" lon="1.7418">
        <ele>267</ele>
        <time>2019-08-31T13:33:43Z</time>
      </trkpt>
      <trkpt lat="43.094" lon="1.74181">
        <ele>267</ele>
        <time>2019-08-31T13:33:44Z</time>
      </trkpt>
      <trkpt lat="43.09408" lon="1.74181">
        <ele>266</ele>
        <time>2019-08-31T13:33:46Z</time>
      </trkpt>
      <trkpt lat="43.09422" lon="1.74182">
        <ele>264</ele>
        <time>2019-08-31T13:33:49Z</time>
      </trkpt>
      <trkpt lat="43.09427" lon="1.74182">
        <ele>264</ele>
        <time>2019-08-31T13:33:50Z</time>
      </trkpt>
      <trkpt lat="43.09432" lon="1.74183">
        <ele>263</ele>
        <time>2019-08-31T13:33:51Z</time>
      </trkpt>
      <trkpt lat="43.09463" lon="1.7419">
        <ele>262</ele>
        <time>2019-08-31T13:33:57Z</time>
      </trkpt>
      <trkpt lat="43.09474" lon="1.74191">
        <ele>261</ele>
        <time>2019-08-31T13:33:59Z</time>
      </trkpt>
      <trkpt lat="43.09479" lon="1.74191">
        <ele>260</ele>
        <time>2019-08-31T13:34:00Z</time>
      </trkpt>
      <trkpt lat="43.09484" lon="1.74193">
        <ele>260</ele>
        <time>2019-08-31T13:34:01Z</time>
      </trkpt>
      <trkpt lat="43.0949" lon="1.74194">
        <ele>259</ele>
        <time>2019-08-31T13:34:02Z</time>
      </trkpt>
      <trkpt lat="43.09496" lon="1.74195">
        <ele>258</ele>
        <time>2019-08-31T13:34:03Z</time>
      </trkpt>
      <trkpt lat="43.09508" lon="1.74199">
        <ele>257</ele>
        <time>2019-08-31T13:34:05Z</time>
      </trkpt>
      <trkpt lat="43.09521" lon="1.74203">
        <ele>255</ele>
        <time>2019-08-31T13:34:07Z</time>
      </trkpt>
      <trkpt lat="43.09528" lon="1.74205">
        <ele>254</ele>
        <time>2019-08-31T13:34:08Z</time>
      </trkpt>
      <trkpt lat="43.09535" lon="1.74207">
        <ele>254</ele>
        <time>2019-08-31T13:34:09Z</time>
      </trkpt>
      <trkpt lat="43.09548" lon="1.74209">
        <ele>252</ele>
        <time>2019-08-31T13:34:11Z</time>
      </trkpt>
      <trkpt lat="43.09559" lon="1.7421">
        <ele>251</ele>
        <time>2019-08-31T13:34:13Z</time>
      </trkpt>
      <trkpt lat="43.0957" lon="1.7421">
        <ele>252</ele>
        <time>2019-08-31T13:34:15Z</time>
      </trkpt>
      <trkpt lat="43.09583" lon="1.74206">
        <ele>252</ele>
        <time>2019-08-31T13:34:17Z</time>
      </trkpt>
      <trkpt lat="43.09603" lon="1.74191">
        <ele>254</ele>
        <time>2019-08-31T13:34:20Z</time>
      </trkpt>
      <trkpt lat="43.09621" lon="1.74172">
        <ele>255</ele>
        <time>2019-08-31T13:34:22Z</time>
      </trkpt>
      <trkpt lat="43.09627" lon="1.74166">
        <ele>255</ele>
        <time>2019-08-31T13:34:23Z</time>
      </trkpt>
      <trkpt lat="43.09645" lon="1.7415">
        <ele>256</ele>
        <time>2019-08-31T13:34:26Z</time>
      </trkpt>
      <trkpt lat="43.09657" lon="1.74143">
        <ele>256</ele>
        <time>2019-08-31T13:34:28Z</time>
      </trkpt>
      <trkpt lat="43.09677" lon="1.74148">
        <ele>256</ele>
        <time>2019-08-31T13:34:32Z</time>
      </trkpt>
      <trkpt lat="43.09684" lon="1.74154">
        <ele>256</ele>
        <time>2019-08-31T13:34:33Z</time>
      </trkpt>
      <trkpt lat="43.09711" lon="1.74171">
        <ele>256</ele>
        <time>2019-08-31T13:34:37Z</time>
      </trkpt>
      <trkpt lat="43.09721" lon="1.74174">
        <ele>255</ele>
        <time>2019-08-31T13:34:39Z</time>
      </trkpt>
      <trkpt lat="43.09724" lon="1.74172">
        <ele>255</ele>
        <time>2019-08-31T13:34:40Z</time>
      </trkpt>
      <trkpt lat="43.09743" lon="1.74163">
        <ele>256</ele>
        <time>2019-08-31T13:34:45Z</time>
      </trkpt>
      <trkpt lat="43.0975" lon="1.74162">
        <ele>256</ele>
        <time>2019-08-31T13:34:47Z</time>
      </trkpt>
      <trkpt lat="43.09771" lon="1.74157">
        <ele>256</ele>
        <time>2019-08-31T13:34:52Z</time>
      </trkpt>
      <trkpt lat="43.09798" lon="1.74148">
        <ele>257</ele>
        <time>2019-08-31T13:34:59Z</time>
      </trkpt>
      <trkpt lat="43.09802" lon="1.74147">
        <ele>257</ele>
        <time>2019-08-31T13:35:00Z</time>
      </trkpt>
      <trkpt lat="43.09827" lon="1.74136">
        <ele>258</ele>
        <time>2019-08-31T13:35:06Z</time>
      </trkpt>
      <trkpt lat="43.09831" lon="1.74134">
        <ele>259</ele>
        <time>2019-08-31T13:35:07Z</time>
      </trkpt>
      <trkpt lat="43.09838" lon="1.74128">
        <ele>260</ele>
        <time>2019-08-31T13:35:09Z</time>
      </trkpt>
      <trkpt lat="43.09847" lon="1.74117">
        <ele>260</ele>
        <time>2019-08-31T13:35:12Z</time>
      </trkpt>
      <trkpt lat="43.09857" lon="1.74097">
        <ele>261</ele>
        <time>2019-08-31T13:35:16Z</time>
      </trkpt>
      <trkpt lat="43.0986" lon="1.74087">
        <ele>261</ele>
        <time>2019-08-31T13:35:18Z</time>
      </trkpt>
      <trkpt lat="43.09863" lon="1.74076">
        <ele>261</ele>
        <time>2019-08-31T13:35:20Z</time>
      </trkpt>
      <trkpt lat="43.09871" lon="1.74048">
        <ele>261</ele>
        <time>2019-08-31T13:35:25Z</time>
      </trkpt>
      <trkpt lat="43.09875" lon="1.7403">
        <ele>261</ele>
        <time>2019-08-31T13:35:28Z</time>
      </trkpt>
      <trkpt lat="43.0988" lon="1.74011">
        <ele>261</ele>
        <time>2019-08-31T13:35:31Z</time>
      </trkpt>
      <trkpt lat="43.09894" lon="1.73971">
        <ele>260</ele>
        <time>2019-08-31T13:35:38Z</time>
      </trkpt>
      <trkpt lat="43.09909" lon="1.7393">
        <ele>261</ele>
        <time>2019-08-31T13:35:45Z</time>
      </trkpt>
      <trkpt lat="43.09924" lon="1.73894">
        <ele>261</ele>
        <time>2019-08-31T13:35:51Z</time>
      </trkpt>
      <trkpt lat="43.09936" lon="1.73856">
        <ele>260</ele>
        <time>2019-08-31T13:35:57Z</time>
      </trkpt>
      <trkpt lat="43.09945" lon="1.73817">
        <ele>260</ele>
        <time>2019-08-31T13:36:03Z</time>
      </trkpt>
      <trkpt lat="43.09948" lon="1.73804">
        <ele>259</ele>
        <time>2019-08-31T13:36:05Z</time>
      </trkpt>
      <trkpt lat="43.09962" lon="1.73764">
        <ele>258</ele>
        <time>2019-08-31T13:36:12Z</time>
      </trkpt>
      <trkpt lat="43.09976" lon="1.73735">
        <ele>257</ele>
        <time>2019-08-31T13:36:17Z</time>
      </trkpt>
      <trkpt lat="43.09984" lon="1.73717">
        <ele>257</ele>
        <time>2019-08-31T13:36:20Z</time>
      </trkpt>
      <trkpt lat="43.09997" lon="1.73692">
        <ele>256</ele>
        <time>2019-08-31T13:36:25Z</time>
      </trkpt>
      <trkpt lat="43.1" lon="1.73687">
        <ele>256</ele>
        <time>2019-08-31T13:36:26Z</time>
      </trkpt>
      <trkpt lat="43.10002" lon="1.73681">
        <ele>256</ele>
        <time>2019-08-31T13:36:27Z</time>
      </trkpt>
      <trkpt lat="43.10007" lon="1.73671">
        <ele>256</ele>
        <time>2019-08-31T13:36:29Z</time>
      </trkpt>
      <trkpt lat="43.10014" lon="1.73661">
        <ele>255</ele>
        <time>2019-08-31T13:36:31Z</time>
      </trkpt>
      <trkpt lat="43.1002" lon="1.73652">
        <ele>255</ele>
        <time>2019-08-31T13:36:33Z</time>
      </trkpt>
      <trkpt lat="43.10023" lon="1.73649">
        <ele>255</ele>
        <time>2019-08-31T13:36:34Z</time>
      </trkpt>
      <trkpt lat="43.10027" lon="1.73645">
        <ele>255</ele>
        <time>2019-08-31T13:36:35Z</time>
      </trkpt>
      <trkpt lat="43.10046" lon="1.73627">
        <ele>254</ele>
        <time>2019-08-31T13:36:40Z</time>
      </trkpt>
      <trkpt lat="43.1005" lon="1.73624">
        <ele>254</ele>
        <time>2019-08-31T13:36:41Z</time>
      </trkpt>
      <trkpt lat="43.10058" lon="1.73617">
        <ele>254</ele>
        <time>2019-08-31T13:36:43Z</time>
      </trkpt>
      <trkpt lat="43.10075" lon="1.73606">
        <ele>253</ele>
        <time>2019-08-31T13:36:47Z</time>
      </trkpt>
      <trkpt lat="43.10099" lon="1.73595">
        <ele>254</ele>
        <time>2019-08-31T13:36:52Z</time>
      </trkpt>
      <trkpt lat="43.10113" lon="1.73591">
        <ele>254</ele>
        <time>2019-08-31T13:36:55Z</time>
      </trkpt>
      <trkpt lat="43.10138" lon="1.73595">
        <ele>253</ele>
        <time>2019-08-31T13:37:01Z</time>
      </trkpt>
      <trkpt lat="43.10146" lon="1.73596">
        <ele>252</ele>
        <time>2019-08-31T13:37:03Z</time>
      </trkpt>
      <trkpt lat="43.10152" lon="1.73595">
        <ele>251</ele>
        <time>2019-08-31T13:37:05Z</time>
      </trkpt>
      <trkpt lat="43.10154" lon="1.73593">
        <ele>250</ele>
        <time>2019-08-31T13:37:06Z</time>
      </trkpt>
      <trkpt lat="43.10155" lon="1.7359">
        <ele>250</ele>
        <time>2019-08-31T13:37:07Z</time>
      </trkpt>
      <trkpt lat="43.10154" lon="1.73585">
        <ele>248</ele>
        <time>2019-08-31T13:37:09Z</time>
      </trkpt>
      <trkpt lat="43.10153" lon="1.73581">
        <ele>248</ele>
        <time>2019-08-31T13:37:10Z</time>
      </trkpt>
      <trkpt lat="43.10152" lon="1.73576">
        <ele>247</ele>
        <time>2019-08-31T13:37:11Z</time>
      </trkpt>
      <trkpt lat="43.10146" lon="1.73562">
        <ele>246</ele>
        <time>2019-08-31T13:37:14Z</time>
      </trkpt>
      <trkpt lat="43.1014" lon="1.73546">
        <ele>245</ele>
        <time>2019-08-31T13:37:17Z</time>
      </trkpt>
      <trkpt lat="43.10137" lon="1.73534">
        <ele>245</ele>
        <time>2019-08-31T13:37:19Z</time>
      </trkpt>
      <trkpt lat="43.10136" lon="1.73515">
        <ele>245</ele>
        <time>2019-08-31T13:37:22Z</time>
      </trkpt>
      <trkpt lat="43.10137" lon="1.73482">
        <ele>246</ele>
        <time>2019-08-31T13:37:27Z</time>
      </trkpt>
      <trkpt lat="43.10137" lon="1.73476">
        <ele>247</ele>
        <time>2019-08-31T13:37:28Z</time>
      </trkpt>
      <trkpt lat="43.10137" lon="1.73469">
        <ele>248</ele>
        <time>2019-08-31T13:37:29Z</time>
      </trkpt>
      <trkpt lat="43.10135" lon="1.73456">
        <ele>250</ele>
        <time>2019-08-31T13:37:31Z</time>
      </trkpt>
      <trkpt lat="43.10133" lon="1.73449">
        <ele>251</ele>
        <time>2019-08-31T13:37:32Z</time>
      </trkpt>
      <trkpt lat="43.10132" lon="1.73442">
        <ele>252</ele>
        <time>2019-08-31T13:37:33Z</time>
      </trkpt>
      <trkpt lat="43.10125" lon="1.73423">
        <ele>253</ele>
        <time>2019-08-31T13:37:36Z</time>
      </trkpt>
      <trkpt lat="43.10119" lon="1.73406">
        <ele>254</ele>
        <time>2019-08-31T13:37:39Z</time>
      </trkpt>
      <trkpt lat="43.10117" lon="1.734">
        <ele>255</ele>
        <time>2019-08-31T13:37:40Z</time>
      </trkpt>
      <trkpt lat="43.10113" lon="1.73388">
        <ele>256</ele>
        <time>2019-08-31T13:37:42Z</time>
      </trkpt>
      <trkpt lat="43.10107" lon="1.73371">
        <ele>257</ele>
        <time>2019-08-31T13:37:45Z</time>
      </trkpt>
      <trkpt lat="43.10106" lon="1.73365">
        <ele>257</ele>
        <time>2019-08-31T13:37:46Z</time>
      </trkpt>
      <trkpt lat="43.10104" lon="1.7336">
        <ele>257</ele>
        <time>2019-08-31T13:37:47Z</time>
      </trkpt>
      <trkpt lat="43.10102" lon="1.73349">
        <ele>258</ele>
        <time>2019-08-31T13:37:49Z</time>
      </trkpt>
      <trkpt lat="43.10095" lon="1.7333">
        <ele>259</ele>
        <time>2019-08-31T13:37:53Z</time>
      </trkpt>
      <trkpt lat="43.10091" lon="1.73318">
        <ele>260</ele>
        <time>2019-08-31T13:37:56Z</time>
      </trkpt>
      <trkpt lat="43.10091" lon="1.73313">
        <ele>260</ele>
        <time>2019-08-31T13:37:57Z</time>
      </trkpt>
      <trkpt lat="43.10093" lon="1.73309">
        <ele>260</ele>
        <time>2019-08-31T13:37:58Z</time>
      </trkpt>
      <trkpt lat="43.10108" lon="1.73297">
        <ele>261</ele>
        <time>2019-08-31T13:38:03Z</time>
      </trkpt>
      <trkpt lat="43.10123" lon="1.73286">
        <ele>261</ele>
        <time>2019-08-31T13:38:07Z</time>
      </trkpt>
      <trkpt lat="43.1013" lon="1.73281">
        <ele>262</ele>
        <time>2019-08-31T13:38:09Z</time>
      </trkpt>
      <trkpt lat="43.10147" lon="1.73268">
        <ele>263</ele>
        <time>2019-08-31T13:38:13Z</time>
      </trkpt>
      <trkpt lat="43.10151" lon="1.73265">
        <ele>263</ele>
        <time>2019-08-31T13:38:14Z</time>
      </trkpt>
      <trkpt lat="43.10159" lon="1.73256">
        <ele>263</ele>
        <time>2019-08-31T13:38:16Z</time>
      </trkpt>
      <trkpt lat="43.10177" lon="1.73224">
        <ele>263</ele>
        <time>2019-08-31T13:38:22Z</time>
      </trkpt>
      <trkpt lat="43.10181" lon="1.7322">
        <ele>263</ele>
        <time>2019-08-31T13:38:23Z</time>
      </trkpt>
      <trkpt lat="43.10191" lon="1.73213">
        <ele>264</ele>
        <time>2019-08-31T13:38:25Z</time>
      </trkpt>
      <trkpt lat="43.10196" lon="1.7321">
        <ele>264</ele>
        <time>2019-08-31T13:38:26Z</time>
      </trkpt>
      <trkpt lat="43.10207" lon="1.73203">
        <ele>264</ele>
        <time>2019-08-31T13:38:28Z</time>
      </trkpt>
      <trkpt lat="43.10218" lon="1.73186">
        <ele>264</ele>
        <time>2019-08-31T13:38:31Z</time>
      </trkpt>
      <trkpt lat="43.10222" lon="1.73163">
        <ele>264</ele>
        <time>2019-08-31T13:38:34Z</time>
      </trkpt>
      <trkpt lat="43.10223" lon="1.73155">
        <ele>264</ele>
        <time>2019-08-31T13:38:35Z</time>
      </trkpt>
      <trkpt lat="43.10229" lon="1.73128">
        <ele>265</ele>
        <time>2019-08-31T13:38:39Z</time>
      </trkpt>
      <trkpt lat="43.10235" lon="1.73108">
        <ele>265</ele>
        <time>2019-08-31T13:38:42Z</time>
      </trkpt>
      <trkpt lat="43.10237" lon="1.73102">
        <ele>265</ele>
        <time>2019-08-31T13:38:43Z</time>
      </trkpt>
      <trkpt lat="43.10247" lon="1.73085">
        <ele>265</ele>
        <time>2019-08-31T13:38:46Z</time>
      </trkpt>
      <trkpt lat="43.10259" lon="1.73074">
        <ele>265</ele>
        <time>2019-08-31T13:38:49Z</time>
      </trkpt>
      <trkpt lat="43.10263" lon="1.7307">
        <ele>266</ele>
        <time>2019-08-31T13:38:50Z</time>
      </trkpt>
      <trkpt lat="43.10277" lon="1.7306">
        <ele>266</ele>
        <time>2019-08-31T13:38:53Z</time>
      </trkpt>
      <trkpt lat="43.10291" lon="1.73049">
        <ele>266</ele>
        <time>2019-08-31T13:38:56Z</time>
      </trkpt>
      <trkpt lat="43.10333" lon="1.73017">
        <ele>266</ele>
        <time>2019-08-31T13:39:05Z</time>
      </trkpt>
      <trkpt lat="43.10369" lon="1.72986">
        <ele>265</ele>
        <time>2019-08-31T13:39:13Z</time>
      </trkpt>
      <trkpt lat="43.10398" lon="1.72958">
        <ele>266</ele>
        <time>2019-08-31T13:39:20Z</time>
      </trkpt>
      <trkpt lat="43.10433" lon="1.72929">
        <ele>266</ele>
        <time>2019-08-31T13:39:28Z</time>
      </trkpt>
      <trkpt lat="43.10468" lon="1.72908">
        <ele>266</ele>
        <time>2019-08-31T13:39:36Z</time>
      </trkpt>
      <trkpt lat="43.10501" lon="1.72893">
        <ele>266</ele>
        <time>2019-08-31T13:39:43Z</time>
      </trkpt>
      <trkpt lat="43.10537" lon="1.72872">
        <ele>266</ele>
        <time>2019-08-31T13:39:51Z</time>
      </trkpt>
      <trkpt lat="43.10578" lon="1.72846">
        <ele>266</ele>
        <time>2019-08-31T13:40:00Z</time>
      </trkpt>
      <trkpt lat="43.10589" lon="1.72835">
        <ele>267</ele>
        <time>2019-08-31T13:40:03Z</time>
      </trkpt>
      <trkpt lat="43.10609" lon="1.72815">
        <ele>267</ele>
        <time>2019-08-31T13:40:08Z</time>
      </trkpt>
      <trkpt lat="43.10619" lon="1.72805">
        <ele>268</ele>
        <time>2019-08-31T13:40:12Z</time>
      </trkpt>
      <trkpt lat="43.10632" lon="1.72797">
        <ele>267</ele>
        <time>2019-08-31T13:40:16Z</time>
      </trkpt>
      <trkpt lat="43.10646" lon="1.72789">
        <ele>266</ele>
        <time>2019-08-31T13:40:19Z</time>
      </trkpt>
      <trkpt lat="43.10662" lon="1.7278">
        <ele>265</ele>
        <time>2019-08-31T13:40:22Z</time>
      </trkpt>
      <trkpt lat="43.10667" lon="1.72776">
        <ele>264</ele>
        <time>2019-08-31T13:40:23Z</time>
      </trkpt>
      <trkpt lat="43.10695" lon="1.72759">
        <ele>264</ele>
        <time>2019-08-31T13:40:28Z</time>
      </trkpt>
      <trkpt lat="43.10745" lon="1.72735">
        <ele>264</ele>
        <time>2019-08-31T13:40:36Z</time>
      </trkpt>
      <trkpt lat="43.10779" lon="1.72717">
        <ele>264</ele>
        <time>2019-08-31T13:40:42Z</time>
      </trkpt>
      <trkpt lat="43.10784" lon="1.72713">
        <ele>264</ele>
        <time>2019-08-31T13:40:43Z</time>
      </trkpt>
      <trkpt lat="43.10796" lon="1.72696">
        <ele>264</ele>
        <time>2019-08-31T13:40:46Z</time>
      </trkpt>
      <trkpt lat="43.10804" lon="1.72684">
        <ele>264</ele>
        <time>2019-08-31T13:40:48Z</time>
      </trkpt>
      <trkpt lat="43.10837" lon="1.72644">
        <ele>265</ele>
        <time>2019-08-31T13:40:56Z</time>
      </trkpt>
      <trkpt lat="43.10851" lon="1.72632">
        <ele>265</ele>
        <time>2019-08-31T13:40:59Z</time>
      </trkpt>
      <trkpt lat="43.10869" lon="1.72618">
        <ele>266</ele>
        <time>2019-08-31T13:41:03Z</time>
      </trkpt>
      <trkpt lat="43.10877" lon="1.72612">
        <ele>266</ele>
        <time>2019-08-31T13:41:05Z</time>
      </trkpt>
      <trkpt lat="43.10889" lon="1.72604">
        <ele>266</ele>
        <time>2019-08-31T13:41:08Z</time>
      </trkpt>
      <trkpt lat="43.10921" lon="1.72583">
        <ele>266</ele>
        <time>2019-08-31T13:41:15Z</time>
      </trkpt>
      <trkpt lat="43.10925" lon="1.72581">
        <ele>266</ele>
        <time>2019-08-31T13:41:16Z</time>
      </trkpt>
      <trkpt lat="43.10935" lon="1.72588">
        <ele>265</ele>
        <time>2019-08-31T13:41:18Z</time>
      </trkpt>
      <trkpt lat="43.10941" lon="1.72604">
        <ele>264</ele>
        <time>2019-08-31T13:41:20Z</time>
      </trkpt>
      <trkpt lat="43.10943" lon="1.72612">
        <ele>263</ele>
        <time>2019-08-31T13:41:21Z</time>
      </trkpt>
      <trkpt lat="43.10947" lon="1.72629">
        <ele>262</ele>
        <time>2019-08-31T13:41:23Z</time>
      </trkpt>
      <trkpt lat="43.10953" lon="1.72655">
        <ele>261</ele>
        <time>2019-08-31T13:41:26Z</time>
      </trkpt>
      <trkpt lat="43.10957" lon="1.72672">
        <ele>260</ele>
        <time>2019-08-31T13:41:28Z</time>
      </trkpt>
      <trkpt lat="43.10959" lon="1.7268">
        <ele>260</ele>
        <time>2019-08-31T13:41:29Z</time>
      </trkpt>
      <trkpt lat="43.10966" lon="1.72704">
        <ele>258</ele>
        <time>2019-08-31T13:41:32Z</time>
      </trkpt>
      <trkpt lat="43.10975" lon="1.72736">
        <ele>258</ele>
        <time>2019-08-31T13:41:36Z</time>
      </trkpt>
      <trkpt lat="43.1098" lon="1.72753">
        <ele>257</ele>
        <time>2019-08-31T13:41:38Z</time>
      </trkpt>
      <trkpt lat="43.10986" lon="1.72777">
        <ele>256</ele>
        <time>2019-08-31T13:41:41Z</time>
      </trkpt>
      <trkpt lat="43.10993" lon="1.72801">
        <ele>255</ele>
        <time>2019-08-31T13:41:44Z</time>
      </trkpt>
      <trkpt lat="43.11007" lon="1.72855">
        <ele>254</ele>
        <time>2019-08-31T13:41:51Z</time>
      </trkpt>
      <trkpt lat="43.11008" lon="1.72863">
        <ele>254</ele>
        <time>2019-08-31T13:41:52Z</time>
      </trkpt>
      <trkpt lat="43.11012" lon="1.72879">
        <ele>253</ele>
        <time>2019-08-31T13:41:54Z</time>
      </trkpt>
      <trkpt lat="43.11016" lon="1.72903">
        <ele>252</ele>
        <time>2019-08-31T13:41:57Z</time>
      </trkpt>
      <trkpt lat="43.11017" lon="1.72911">
        <ele>252</ele>
        <time>2019-08-31T13:41:58Z</time>
      </trkpt>
      <trkpt lat="43.11018" lon="1.7292">
        <ele>251</ele>
        <time>2019-08-31T13:41:59Z</time>
      </trkpt>
      <trkpt lat="43.11023" lon="1.7296">
        <ele>251</ele>
        <time>2019-08-31T13:42:04Z</time>
      </trkpt>
      <trkpt lat="43.11025" lon="1.72976">
        <ele>251</ele>
        <time>2019-08-31T13:42:06Z</time>
      </trkpt>
      <trkpt lat="43.11035" lon="1.73042">
        <ele>251</ele>
        <time>2019-08-31T13:42:14Z</time>
      </trkpt>
      <trkpt lat="43.11038" lon="1.7306">
        <ele>250</ele>
        <time>2019-08-31T13:42:16Z</time>
      </trkpt>
      <trkpt lat="43.11042" lon="1.73076">
        <ele>251</ele>
        <time>2019-08-31T13:42:18Z</time>
      </trkpt>
      <trkpt lat="43.11052" lon="1.7311">
        <ele>252</ele>
        <time>2019-08-31T13:42:23Z</time>
      </trkpt>
      <trkpt lat="43.11057" lon="1.73129">
        <ele>253</ele>
        <time>2019-08-31T13:42:26Z</time>
      </trkpt>
      <trkpt lat="43.11065" lon="1.73156">
        <ele>253</ele>
        <time>2019-08-31T13:42:30Z</time>
      </trkpt>
      <trkpt lat="43.11069" lon="1.7317">
        <ele>254</ele>
        <time>2019-08-31T13:42:32Z</time>
      </trkpt>
      <trkpt lat="43.1107" lon="1.73176">
        <ele>254</ele>
        <time>2019-08-31T13:42:33Z</time>
      </trkpt>
      <trkpt lat="43.11079" lon="1.73209">
        <ele>255</ele>
        <time>2019-08-31T13:42:38Z</time>
      </trkpt>
      <trkpt lat="43.11092" lon="1.73257">
        <ele>255</ele>
        <time>2019-08-31T13:42:45Z</time>
      </trkpt>
      <trkpt lat="43.11097" lon="1.73277">
        <ele>256</ele>
        <time>2019-08-31T13:42:48Z</time>
      </trkpt>
      <trkpt lat="43.11107" lon="1.73301">
        <ele>255</ele>
        <time>2019-08-31T13:42:52Z</time>
      </trkpt>
      <trkpt lat="43.11117" lon="1.73302">
        <ele>256</ele>
        <time>2019-08-31T13:42:54Z</time>
      </trkpt>
      <trkpt lat="43.11148" lon="1.73297">
        <ele>256</ele>
        <time>2019-08-31T13:43:00Z</time>
      </trkpt>
      <trkpt lat="43.11154" lon="1.73296">
        <ele>256</ele>
        <time>2019-08-31T13:43:01Z</time>
      </trkpt>
      <trkpt lat="43.11179" lon="1.73286">
        <ele>256</ele>
        <time>2019-08-31T13:43:06Z</time>
      </trkpt>
      <trkpt lat="43.11189" lon="1.73279">
        <ele>257</ele>
        <time>2019-08-31T13:43:08Z</time>
      </trkpt>
      <trkpt lat="43.11212" lon="1.73261">
        <ele>257</ele>
        <time>2019-08-31T13:43:13Z</time>
      </trkpt>
      <trkpt lat="43.11221" lon="1.73254">
        <ele>258</ele>
        <time>2019-08-31T13:43:15Z</time>
      </trkpt>
      <trkpt lat="43.11248" lon="1.73233">
        <ele>258</ele>
        <time>2019-08-31T13:43:21Z</time>
      </trkpt>
      <trkpt lat="43.11256" lon="1.73227">
        <ele>259</ele>
        <time>2019-08-31T13:43:23Z</time>
      </trkpt>
      <trkpt lat="43.11282" lon="1.73208">
        <ele>259</ele>
        <time>2019-08-31T13:43:29Z</time>
      </trkpt>
      <trkpt lat="43.11312" lon="1.73193">
        <ele>259</ele>
        <time>2019-08-31T13:43:35Z</time>
      </trkpt>
      <trkpt lat="43.11343" lon="1.73181">
        <ele>259</ele>
        <time>2019-08-31T13:43:41Z</time>
      </trkpt>
      <trkpt lat="43.11353" lon="1.73176">
        <ele>259</ele>
        <time>2019-08-31T13:43:43Z</time>
      </trkpt>
      <trkpt lat="43.11387" lon="1.73158">
        <ele>258</ele>
        <time>2019-08-31T13:43:50Z</time>
      </trkpt>
      <trkpt lat="43.11396" lon="1.7315">
        <ele>258</ele>
        <time>2019-08-31T13:43:52Z</time>
      </trkpt>
      <trkpt lat="43.114" lon="1.73145">
        <ele>257</ele>
        <time>2019-08-31T13:43:53Z</time>
      </trkpt>
      <trkpt lat="43.11407" lon="1.73133">
        <ele>257</ele>
        <time>2019-08-31T13:43:55Z</time>
      </trkpt>
      <trkpt lat="43.11413" lon="1.7312">
        <ele>257</ele>
        <time>2019-08-31T13:43:57Z</time>
      </trkpt>
      <trkpt lat="43.11417" lon="1.73115">
        <ele>256</ele>
        <time>2019-08-31T13:43:58Z</time>
      </trkpt>
      <trkpt lat="43.11422" lon="1.73112">
        <ele>256</ele>
        <time>2019-08-31T13:43:59Z</time>
      </trkpt>
      <trkpt lat="43.11438" lon="1.73109">
        <ele>256</ele>
        <time>2019-08-31T13:44:02Z</time>
      </trkpt>
      <trkpt lat="43.11448" lon="1.73105">
        <ele>256</ele>
        <time>2019-08-31T13:44:04Z</time>
      </trkpt>
      <trkpt lat="43.11473" lon="1.73101">
        <ele>256</ele>
        <time>2019-08-31T13:44:09Z</time>
      </trkpt>
      <trkpt lat="43.11482" lon="1.731">
        <ele>257</ele>
        <time>2019-08-31T13:44:11Z</time>
      </trkpt>
      <trkpt lat="43.11495" lon="1.73098">
        <ele>257</ele>
        <time>2019-08-31T13:44:14Z</time>
      </trkpt>
      <trkpt lat="43.11511" lon="1.73095">
        <ele>257</ele>
        <time>2019-08-31T13:44:18Z</time>
      </trkpt>
      <trkpt lat="43.11515" lon="1.73094">
        <ele>258</ele>
        <time>2019-08-31T13:44:19Z</time>
      </trkpt>
      <trkpt lat="43.11519" lon="1.73093">
        <ele>258</ele>
        <time>2019-08-31T13:44:20Z</time>
      </trkpt>
      <trkpt lat="43.11537" lon="1.73087">
        <ele>258</ele>
        <time>2019-08-31T13:44:24Z</time>
      </trkpt>
      <trkpt lat="43.11546" lon="1.73082">
        <ele>258</ele>
        <time>2019-08-31T13:44:26Z</time>
      </trkpt>
      <trkpt lat="43.11555" lon="1.73078">
        <ele>258</ele>
        <time>2019-08-31T13:44:28Z</time>
      </trkpt>
      <trkpt lat="43.11569" lon="1.73072">
        <ele>258</ele>
        <time>2019-08-31T13:44:31Z</time>
      </trkpt>
      <trkpt lat="43.11593" lon="1.73063">
        <ele>258</ele>
        <time>2019-08-31T13:44:36Z</time>
      </trkpt>
      <trkpt lat="43.11602" lon="1.7306">
        <ele>258</ele>
        <time>2019-08-31T13:44:38Z</time>
      </trkpt>
      <trkpt lat="43.11621" lon="1.73052">
        <ele>258</ele>
        <time>2019-08-31T13:44:42Z</time>
      </trkpt>
      <trkpt lat="43.11631" lon="1.73049">
        <ele>258</ele>
        <time>2019-08-31T13:44:44Z</time>
      </trkpt>
      <trkpt lat="43.11636" lon="1.73047">
        <ele>258</ele>
        <time>2019-08-31T13:44:45Z</time>
      </trkpt>
      <trkpt lat="43.11662" lon="1.73038">
        <ele>258</ele>
        <time>2019-08-31T13:44:50Z</time>
      </trkpt>
      <trkpt lat="43.11681" lon="1.7303">
        <ele>259</ele>
        <time>2019-08-31T13:44:54Z</time>
      </trkpt>
      <trkpt lat="43.117" lon="1.73023">
        <ele>259</ele>
        <time>2019-08-31T13:44:58Z</time>
      </trkpt>
      <trkpt lat="43.11735" lon="1.73009">
        <ele>259</ele>
        <time>2019-08-31T13:45:05Z</time>
      </trkpt>
      <trkpt lat="43.11778" lon="1.72991">
        <ele>259</ele>
        <time>2019-08-31T13:45:13Z</time>
      </trkpt>
      <trkpt lat="43.11831" lon="1.72962">
        <ele>259</ele>
        <time>2019-08-31T13:45:23Z</time>
      </trkpt>
      <trkpt lat="43.11845" lon="1.72954">
        <ele>259</ele>
        <time>2019-08-31T13:45:26Z</time>
      </trkpt>
      <trkpt lat="43.11864" lon="1.72941">
        <ele>259</ele>
        <time>2019-08-31T13:45:30Z</time>
      </trkpt>
      <trkpt lat="43.11894" lon="1.72913">
        <ele>259</ele>
        <time>2019-08-31T13:45:37Z</time>
      </trkpt>
      <trkpt lat="43.11924" lon="1.7288">
        <ele>259</ele>
        <time>2019-08-31T13:45:45Z</time>
      </trkpt>
      <trkpt lat="43.11953" lon="1.72849">
        <ele>259</ele>
        <time>2019-08-31T13:45:53Z</time>
      </trkpt>
      <trkpt lat="43.11989" lon="1.72809">
        <ele>259</ele>
        <time>2019-08-31T13:46:03Z</time>
      </trkpt>
      <trkpt lat="43.11996" lon="1.72803">
        <ele>260</ele>
        <time>2019-08-31T13:46:05Z</time>
      </trkpt>
      <trkpt lat="43.12024" lon="1.7278">
        <ele>260</ele>
        <time>2019-08-31T13:46:12Z</time>
      </trkpt>
      <trkpt lat="43.12053" lon="1.72765">
        <ele>260</ele>
        <time>2019-08-31T13:46:19Z</time>
      </trkpt>
      <trkpt lat="43.12087" lon="1.72753">
        <ele>260</ele>
        <time>2019-08-31T13:46:27Z</time>
      </trkpt>
      <trkpt lat="43.12133" lon="1.72746">
        <ele>259</ele>
        <time>2019-08-31T13:46:37Z</time>
      </trkpt>
      <trkpt lat="43.12138" lon="1.72745">
        <ele>259</ele>
        <time>2019-08-31T13:46:38Z</time>
      </trkpt>
      <trkpt lat="43.12175" lon="1.7274">
        <ele>260</ele>
        <time>2019-08-31T13:46:46Z</time>
      </trkpt>
      <trkpt lat="43.12185" lon="1.7274">
        <ele>260</ele>
        <time>2019-08-31T13:46:48Z</time>
      </trkpt>
      <trkpt lat="43.12199" lon="1.72748">
        <ele>259</ele>
        <time>2019-08-31T13:46:51Z</time>
      </trkpt>
      <trkpt lat="43.1221" lon="1.72761">
        <ele>259</ele>
        <time>2019-08-31T13:46:54Z</time>
      </trkpt>
      <trkpt lat="43.12214" lon="1.72766">
        <ele>259</ele>
        <time>2019-08-31T13:46:55Z</time>
      </trkpt>
      <trkpt lat="43.12221" lon="1.72775">
        <ele>259</ele>
        <time>2019-08-31T13:46:57Z</time>
      </trkpt>
      <trkpt lat="43.12232" lon="1.72788">
        <ele>259</ele>
        <time>2019-08-31T13:47:00Z</time>
      </trkpt>
      <trkpt lat="43.12243" lon="1.72801">
        <ele>259</ele>
        <time>2019-08-31T13:47:03Z</time>
      </trkpt>
      <trkpt lat="43.1225" lon="1.7281">
        <ele>259</ele>
        <time>2019-08-31T13:47:05Z</time>
      </trkpt>
      <trkpt lat="43.1226" lon="1.72823">
        <ele>258</ele>
        <time>2019-08-31T13:47:08Z</time>
      </trkpt>
      <trkpt lat="43.12266" lon="1.72831">
        <ele>258</ele>
        <time>2019-08-31T13:47:10Z</time>
      </trkpt>
      <trkpt lat="43.12269" lon="1.72835">
        <ele>258</ele>
        <time>2019-08-31T13:47:11Z</time>
      </trkpt>
      <trkpt lat="43.12279" lon="1.72857">
        <ele>258</ele>
        <time>2019-08-31T13:47:16Z</time>
      </trkpt>
      <trkpt lat="43.12287" lon="1.72883">
        <ele>258</ele>
        <time>2019-08-31T13:47:21Z</time>
      </trkpt>
      <trkpt lat="43.12292" lon="1.729">
        <ele>258</ele>
        <time>2019-08-31T13:47:24Z</time>
      </trkpt>
      <trkpt lat="43.12297" lon="1.72924">
        <ele>258</ele>
        <time>2019-08-31T13:47:28Z</time>
      </trkpt>
      <trkpt lat="43.12303" lon="1.72974">
        <ele>258</ele>
        <time>2019-08-31T13:47:36Z</time>
      </trkpt>
      <trkpt lat="43.1231" lon="1.73032">
        <ele>258</ele>
        <time>2019-08-31T13:47:45Z</time>
      </trkpt>
      <trkpt lat="43.12322" lon="1.73083">
        <ele>258</ele>
        <time>2019-08-31T13:47:53Z</time>
      </trkpt>
      <trkpt lat="43.12342" lon="1.73144">
        <ele>258</ele>
        <time>2019-08-31T13:48:03Z</time>
      </trkpt>
      <trkpt lat="43.12357" lon="1.73192">
        <ele>258</ele>
        <time>2019-08-31T13:48:11Z</time>
      </trkpt>
      <trkpt lat="43.12372" lon="1.73241">
        <ele>258</ele>
        <time>2019-08-31T13:48:19Z</time>
      </trkpt>
      <trkpt lat="43.1239" lon="1.73303">
        <ele>258</ele>
        <time>2019-08-31T13:48:29Z</time>
      </trkpt>
      <trkpt lat="43.12392" lon="1.73316">
        <ele>258</ele>
        <time>2019-08-31T13:48:31Z</time>
      </trkpt>
      <trkpt lat="43.12397" lon="1.73347">
        <ele>257</ele>
        <time>2019-08-31T13:48:36Z</time>
      </trkpt>
      <trkpt lat="43.12402" lon="1.73366">
        <ele>257</ele>
        <time>2019-08-31T13:48:39Z</time>
      </trkpt>
      <trkpt lat="43.12409" lon="1.73383">
        <ele>257</ele>
        <time>2019-08-31T13:48:42Z</time>
      </trkpt>
      <trkpt lat="43.12421" lon="1.73404">
        <ele>256</ele>
        <time>2019-08-31T13:48:46Z</time>
      </trkpt>
      <trkpt lat="43.12429" lon="1.73421">
        <ele>257</ele>
        <time>2019-08-31T13:48:49Z</time>
      </trkpt>
      <trkpt lat="43.12428" lon="1.73439">
        <ele>256</ele>
        <time>2019-08-31T13:48:52Z</time>
      </trkpt>
      <trkpt lat="43.12416" lon="1.73451">
        <ele>256</ele>
        <time>2019-08-31T13:48:55Z</time>
      </trkpt>
      <trkpt lat="43.12413" lon="1.73456">
        <ele>256</ele>
        <time>2019-08-31T13:48:56Z</time>
      </trkpt>
      <trkpt lat="43.12403" lon="1.7348">
        <ele>256</ele>
        <time>2019-08-31T13:49:00Z</time>
      </trkpt>
      <trkpt lat="43.12394" lon="1.73506">
        <ele>255</ele>
        <time>2019-08-31T13:49:04Z</time>
      </trkpt>
      <trkpt lat="43.12384" lon="1.73536">
        <ele>255</ele>
        <time>2019-08-31T13:49:09Z</time>
      </trkpt>
      <trkpt lat="43.12369" lon="1.73577">
        <ele>256</ele>
        <time>2019-08-31T13:49:16Z</time>
      </trkpt>
      <trkpt lat="43.12358" lon="1.73606">
        <ele>256</ele>
        <time>2019-08-31T13:49:21Z</time>
      </trkpt>
      <trkpt lat="43.12353" lon="1.73617">
        <ele>257</ele>
        <time>2019-08-31T13:49:23Z</time>
      </trkpt>
      <trkpt lat="43.12351" lon="1.73623">
        <ele>257</ele>
        <time>2019-08-31T13:49:24Z</time>
      </trkpt>
      <trkpt lat="43.12339" lon="1.73649">
        <ele>257</ele>
        <time>2019-08-31T13:49:29Z</time>
      </trkpt>
      <trkpt lat="43.12337" lon="1.73655">
        <ele>257</ele>
        <time>2019-08-31T13:49:30Z</time>
      </trkpt>
      <trkpt lat="43.12323" lon="1.73689">
        <ele>258</ele>
        <time>2019-08-31T13:49:36Z</time>
      </trkpt>
      <trkpt lat="43.12311" lon="1.73719">
        <ele>258</ele>
        <time>2019-08-31T13:49:41Z</time>
      </trkpt>
      <trkpt lat="43.12304" lon="1.73737">
        <ele>259</ele>
        <time>2019-08-31T13:49:44Z</time>
      </trkpt>
      <trkpt lat="43.12285" lon="1.73787">
        <ele>259</ele>
        <time>2019-08-31T13:49:51Z</time>
      </trkpt>
      <trkpt lat="43.12267" lon="1.73827">
        <ele>257</ele>
        <time>2019-08-31T13:49:56Z</time>
      </trkpt>
      <trkpt lat="43.12261" lon="1.73834">
        <ele>257</ele>
        <time>2019-08-31T13:49:57Z</time>
      </trkpt>
      <trkpt lat="43.12238" lon="1.73855">
        <ele>256</ele>
        <time>2019-08-31T13:50:01Z</time>
      </trkpt>
      <trkpt lat="43.12203" lon="1.73876">
        <ele>255</ele>
        <time>2019-08-31T13:50:07Z</time>
      </trkpt>
      <trkpt lat="43.12198" lon="1.73879">
        <ele>255</ele>
        <time>2019-08-31T13:50:08Z</time>
      </trkpt>
      <trkpt lat="43.12184" lon="1.7389">
        <ele>255</ele>
        <time>2019-08-31T13:50:11Z</time>
      </trkpt>
      <trkpt lat="43.12179" lon="1.73902">
        <ele>255</ele>
        <time>2019-08-31T13:50:14Z</time>
      </trkpt>
      <trkpt lat="43.12176" lon="1.73933">
        <ele>255</ele>
        <time>2019-08-31T13:50:18Z</time>
      </trkpt>
      <trkpt lat="43.12165" lon="1.73958">
        <ele>256</ele>
        <time>2019-08-31T13:50:22Z</time>
      </trkpt>
      <trkpt lat="43.12161" lon="1.73963">
        <ele>256</ele>
        <time>2019-08-31T13:50:23Z</time>
      </trkpt>
      <trkpt lat="43.12147" lon="1.73974">
        <ele>257</ele>
        <time>2019-08-31T13:50:26Z</time>
      </trkpt>
      <trkpt lat="43.12142" lon="1.73977">
        <ele>258</ele>
        <time>2019-08-31T13:50:27Z</time>
      </trkpt>
      <trkpt lat="43.12137" lon="1.73979">
        <ele>258</ele>
        <time>2019-08-31T13:50:28Z</time>
      </trkpt>
      <trkpt lat="43.12131" lon="1.7398">
        <ele>258</ele>
        <time>2019-08-31T13:50:29Z</time>
      </trkpt>
      <trkpt lat="43.12126" lon="1.73983">
        <ele>259</ele>
        <time>2019-08-31T13:50:30Z</time>
      </trkpt>
      <trkpt lat="43.12123" lon="1.73989">
        <ele>259</ele>
        <time>2019-08-31T13:50:31Z</time>
      </trkpt>
      <trkpt lat="43.12122" lon="1.73996">
        <ele>259</ele>
        <time>2019-08-31T13:50:32Z</time>
      </trkpt>
      <trkpt lat="43.12125" lon="1.74002">
        <ele>260</ele>
        <time>2019-08-31T13:50:33Z</time>
      </trkpt>
      <trkpt lat="43.12135" lon="1.74009">
        <ele>261</ele>
        <time>2019-08-31T13:50:35Z</time>
      </trkpt>
      <trkpt lat="43.1214" lon="1.7401">
        <ele>261</ele>
        <time>2019-08-31T13:50:36Z</time>
      </trkpt>
      <trkpt lat="43.12145" lon="1.74012">
        <ele>262</ele>
        <time>2019-08-31T13:50:37Z</time>
      </trkpt>
      <trkpt lat="43.12151" lon="1.74014">
        <ele>262</ele>
        <time>2019-08-31T13:50:38Z</time>
      </trkpt>
      <trkpt lat="43.12166" lon="1.7402">
        <ele>263</ele>
        <time>2019-08-31T13:50:41Z</time>
      </trkpt>
      <trkpt lat="43.12175" lon="1.74024">
        <ele>264</ele>
        <time>2019-08-31T13:50:43Z</time>
      </trkpt>
      <trkpt lat="43.12181" lon="1.74028">
        <ele>264</ele>
        <time>2019-08-31T13:50:45Z</time>
      </trkpt>
      <trkpt lat="43.12189" lon="1.74035">
        <ele>265</ele>
        <time>2019-08-31T13:50:48Z</time>
      </trkpt>
      <trkpt lat="43.12188" lon="1.74039">
        <ele>265</ele>
        <time>2019-08-31T13:50:49Z</time>
      </trkpt>
      <trkpt lat="43.12184" lon="1.74045">
        <ele>266</ele>
        <time>2019-08-31T13:50:51Z</time>
      </trkpt>
      <trkpt lat="43.12174" lon="1.74045">
        <ele>266</ele>
        <time>2019-08-31T13:50:54Z</time>
      </trkpt>
      <trkpt lat="43.12171" lon="1.74044">
        <ele>267</ele>
        <time>2019-08-31T13:50:55Z</time>
      </trkpt>
      <trkpt lat="43.12152" lon="1.74041">
        <ele>268</ele>
        <time>2019-08-31T13:51:00Z</time>
      </trkpt>
      <trkpt lat="43.12149" lon="1.74041">
        <ele>268</ele>
        <time>2019-08-31T13:51:01Z</time>
      </trkpt>
      <trkpt lat="43.12143" lon="1.7404">
        <ele>269</ele>
        <time>2019-08-31T13:51:03Z</time>
      </trkpt>
      <trkpt lat="43.12135" lon="1.74041">
        <ele>270</ele>
        <time>2019-08-31T13:51:07Z</time>
      </trkpt>
      <trkpt lat="43.12118" lon="1.74042">
        <ele>270</ele>
        <time>2019-08-31T13:51:13Z</time>
      </trkpt>
      <trkpt lat="43.12113" lon="1.74042">
        <ele>270</ele>
        <time>2019-08-31T13:51:14Z</time>
      </trkpt>
      <trkpt lat="43.121" lon="1.74041">
        <ele>269</ele>
        <time>2019-08-31T13:51:17Z</time>
      </trkpt>
      <trkpt lat="43.12087" lon="1.74041">
        <ele>268</ele>
        <time>2019-08-31T13:51:20Z</time>
      </trkpt>
      <trkpt lat="43.12076" lon="1.7404">
        <ele>268</ele>
        <time>2019-08-31T13:51:23Z</time>
      </trkpt>
      <trkpt lat="43.1206" lon="1.74041">
        <ele>266</ele>
        <time>2019-08-31T13:51:27Z</time>
      </trkpt>
      <trkpt lat="43.12051" lon="1.7404">
        <ele>266</ele>
        <time>2019-08-31T13:51:29Z</time>
      </trkpt>
      <trkpt lat="43.12035" lon="1.74041">
        <ele>265</ele>
        <time>2019-08-31T13:51:32Z</time>
      </trkpt>
      <trkpt lat="43.12029" lon="1.74041">
        <ele>265</ele>
        <time>2019-08-31T13:51:33Z</time>
      </trkpt>
      <trkpt lat="43.11994" lon="1.74037">
        <ele>265</ele>
        <time>2019-08-31T13:51:40Z</time>
      </trkpt>
      <trkpt lat="43.11981" lon="1.74035">
        <ele>266</ele>
        <time>2019-08-31T13:51:43Z</time>
      </trkpt>
      <trkpt lat="43.11973" lon="1.74036">
        <ele>267</ele>
        <time>2019-08-31T13:51:45Z</time>
      </trkpt>
      <trkpt lat="43.1197" lon="1.74037">
        <ele>267</ele>
        <time>2019-08-31T13:51:46Z</time>
      </trkpt>
      <trkpt lat="43.11967" lon="1.74039">
        <ele>268</ele>
        <time>2019-08-31T13:51:47Z</time>
      </trkpt>
      <trkpt lat="43.11955" lon="1.7405">
        <ele>269</ele>
        <time>2019-08-31T13:51:51Z</time>
      </trkpt>
      <trkpt lat="43.11948" lon="1.74059">
        <ele>270</ele>
        <time>2019-08-31T13:51:54Z</time>
      </trkpt>
      <trkpt lat="43.1194" lon="1.74067">
        <ele>272</ele>
        <time>2019-08-31T13:51:57Z</time>
      </trkpt>
      <trkpt lat="43.11936" lon="1.74072">
        <ele>272</ele>
        <time>2019-08-31T13:51:59Z</time>
      </trkpt>
      <trkpt lat="43.1193" lon="1.74079">
        <ele>273</ele>
        <time>2019-08-31T13:52:02Z</time>
      </trkpt>
      <trkpt lat="43.11919" lon="1.74089">
        <ele>274</ele>
        <time>2019-08-31T13:52:07Z</time>
      </trkpt>
      <trkpt lat="43.11907" lon="1.74108">
        <ele>274</ele>
        <time>2019-08-31T13:52:14Z</time>
      </trkpt>
      <trkpt lat="43.11896" lon="1.74129">
        <ele>275</ele>
        <time>2019-08-31T13:52:21Z</time>
      </trkpt>
      <trkpt lat="43.11889" lon="1.74145">
        <ele>273</ele>
        <time>2019-08-31T13:52:25Z</time>
      </trkpt>
      <trkpt lat="43.11887" lon="1.74153">
        <ele>272</ele>
        <time>2019-08-31T13:52:27Z</time>
      </trkpt>
      <trkpt lat="43.11884" lon="1.74161">
        <ele>271</ele>
        <time>2019-08-31T13:52:30Z</time>
      </trkpt>
      <trkpt lat="43.11883" lon="1.74163">
        <ele>271</ele>
        <time>2019-08-31T13:52:31Z</time>
      </trkpt>
      <trkpt lat="43.1188" lon="1.7417">
        <ele>270</ele>
        <time>2019-08-31T13:52:35Z</time>
      </trkpt>
      <trkpt lat="43.11878" lon="1.74173">
        <ele>269</ele>
        <time>2019-08-31T13:52:37Z</time>
      </trkpt>
      <trkpt lat="43.1187" lon="1.74183">
        <ele>269</ele>
        <time>2019-08-31T13:52:44Z</time>
      </trkpt>
      <trkpt lat="43.11869" lon="1.74186">
        <ele>269</ele>
        <time>2019-08-31T13:52:45Z</time>
      </trkpt>
      <trkpt lat="43.11868" lon="1.74188">
        <ele>269</ele>
        <time>2019-08-31T13:52:46Z</time>
      </trkpt>
      <trkpt lat="43.11866" lon="1.74191">
        <ele>268</ele>
        <time>2019-08-31T13:52:49Z</time>
      </trkpt>
      <trkpt lat="43.11863" lon="1.74193">
        <ele>268</ele>
        <time>2019-08-31T13:52:58Z</time>
      </trkpt>
      <trkpt lat="43.11859" lon="1.74195">
        <ele>268</ele>
        <time>2019-08-31T13:52:59Z</time>
      </trkpt>
      <trkpt lat="43.1185" lon="1.742">
        <ele>268</ele>
        <time>2019-08-31T13:53:01Z</time>
      </trkpt>
      <trkpt lat="43.11839" lon="1.74203">
        <ele>267</ele>
        <time>2019-08-31T13:53:03Z</time>
      </trkpt>
      <trkpt lat="43.11834" lon="1.74203">
        <ele>267</ele>
        <time>2019-08-31T13:53:04Z</time>
      </trkpt>
      <trkpt lat="43.11818" lon="1.74202">
        <ele>266</ele>
        <time>2019-08-31T13:53:07Z</time>
      </trkpt>
      <trkpt lat="43.11814" lon="1.742">
        <ele>266</ele>
        <time>2019-08-31T13:53:08Z</time>
      </trkpt>
      <trkpt lat="43.11798" lon="1.74193">
        <ele>267</ele>
        <time>2019-08-31T13:53:13Z</time>
      </trkpt>
      <trkpt lat="43.11785" lon="1.74188">
        <ele>268</ele>
        <time>2019-08-31T13:53:17Z</time>
      </trkpt>
      <trkpt lat="43.1177" lon="1.74185">
        <ele>268</ele>
        <time>2019-08-31T13:53:21Z</time>
      </trkpt>
      <trkpt lat="43.11758" lon="1.74185">
        <ele>269</ele>
        <time>2019-08-31T13:53:25Z</time>
      </trkpt>
      <trkpt lat="43.11756" lon="1.74185">
        <ele>269</ele>
        <time>2019-08-31T13:53:26Z</time>
      </trkpt>
      <trkpt lat="43.1175" lon="1.74184">
        <ele>270</ele>
        <time>2019-08-31T13:53:28Z</time>
      </trkpt>
      <trkpt lat="43.11742" lon="1.74183">
        <ele>271</ele>
        <time>2019-08-31T13:53:31Z</time>
      </trkpt>
      <trkpt lat="43.11732" lon="1.7418">
        <ele>272</ele>
        <time>2019-08-31T13:53:35Z</time>
      </trkpt>
      <trkpt lat="43.11721" lon="1.74175">
        <ele>272</ele>
        <time>2019-08-31T13:53:40Z</time>
      </trkpt>
      <trkpt lat="43.11715" lon="1.74174">
        <ele>273</ele>
        <time>2019-08-31T13:53:42Z</time>
      </trkpt>
      <trkpt lat="43.11697" lon="1.74168">
        <ele>271</ele>
        <time>2019-08-31T13:53:48Z</time>
      </trkpt>
      <trkpt lat="43.11693" lon="1.74148">
        <ele>270</ele>
        <time>2019-08-31T13:53:51Z</time>
      </trkpt>
      <trkpt lat="43.11692" lon="1.74141">
        <ele>269</ele>
        <time>2019-08-31T13:53:52Z</time>
      </trkpt>
      <trkpt lat="43.11691" lon="1.74126">
        <ele>269</ele>
        <time>2019-08-31T13:53:54Z</time>
      </trkpt>
      <trkpt lat="43.1169" lon="1.74115">
        <ele>268</ele>
        <time>2019-08-31T13:53:56Z</time>
      </trkpt>
      <trkpt lat="43.11689" lon="1.74112">
        <ele>268</ele>
        <time>2019-08-31T13:53:57Z</time>
      </trkpt>
      <trkpt lat="43.11685" lon="1.7411">
        <ele>267</ele>
        <time>2019-08-31T13:54:00Z</time>
      </trkpt>
      <trkpt lat="43.11683" lon="1.74109">
        <ele>267</ele>
        <time>2019-08-31T13:54:16Z</time>
      </trkpt>
      <trkpt lat="43.11679" lon="1.7411">
        <ele>267</ele>
        <time>2019-08-31T13:54:18Z</time>
      </trkpt>
      <trkpt lat="43.11667" lon="1.74113">
        <ele>267</ele>
        <time>2019-08-31T13:54:23Z</time>
      </trkpt>
      <trkpt lat="43.11659" lon="1.74114">
        <ele>267</ele>
        <time>2019-08-31T13:54:25Z</time>
      </trkpt>
      <trkpt lat="43.11649" lon="1.74115">
        <ele>266</ele>
        <time>2019-08-31T13:54:27Z</time>
      </trkpt>
      <trkpt lat="43.11626" lon="1.7412">
        <ele>266</ele>
        <time>2019-08-31T13:54:32Z</time>
      </trkpt>
      <trkpt lat="43.11621" lon="1.74123">
        <ele>266</ele>
        <time>2019-08-31T13:54:33Z</time>
      </trkpt>
      <trkpt lat="43.11616" lon="1.74125">
        <ele>265</ele>
        <time>2019-08-31T13:54:34Z</time>
      </trkpt>
      <trkpt lat="43.11607" lon="1.74131">
        <ele>265</ele>
        <time>2019-08-31T13:54:36Z</time>
      </trkpt>
      <trkpt lat="43.11591" lon="1.74139">
        <ele>264</ele>
        <time>2019-08-31T13:54:39Z</time>
      </trkpt>
      <trkpt lat="43.11587" lon="1.7414">
        <ele>264</ele>
        <time>2019-08-31T13:54:40Z</time>
      </trkpt>
      <trkpt lat="43.11582" lon="1.74141">
        <ele>264</ele>
        <time>2019-08-31T13:54:41Z</time>
      </trkpt>
      <trkpt lat="43.11571" lon="1.74145">
        <ele>263</ele>
        <time>2019-08-31T13:54:43Z</time>
      </trkpt>
      <trkpt lat="43.11566" lon="1.7415">
        <ele>262</ele>
        <time>2019-08-31T13:54:44Z</time>
      </trkpt>
      <trkpt lat="43.11563" lon="1.74164">
        <ele>261</ele>
        <time>2019-08-31T13:54:46Z</time>
      </trkpt>
      <trkpt lat="43.11562" lon="1.74179">
        <ele>260</ele>
        <time>2019-08-31T13:54:48Z</time>
      </trkpt>
      <trkpt lat="43.1156" lon="1.74185">
        <ele>260</ele>
        <time>2019-08-31T13:54:49Z</time>
      </trkpt>
      <trkpt lat="43.11558" lon="1.74191">
        <ele>259</ele>
        <time>2019-08-31T13:54:50Z</time>
      </trkpt>
      <trkpt lat="43.11556" lon="1.74197">
        <ele>258</ele>
        <time>2019-08-31T13:54:51Z</time>
      </trkpt>
      <trkpt lat="43.11556" lon="1.74203">
        <ele>258</ele>
        <time>2019-08-31T13:54:52Z</time>
      </trkpt>
      <trkpt lat="43.11553" lon="1.74209">
        <ele>257</ele>
        <time>2019-08-31T13:54:53Z</time>
      </trkpt>
      <trkpt lat="43.11551" lon="1.74214">
        <ele>256</ele>
        <time>2019-08-31T13:54:54Z</time>
      </trkpt>
      <trkpt lat="43.11549" lon="1.74219">
        <ele>255</ele>
        <time>2019-08-31T13:54:56Z</time>
      </trkpt>
      <trkpt lat="43.11541" lon="1.74231">
        <ele>249</ele>
        <time>2019-08-31T13:55:05Z</time>
      </trkpt>
      <trkpt lat="43.1154" lon="1.74233">
        <ele>249</ele>
        <time>2019-08-31T13:55:06Z</time>
      </trkpt>
      <trkpt lat="43.11539" lon="1.74234">
        <ele>248</ele>
        <time>2019-08-31T13:55:07Z</time>
      </trkpt>
      <trkpt lat="43.11537" lon="1.74234">
        <ele>248</ele>
        <time>2019-08-31T13:55:08Z</time>
      </trkpt>
      <trkpt lat="43.11536" lon="1.74235">
        <ele>247</ele>
        <time>2019-08-31T13:55:09Z</time>
      </trkpt>
      <trkpt lat="43.11533" lon="1.74236">
        <ele>246</ele>
        <time>2019-08-31T13:55:11Z</time>
      </trkpt>
      <trkpt lat="43.11531" lon="1.74236">
        <ele>245</ele>
        <time>2019-08-31T13:55:12Z</time>
      </trkpt>
      <trkpt lat="43.1153" lon="1.74236">
        <ele>245</ele>
        <time>2019-08-31T13:55:13Z</time>
      </trkpt>
      <trkpt lat="43.11526" lon="1.74238">
        <ele>244</ele>
        <time>2019-08-31T13:55:16Z</time>
      </trkpt>
      <trkpt lat="43.11523" lon="1.74238">
        <ele>243</ele>
        <time>2019-08-31T13:55:19Z</time>
      </trkpt>
      <trkpt lat="43.11521" lon="1.74236">
        <ele>243</ele>
        <time>2019-08-31T13:55:21Z</time>
      </trkpt>
      <trkpt lat="43.11519" lon="1.74232">
        <ele>243</ele>
        <time>2019-08-31T13:55:25Z</time>
      </trkpt>
      <trkpt lat="43.11519" lon="1.74231">
        <ele>243</ele>
        <time>2019-08-31T13:55:26Z</time>
      </trkpt>
      <trkpt lat="43.11517" lon="1.74223">
        <ele>244</ele>
        <time>2019-08-31T13:55:31Z</time>
      </trkpt>
      <trkpt lat="43.11515" lon="1.7422">
        <ele>244</ele>
        <time>2019-08-31T13:55:33Z</time>
      </trkpt>
      <trkpt lat="43.11511" lon="1.74211">
        <ele>245</ele>
        <time>2019-08-31T13:55:38Z</time>
      </trkpt>
      <trkpt lat="43.11505" lon="1.74199">
        <ele>244</ele>
        <time>2019-08-31T13:55:43Z</time>
      </trkpt>
      <trkpt lat="43.11504" lon="1.74196">
        <ele>244</ele>
        <time>2019-08-31T13:55:44Z</time>
      </trkpt>
      <trkpt lat="43.11496" lon="1.7418">
        <ele>243</ele>
        <time>2019-08-31T13:55:48Z</time>
      </trkpt>
      <trkpt lat="43.11494" lon="1.74174">
        <ele>242</ele>
        <time>2019-08-31T13:55:49Z</time>
      </trkpt>
      <trkpt lat="43.11492" lon="1.74165">
        <ele>241</ele>
        <time>2019-08-31T13:55:51Z</time>
      </trkpt>
      <trkpt lat="43.11489" lon="1.74164">
        <ele>240</ele>
        <time>2019-08-31T13:55:52Z</time>
      </trkpt>
      <trkpt lat="43.11483" lon="1.74163">
        <ele>240</ele>
        <time>2019-08-31T13:55:55Z</time>
      </trkpt>
      <trkpt lat="43.1148" lon="1.74162">
        <ele>240</ele>
        <time>2019-08-31T13:55:56Z</time>
      </trkpt>
      <trkpt lat="43.11474" lon="1.74156">
        <ele>238</ele>
        <time>2019-08-31T13:55:58Z</time>
      </trkpt>
      <trkpt lat="43.11462" lon="1.74142">
        <ele>238</ele>
        <time>2019-08-31T13:56:01Z</time>
      </trkpt>
      <trkpt lat="43.11457" lon="1.7414">
        <ele>237</ele>
        <time>2019-08-31T13:56:02Z</time>
      </trkpt>
      <trkpt lat="43.11449" lon="1.74137">
        <ele>235</ele>
        <time>2019-08-31T13:56:04Z</time>
      </trkpt>
      <trkpt lat="43.11442" lon="1.74136">
        <ele>233</ele>
        <time>2019-08-31T13:56:06Z</time>
      </trkpt>
      <trkpt lat="43.11433" lon="1.74138">
        <ele>231</ele>
        <time>2019-08-31T13:56:08Z</time>
      </trkpt>
      <trkpt lat="43.11425" lon="1.74141">
        <ele>229</ele>
        <time>2019-08-31T13:56:10Z</time>
      </trkpt>
      <trkpt lat="43.11419" lon="1.74142">
        <ele>228</ele>
        <time>2019-08-31T13:56:11Z</time>
      </trkpt>
      <trkpt lat="43.11406" lon="1.74143">
        <ele>227</ele>
        <time>2019-08-31T13:56:14Z</time>
      </trkpt>
      <trkpt lat="43.11399" lon="1.74143">
        <ele>227</ele>
        <time>2019-08-31T13:56:16Z</time>
      </trkpt>
      <trkpt lat="43.11391" lon="1.74141">
        <ele>225</ele>
        <time>2019-08-31T13:56:18Z</time>
      </trkpt>
      <trkpt lat="43.11388" lon="1.74138">
        <ele>225</ele>
        <time>2019-08-31T13:56:19Z</time>
      </trkpt>
      <trkpt lat="43.11387" lon="1.74134">
        <ele>224</ele>
        <time>2019-08-31T13:56:20Z</time>
      </trkpt>
      <trkpt lat="43.11382" lon="1.74123">
        <ele>223</ele>
        <time>2019-08-31T13:56:23Z</time>
      </trkpt>
      <trkpt lat="43.1138" lon="1.7412">
        <ele>223</ele>
        <time>2019-08-31T13:56:24Z</time>
      </trkpt>
      <trkpt lat="43.11376" lon="1.74104">
        <ele>222</ele>
        <time>2019-08-31T13:56:28Z</time>
      </trkpt>
      <trkpt lat="43.11374" lon="1.74091">
        <ele>222</ele>
        <time>2019-08-31T13:56:31Z</time>
      </trkpt>
      <trkpt lat="43.11371" lon="1.74084">
        <ele>222</ele>
        <time>2019-08-31T13:56:33Z</time>
      </trkpt>
      <trkpt lat="43.11369" lon="1.7408">
        <ele>221</ele>
        <time>2019-08-31T13:56:34Z</time>
      </trkpt>
      <trkpt lat="43.11367" lon="1.74064">
        <ele>220</ele>
        <time>2019-08-31T13:56:37Z</time>
      </trkpt>
      <trkpt lat="43.11366" lon="1.74058">
        <ele>219</ele>
        <time>2019-08-31T13:56:38Z</time>
      </trkpt>
      <trkpt lat="43.11364" lon="1.74055">
        <ele>219</ele>
        <time>2019-08-31T13:56:39Z</time>
      </trkpt>
      <trkpt lat="43.11358" lon="1.74048">
        <ele>220</ele>
        <time>2019-08-31T13:56:41Z</time>
      </trkpt>
      <trkpt lat="43.11354" lon="1.74047">
        <ele>220</ele>
        <time>2019-08-31T13:56:42Z</time>
      </trkpt>
      <trkpt lat="43.11343" lon="1.7404">
        <ele>221</ele>
        <time>2019-08-31T13:56:45Z</time>
      </trkpt>
      <trkpt lat="43.11339" lon="1.74038">
        <ele>222</ele>
        <time>2019-08-31T13:56:46Z</time>
      </trkpt>
      <trkpt lat="43.11327" lon="1.74034">
        <ele>222</ele>
        <time>2019-08-31T13:56:49Z</time>
      </trkpt>
      <trkpt lat="43.11323" lon="1.74033">
        <ele>221</ele>
        <time>2019-08-31T13:56:50Z</time>
      </trkpt>
      <trkpt lat="43.11313" lon="1.74033">
        <ele>220</ele>
        <time>2019-08-31T13:56:53Z</time>
      </trkpt>
      <trkpt lat="43.11305" lon="1.74033">
        <ele>220</ele>
        <time>2019-08-31T13:56:55Z</time>
      </trkpt>
      <trkpt lat="43.11283" lon="1.74034">
        <ele>222</ele>
        <time>2019-08-31T13:57:00Z</time>
      </trkpt>
      <trkpt lat="43.11276" lon="1.74037">
        <ele>223</ele>
        <time>2019-08-31T13:57:02Z</time>
      </trkpt>
      <trkpt lat="43.11272" lon="1.74039">
        <ele>223</ele>
        <time>2019-08-31T13:57:03Z</time>
      </trkpt>
      <trkpt lat="43.11266" lon="1.74043">
        <ele>225</ele>
        <time>2019-08-31T13:57:05Z</time>
      </trkpt>
      <trkpt lat="43.11262" lon="1.74045">
        <ele>226</ele>
        <time>2019-08-31T13:57:06Z</time>
      </trkpt>
      <trkpt lat="43.11259" lon="1.74048">
        <ele>227</ele>
        <time>2019-08-31T13:57:07Z</time>
      </trkpt>
      <trkpt lat="43.11253" lon="1.74051">
        <ele>229</ele>
        <time>2019-08-31T13:57:09Z</time>
      </trkpt>
      <trkpt lat="43.11249" lon="1.74053">
        <ele>230</ele>
        <time>2019-08-31T13:57:10Z</time>
      </trkpt>
      <trkpt lat="43.11245" lon="1.74055">
        <ele>231</ele>
        <time>2019-08-31T13:57:11Z</time>
      </trkpt>
      <trkpt lat="43.11241" lon="1.74057">
        <ele>231</ele>
        <time>2019-08-31T13:57:12Z</time>
      </trkpt>
      <trkpt lat="43.11231" lon="1.74063">
        <ele>233</ele>
        <time>2019-08-31T13:57:14Z</time>
      </trkpt>
      <trkpt lat="43.11226" lon="1.74067">
        <ele>233</ele>
        <time>2019-08-31T13:57:15Z</time>
      </trkpt>
      <trkpt lat="43.11221" lon="1.7407">
        <ele>234</ele>
        <time>2019-08-31T13:57:16Z</time>
      </trkpt>
      <trkpt lat="43.11212" lon="1.74077">
        <ele>235</ele>
        <time>2019-08-31T13:57:18Z</time>
      </trkpt>
      <trkpt lat="43.11207" lon="1.74081">
        <ele>236</ele>
        <time>2019-08-31T13:57:19Z</time>
      </trkpt>
      <trkpt lat="43.112" lon="1.74088">
        <ele>237</ele>
        <time>2019-08-31T13:57:21Z</time>
      </trkpt>
      <trkpt lat="43.11192" lon="1.74094">
        <ele>239</ele>
        <time>2019-08-31T13:57:23Z</time>
      </trkpt>
      <trkpt lat="43.11188" lon="1.74097">
        <ele>239</ele>
        <time>2019-08-31T13:57:24Z</time>
      </trkpt>
      <trkpt lat="43.1118" lon="1.74105">
        <ele>240</ele>
        <time>2019-08-31T13:57:26Z</time>
      </trkpt>
      <trkpt lat="43.11175" lon="1.74108">
        <ele>241</ele>
        <time>2019-08-31T13:57:27Z</time>
      </trkpt>
      <trkpt lat="43.11168" lon="1.74112">
        <ele>241</ele>
        <time>2019-08-31T13:57:29Z</time>
      </trkpt>
      <trkpt lat="43.11162" lon="1.7412">
        <ele>242</ele>
        <time>2019-08-31T13:57:31Z</time>
      </trkpt>
      <trkpt lat="43.11159" lon="1.74124">
        <ele>242</ele>
        <time>2019-08-31T13:57:32Z</time>
      </trkpt>
      <trkpt lat="43.11152" lon="1.74131">
        <ele>244</ele>
        <time>2019-08-31T13:57:34Z</time>
      </trkpt>
      <trkpt lat="43.11146" lon="1.74137">
        <ele>244</ele>
        <time>2019-08-31T13:57:36Z</time>
      </trkpt>
      <trkpt lat="43.11143" lon="1.74138">
        <ele>245</ele>
        <time>2019-08-31T13:57:37Z</time>
      </trkpt>
      <trkpt lat="43.11139" lon="1.7414">
        <ele>245</ele>
        <time>2019-08-31T13:57:38Z</time>
      </trkpt>
      <trkpt lat="43.1113" lon="1.74146">
        <ele>246</ele>
        <time>2019-08-31T13:57:41Z</time>
      </trkpt>
      <trkpt lat="43.11128" lon="1.7415">
        <ele>246</ele>
        <time>2019-08-31T13:57:42Z</time>
      </trkpt>
      <trkpt lat="43.1112" lon="1.74153">
        <ele>246</ele>
        <time>2019-08-31T13:57:44Z</time>
      </trkpt>
      <trkpt lat="43.1111" lon="1.74148">
        <ele>247</ele>
        <time>2019-08-31T13:57:47Z</time>
      </trkpt>
      <trkpt lat="43.11106" lon="1.74146">
        <ele>247</ele>
        <time>2019-08-31T13:57:48Z</time>
      </trkpt>
      <trkpt lat="43.111" lon="1.74143">
        <ele>247</ele>
        <time>2019-08-31T13:57:50Z</time>
      </trkpt>
      <trkpt lat="43.1109" lon="1.74142">
        <ele>246</ele>
        <time>2019-08-31T13:57:53Z</time>
      </trkpt>
      <trkpt lat="43.1107" lon="1.74133">
        <ele>246</ele>
        <time>2019-08-31T13:57:58Z</time>
      </trkpt>
      <trkpt lat="43.11059" lon="1.74127">
        <ele>246</ele>
        <time>2019-08-31T13:58:02Z</time>
      </trkpt>
      <trkpt lat="43.11047" lon="1.74134">
        <ele>245</ele>
        <time>2019-08-31T13:58:06Z</time>
      </trkpt>
      <trkpt lat="43.11037" lon="1.74135">
        <ele>244</ele>
        <time>2019-08-31T13:58:08Z</time>
      </trkpt>
      <trkpt lat="43.11028" lon="1.74134">
        <ele>243</ele>
        <time>2019-08-31T13:58:10Z</time>
      </trkpt>
      <trkpt lat="43.11019" lon="1.74131">
        <ele>242</ele>
        <time>2019-08-31T13:58:12Z</time>
      </trkpt>
      <trkpt lat="43.11011" lon="1.74134">
        <ele>242</ele>
        <time>2019-08-31T13:58:14Z</time>
      </trkpt>
      <trkpt lat="43.11004" lon="1.74141">
        <ele>241</ele>
        <time>2019-08-31T13:58:16Z</time>
      </trkpt>
      <trkpt lat="43.11" lon="1.74145">
        <ele>240</ele>
        <time>2019-08-31T13:58:17Z</time>
      </trkpt>
      <trkpt lat="43.10995" lon="1.74148">
        <ele>240</ele>
        <time>2019-08-31T13:58:18Z</time>
      </trkpt>
      <trkpt lat="43.10991" lon="1.7415">
        <ele>239</ele>
        <time>2019-08-31T13:58:19Z</time>
      </trkpt>
      <trkpt lat="43.10983" lon="1.74155">
        <ele>239</ele>
        <time>2019-08-31T13:58:21Z</time>
      </trkpt>
      <trkpt lat="43.10975" lon="1.74159">
        <ele>239</ele>
        <time>2019-08-31T13:58:23Z</time>
      </trkpt>
      <trkpt lat="43.10971" lon="1.74158">
        <ele>239</ele>
        <time>2019-08-31T13:58:24Z</time>
      </trkpt>
      <trkpt lat="43.10964" lon="1.74159">
        <ele>239</ele>
        <time>2019-08-31T13:58:26Z</time>
      </trkpt>
      <trkpt lat="43.10951" lon="1.74168">
        <ele>239</ele>
        <time>2019-08-31T13:58:30Z</time>
      </trkpt>
      <trkpt lat="43.10931" lon="1.74171">
        <ele>240</ele>
        <time>2019-08-31T13:58:34Z</time>
      </trkpt>
      <trkpt lat="43.10922" lon="1.74171">
        <ele>241</ele>
        <time>2019-08-31T13:58:36Z</time>
      </trkpt>
      <trkpt lat="43.10915" lon="1.74175">
        <ele>242</ele>
        <time>2019-08-31T13:58:38Z</time>
      </trkpt>
      <trkpt lat="43.10912" lon="1.74177">
        <ele>243</ele>
        <time>2019-08-31T13:58:39Z</time>
      </trkpt>
      <trkpt lat="43.10904" lon="1.74181">
        <ele>244</ele>
        <time>2019-08-31T13:58:41Z</time>
      </trkpt>
      <trkpt lat="43.10901" lon="1.74182">
        <ele>246</ele>
        <time>2019-08-31T13:58:42Z</time>
      </trkpt>
      <trkpt lat="43.10894" lon="1.74186">
        <ele>247</ele>
        <time>2019-08-31T13:58:44Z</time>
      </trkpt>
      <trkpt lat="43.10891" lon="1.74187">
        <ele>247</ele>
        <time>2019-08-31T13:58:45Z</time>
      </trkpt>
      <trkpt lat="43.10876" lon="1.74195">
        <ele>248</ele>
        <time>2019-08-31T13:58:49Z</time>
      </trkpt>
      <trkpt lat="43.10873" lon="1.74196">
        <ele>248</ele>
        <time>2019-08-31T13:58:50Z</time>
      </trkpt>
      <trkpt lat="43.10862" lon="1.74195">
        <ele>249</ele>
        <time>2019-08-31T13:58:53Z</time>
      </trkpt>
      <trkpt lat="43.10855" lon="1.74193">
        <ele>250</ele>
        <time>2019-08-31T13:58:55Z</time>
      </trkpt>
      <trkpt lat="43.10852" lon="1.74192">
        <ele>250</ele>
        <time>2019-08-31T13:58:56Z</time>
      </trkpt>
      <trkpt lat="43.1084" lon="1.74195">
        <ele>250</ele>
        <time>2019-08-31T13:59:00Z</time>
      </trkpt>
      <trkpt lat="43.10818" lon="1.74202">
        <ele>250</ele>
        <time>2019-08-31T13:59:06Z</time>
      </trkpt>
      <trkpt lat="43.10796" lon="1.74212">
        <ele>251</ele>
        <time>2019-08-31T13:59:13Z</time>
      </trkpt>
      <trkpt lat="43.10793" lon="1.74214">
        <ele>251</ele>
        <time>2019-08-31T13:59:14Z</time>
      </trkpt>
      <trkpt lat="43.10785" lon="1.74214">
        <ele>253</ele>
        <time>2019-08-31T13:59:16Z</time>
      </trkpt>
      <trkpt lat="43.10777" lon="1.74215">
        <ele>254</ele>
        <time>2019-08-31T13:59:18Z</time>
      </trkpt>
      <trkpt lat="43.10748" lon="1.74227">
        <ele>254</ele>
        <time>2019-08-31T13:59:24Z</time>
      </trkpt>
      <trkpt lat="43.10706" lon="1.74248">
        <ele>254</ele>
        <time>2019-08-31T13:59:32Z</time>
      </trkpt>
      <trkpt lat="43.10677" lon="1.74269">
        <ele>253</ele>
        <time>2019-08-31T13:59:38Z</time>
      </trkpt>
      <trkpt lat="43.10651" lon="1.74294">
        <ele>252</ele>
        <time>2019-08-31T13:59:45Z</time>
      </trkpt>
      <trkpt lat="43.10622" lon="1.7432">
        <ele>252</ele>
        <time>2019-08-31T13:59:53Z</time>
      </trkpt>
      <trkpt lat="43.10604" lon="1.74326">
        <ele>252</ele>
        <time>2019-08-31T13:59:58Z</time>
      </trkpt>
      <trkpt lat="43.10584" lon="1.74324">
        <ele>252</ele>
        <time>2019-08-31T14:00:04Z</time>
      </trkpt>
      <trkpt lat="43.10574" lon="1.74329">
        <ele>252</ele>
        <time>2019-08-31T14:00:07Z</time>
      </trkpt>
      <trkpt lat="43.10567" lon="1.74332">
        <ele>251</ele>
        <time>2019-08-31T14:00:09Z</time>
      </trkpt>
      <trkpt lat="43.10546" lon="1.74337">
        <ele>251</ele>
        <time>2019-08-31T14:00:15Z</time>
      </trkpt>
      <trkpt lat="43.10525" lon="1.74347">
        <ele>251</ele>
        <time>2019-08-31T14:00:21Z</time>
      </trkpt>
      <trkpt lat="43.10506" lon="1.74365">
        <ele>252</ele>
        <time>2019-08-31T14:00:27Z</time>
      </trkpt>
      <trkpt lat="43.10496" lon="1.74378">
        <ele>253</ele>
        <time>2019-08-31T14:00:31Z</time>
      </trkpt>
      <trkpt lat="43.1049" lon="1.74383">
        <ele>253</ele>
        <time>2019-08-31T14:00:33Z</time>
      </trkpt>
      <trkpt lat="43.10484" lon="1.74387">
        <ele>254</ele>
        <time>2019-08-31T14:00:35Z</time>
      </trkpt>
      <trkpt lat="43.10474" lon="1.74396">
        <ele>255</ele>
        <time>2019-08-31T14:00:39Z</time>
      </trkpt>
      <trkpt lat="43.10472" lon="1.74398">
        <ele>255</ele>
        <time>2019-08-31T14:00:40Z</time>
      </trkpt>
      <trkpt lat="43.10468" lon="1.74404">
        <ele>256</ele>
        <time>2019-08-31T14:00:42Z</time>
      </trkpt>
      <trkpt lat="43.1046" lon="1.74413">
        <ele>257</ele>
        <time>2019-08-31T14:00:45Z</time>
      </trkpt>
      <trkpt lat="43.10455" lon="1.74418">
        <ele>258</ele>
        <time>2019-08-31T14:00:47Z</time>
      </trkpt>
      <trkpt lat="43.1045" lon="1.74424">
        <ele>259</ele>
        <time>2019-08-31T14:00:49Z</time>
      </trkpt>
      <trkpt lat="43.10434" lon="1.74443">
        <ele>259</ele>
        <time>2019-08-31T14:00:55Z</time>
      </trkpt>
      <trkpt lat="43.10418" lon="1.74463">
        <ele>260</ele>
        <time>2019-08-31T14:01:01Z</time>
      </trkpt>
      <trkpt lat="43.10416" lon="1.74466">
        <ele>260</ele>
        <time>2019-08-31T14:01:02Z</time>
      </trkpt>
      <trkpt lat="43.1039" lon="1.74494">
        <ele>260</ele>
        <time>2019-08-31T14:01:12Z</time>
      </trkpt>
      <trkpt lat="43.10378" lon="1.74508">
        <ele>261</ele>
        <time>2019-08-31T14:01:17Z</time>
      </trkpt>
      <trkpt lat="43.10365" lon="1.74523">
        <ele>261</ele>
        <time>2019-08-31T14:01:22Z</time>
      </trkpt>
      <trkpt lat="43.10344" lon="1.74549">
        <ele>261</ele>
        <time>2019-08-31T14:01:30Z</time>
      </trkpt>
      <trkpt lat="43.10329" lon="1.74567">
        <ele>261</ele>
        <time>2019-08-31T14:01:36Z</time>
      </trkpt>
      <trkpt lat="43.10308" lon="1.74591">
        <ele>261</ele>
        <time>2019-08-31T14:01:44Z</time>
      </trkpt>
      <trkpt lat="43.10299" lon="1.74597">
        <ele>262</ele>
        <time>2019-08-31T14:01:47Z</time>
      </trkpt>
      <trkpt lat="43.10285" lon="1.74602">
        <ele>262</ele>
        <time>2019-08-31T14:01:51Z</time>
      </trkpt>
      <trkpt lat="43.10254" lon="1.74611">
        <ele>261</ele>
        <time>2019-08-31T14:02:00Z</time>
      </trkpt>
      <trkpt lat="43.10232" lon="1.74617">
        <ele>261</ele>
        <time>2019-08-31T14:02:07Z</time>
      </trkpt>
      <trkpt lat="43.10227" lon="1.74621">
        <ele>261</ele>
        <time>2019-08-31T14:02:09Z</time>
      </trkpt>
      <trkpt lat="43.10226" lon="1.74624">
        <ele>261</ele>
        <time>2019-08-31T14:02:10Z</time>
      </trkpt>
      <trkpt lat="43.10226" lon="1.74627">
        <ele>261</ele>
        <time>2019-08-31T14:02:11Z</time>
      </trkpt>
      <trkpt lat="43.10232" lon="1.74637">
        <ele>260</ele>
        <time>2019-08-31T14:02:15Z</time>
      </trkpt>
      <trkpt lat="43.10247" lon="1.74657">
        <ele>261</ele>
        <time>2019-08-31T14:02:21Z</time>
      </trkpt>
      <trkpt lat="43.1026" lon="1.74676">
        <ele>260</ele>
        <time>2019-08-31T14:02:27Z</time>
      </trkpt>
      <trkpt lat="43.10272" lon="1.74691">
        <ele>261</ele>
        <time>2019-08-31T14:02:32Z</time>
      </trkpt>
      <trkpt lat="43.10284" lon="1.74708">
        <ele>261</ele>
        <time>2019-08-31T14:02:37Z</time>
      </trkpt>
      <trkpt lat="43.1029" lon="1.74716">
        <ele>262</ele>
        <time>2019-08-31T14:02:40Z</time>
      </trkpt>
      <trkpt lat="43.10295" lon="1.74725">
        <ele>262</ele>
        <time>2019-08-31T14:02:43Z</time>
      </trkpt>
      <trkpt lat="43.103" lon="1.74732">
        <ele>263</ele>
        <time>2019-08-31T14:02:46Z</time>
      </trkpt>
      <trkpt lat="43.10305" lon="1.74734">
        <ele>263</ele>
        <time>2019-08-31T14:02:48Z</time>
      </trkpt>
      <trkpt lat="43.1032" lon="1.74738">
        <ele>263</ele>
        <time>2019-08-31T14:02:53Z</time>
      </trkpt>
      <trkpt lat="43.10336" lon="1.74751">
        <ele>263</ele>
        <time>2019-08-31T14:02:58Z</time>
      </trkpt>
      <trkpt lat="43.10362" lon="1.74765">
        <ele>264</ele>
        <time>2019-08-31T14:03:05Z</time>
      </trkpt>
      <trkpt lat="43.10377" lon="1.74777">
        <ele>264</ele>
        <time>2019-08-31T14:03:09Z</time>
      </trkpt>
      <trkpt lat="43.10387" lon="1.74788">
        <ele>264</ele>
        <time>2019-08-31T14:03:12Z</time>
      </trkpt>
      <trkpt lat="43.10404" lon="1.74804">
        <ele>265</ele>
        <time>2019-08-31T14:03:17Z</time>
      </trkpt>
      <trkpt lat="43.10411" lon="1.74811">
        <ele>266</ele>
        <time>2019-08-31T14:03:19Z</time>
      </trkpt>
      <trkpt lat="43.10431" lon="1.74831">
        <ele>266</ele>
        <time>2019-08-31T14:03:25Z</time>
      </trkpt>
      <trkpt lat="43.10448" lon="1.74846">
        <ele>266</ele>
        <time>2019-08-31T14:03:30Z</time>
      </trkpt>
      <trkpt lat="43.10457" lon="1.74855">
        <ele>267</ele>
        <time>2019-08-31T14:03:33Z</time>
      </trkpt>
      <trkpt lat="43.10465" lon="1.74865">
        <ele>267</ele>
        <time>2019-08-31T14:03:36Z</time>
      </trkpt>
      <trkpt lat="43.10476" lon="1.74878">
        <ele>268</ele>
        <time>2019-08-31T14:03:40Z</time>
      </trkpt>
      <trkpt lat="43.1048" lon="1.74886">
        <ele>269</ele>
        <time>2019-08-31T14:03:42Z</time>
      </trkpt>
      <trkpt lat="43.10495" lon="1.7491">
        <ele>269</ele>
        <time>2019-08-31T14:03:48Z</time>
      </trkpt>
      <trkpt lat="43.10503" lon="1.74922">
        <ele>270</ele>
        <time>2019-08-31T14:03:51Z</time>
      </trkpt>
      <trkpt lat="43.10516" lon="1.74937">
        <ele>271</ele>
        <time>2019-08-31T14:03:56Z</time>
      </trkpt>
      <trkpt lat="43.10522" lon="1.74942">
        <ele>271</ele>
        <time>2019-08-31T14:03:58Z</time>
      </trkpt>
      <trkpt lat="43.10534" lon="1.74948">
        <ele>272</ele>
        <time>2019-08-31T14:04:02Z</time>
      </trkpt>
      <trkpt lat="43.10538" lon="1.74949">
        <ele>272</ele>
        <time>2019-08-31T14:04:03Z</time>
      </trkpt>
      <trkpt lat="43.10548" lon="1.74951">
        <ele>273</ele>
        <time>2019-08-31T14:04:06Z</time>
      </trkpt>
      <trkpt lat="43.10555" lon="1.74952">
        <ele>274</ele>
        <time>2019-08-31T14:04:08Z</time>
      </trkpt>
      <trkpt lat="43.10565" lon="1.74954">
        <ele>274</ele>
        <time>2019-08-31T14:04:11Z</time>
      </trkpt>
      <trkpt lat="43.10575" lon="1.74957">
        <ele>275</ele>
        <time>2019-08-31T14:04:14Z</time>
      </trkpt>
      <trkpt lat="43.10582" lon="1.74958">
        <ele>275</ele>
        <time>2019-08-31T14:04:16Z</time>
      </trkpt>
      <trkpt lat="43.10594" lon="1.74961">
        <ele>277</ele>
        <time>2019-08-31T14:04:20Z</time>
      </trkpt>
      <trkpt lat="43.10596" lon="1.74962">
        <ele>277</ele>
        <time>2019-08-31T14:04:21Z</time>
      </trkpt>
      <trkpt lat="43.10601" lon="1.74963">
        <ele>278</ele>
        <time>2019-08-31T14:04:23Z</time>
      </trkpt>
      <trkpt lat="43.1061" lon="1.74964">
        <ele>279</ele>
        <time>2019-08-31T14:04:27Z</time>
      </trkpt>
      <trkpt lat="43.10625" lon="1.74969">
        <ele>280</ele>
        <time>2019-08-31T14:04:33Z</time>
      </trkpt>
      <trkpt lat="43.1064" lon="1.74977">
        <ele>281</ele>
        <time>2019-08-31T14:04:39Z</time>
      </trkpt>
      <trkpt lat="43.10642" lon="1.74978">
        <ele>282</ele>
        <time>2019-08-31T14:04:40Z</time>
      </trkpt>
      <trkpt lat="43.1065" lon="1.74982">
        <ele>283</ele>
        <time>2019-08-31T14:04:42Z</time>
      </trkpt>
      <trkpt lat="43.10667" lon="1.7499">
        <ele>284</ele>
        <time>2019-08-31T14:04:48Z</time>
      </trkpt>
      <trkpt lat="43.10672" lon="1.74993">
        <ele>284</ele>
        <time>2019-08-31T14:04:50Z</time>
      </trkpt>
      <trkpt lat="43.10678" lon="1.74997">
        <ele>285</ele>
        <time>2019-08-31T14:04:53Z</time>
      </trkpt>
      <trkpt lat="43.10686" lon="1.74999">
        <ele>286</ele>
        <time>2019-08-31T14:04:56Z</time>
      </trkpt>
      <trkpt lat="43.10702" lon="1.75007">
        <ele>286</ele>
        <time>2019-08-31T14:05:03Z</time>
      </trkpt>
      <trkpt lat="43.10722" lon="1.75018">
        <ele>286</ele>
        <time>2019-08-31T14:05:11Z</time>
      </trkpt>
      <trkpt lat="43.10729" lon="1.75024">
        <ele>286</ele>
        <time>2019-08-31T14:05:14Z</time>
      </trkpt>
      <trkpt lat="43.10736" lon="1.7503">
        <ele>286</ele>
        <time>2019-08-31T14:05:17Z</time>
      </trkpt>
      <trkpt lat="43.10744" lon="1.75039">
        <ele>285</ele>
        <time>2019-08-31T14:05:21Z</time>
      </trkpt>
      <trkpt lat="43.10747" lon="1.75044">
        <ele>285</ele>
        <time>2019-08-31T14:05:23Z</time>
      </trkpt>
      <trkpt lat="43.10752" lon="1.7506">
        <ele>285</ele>
        <time>2019-08-31T14:05:29Z</time>
      </trkpt>
      <trkpt lat="43.10753" lon="1.75083">
        <ele>285</ele>
        <time>2019-08-31T14:05:37Z</time>
      </trkpt>
      <trkpt lat="43.10753" lon="1.75095">
        <ele>286</ele>
        <time>2019-08-31T14:05:41Z</time>
      </trkpt>
      <trkpt lat="43.10753" lon="1.75104">
        <ele>287</ele>
        <time>2019-08-31T14:05:44Z</time>
      </trkpt>
      <trkpt lat="43.10753" lon="1.75115">
        <ele>289</ele>
        <time>2019-08-31T14:05:48Z</time>
      </trkpt>
      <trkpt lat="43.10753" lon="1.75123">
        <ele>290</ele>
        <time>2019-08-31T14:05:51Z</time>
      </trkpt>
      <trkpt lat="43.10753" lon="1.7513">
        <ele>290</ele>
        <time>2019-08-31T14:05:54Z</time>
      </trkpt>
      <trkpt lat="43.10753" lon="1.75132">
        <ele>291</ele>
        <time>2019-08-31T14:05:55Z</time>
      </trkpt>
      <trkpt lat="43.10753" lon="1.75139">
        <ele>292</ele>
        <time>2019-08-31T14:05:59Z</time>
      </trkpt>
      <trkpt lat="43.10752" lon="1.75141">
        <ele>293</ele>
        <time>2019-08-31T14:06:00Z</time>
      </trkpt>
      <trkpt lat="43.10749" lon="1.75143">
        <ele>293</ele>
        <time>2019-08-31T14:06:02Z</time>
      </trkpt>
      <trkpt lat="43.10748" lon="1.75144">
        <ele>293</ele>
        <time>2019-08-31T14:06:03Z</time>
      </trkpt>
      <trkpt lat="43.10745" lon="1.75146">
        <ele>295</ele>
        <time>2019-08-31T14:08:24Z</time>
      </trkpt>
      <trkpt lat="43.10737" lon="1.7515">
        <ele>296</ele>
        <time>2019-08-31T14:08:29Z</time>
      </trkpt>
      <trkpt lat="43.10736" lon="1.75151">
        <ele>296</ele>
        <time>2019-08-31T14:08:30Z</time>
      </trkpt>
      <trkpt lat="43.10732" lon="1.75152">
        <ele>297</ele>
        <time>2019-08-31T14:08:32Z</time>
      </trkpt>
      <trkpt lat="43.10728" lon="1.75152">
        <ele>298</ele>
        <time>2019-08-31T14:08:34Z</time>
      </trkpt>
      <trkpt lat="43.10724" lon="1.75151">
        <ele>299</ele>
        <time>2019-08-31T14:08:36Z</time>
      </trkpt>
      <trkpt lat="43.1072" lon="1.75149">
        <ele>300</ele>
        <time>2019-08-31T14:08:38Z</time>
      </trkpt>
      <trkpt lat="43.10714" lon="1.75146">
        <ele>302</ele>
        <time>2019-08-31T14:08:41Z</time>
      </trkpt>
      <trkpt lat="43.10711" lon="1.75145">
        <ele>302</ele>
        <time>2019-08-31T14:08:43Z</time>
      </trkpt>
      <trkpt lat="43.10705" lon="1.75148">
        <ele>303</ele>
        <time>2019-08-31T14:08:48Z</time>
      </trkpt>
      <trkpt lat="43.1071" lon="1.75156">
        <ele>303</ele>
        <time>2019-08-31T14:08:53Z</time>
      </trkpt>
      <trkpt lat="43.10717" lon="1.75162">
        <ele>302</ele>
        <time>2019-08-31T14:08:57Z</time>
      </trkpt>
      <trkpt lat="43.1072" lon="1.75163">
        <ele>302</ele>
        <time>2019-08-31T14:08:58Z</time>
      </trkpt>
      <trkpt lat="43.10724" lon="1.75165">
        <ele>301</ele>
        <time>2019-08-31T14:09:00Z</time>
      </trkpt>
      <trkpt lat="43.10727" lon="1.7517">
        <ele>301</ele>
        <time>2019-08-31T14:09:03Z</time>
      </trkpt>
      <trkpt lat="43.10725" lon="1.75173">
        <ele>301</ele>
        <time>2019-08-31T14:09:05Z</time>
      </trkpt>
      <trkpt lat="43.10724" lon="1.75175">
        <ele>300</ele>
        <time>2019-08-31T14:09:06Z</time>
      </trkpt>
      <trkpt lat="43.10718" lon="1.75185">
        <ele>299</ele>
        <time>2019-08-31T14:09:12Z</time>
      </trkpt>
      <trkpt lat="43.10712" lon="1.75196">
        <ele>300</ele>
        <time>2019-08-31T14:09:19Z</time>
      </trkpt>
      <trkpt lat="43.10705" lon="1.75206">
        <ele>300</ele>
        <time>2019-08-31T14:09:26Z</time>
      </trkpt>
      <trkpt lat="43.10699" lon="1.75217">
        <ele>301</ele>
        <time>2019-08-31T14:09:33Z</time>
      </trkpt>
      <trkpt lat="43.10693" lon="1.75227">
        <ele>301</ele>
        <time>2019-08-31T14:09:39Z</time>
      </trkpt>
      <trkpt lat="43.10691" lon="1.75233">
        <ele>302</ele>
        <time>2019-08-31T14:09:42Z</time>
      </trkpt>
      <trkpt lat="43.10689" lon="1.75236">
        <ele>303</ele>
        <time>2019-08-31T14:09:44Z</time>
      </trkpt>
      <trkpt lat="43.10685" lon="1.75244">
        <ele>304</ele>
        <time>2019-08-31T14:09:49Z</time>
      </trkpt>
      <trkpt lat="43.10682" lon="1.75258">
        <ele>305</ele>
        <time>2019-08-31T14:09:57Z</time>
      </trkpt>
      <trkpt lat="43.10683" lon="1.75261">
        <ele>305</ele>
        <time>2019-08-31T14:09:59Z</time>
      </trkpt>
      <trkpt lat="43.10686" lon="1.75265">
        <ele>306</ele>
        <time>2019-08-31T14:10:03Z</time>
      </trkpt>
      <trkpt lat="43.10687" lon="1.75267">
        <ele>306</ele>
        <time>2019-08-31T14:10:05Z</time>
      </trkpt>
      <trkpt lat="43.10754" lon="1.75294">
        <ele>329</ele>
        <time>2019-08-31T14:13:12Z</time>
      </trkpt>
      <trkpt lat="43.10756" lon="1.75296">
        <ele>328</ele>
        <time>2019-08-31T14:13:13Z</time>
      </trkpt>
      <trkpt lat="43.10755" lon="1.75306">
        <ele>328</ele>
        <time>2019-08-31T14:13:16Z</time>
      </trkpt>
      <trkpt lat="43.10754" lon="1.75309">
        <ele>328</ele>
        <time>2019-08-31T14:13:17Z</time>
      </trkpt>
      <trkpt lat="43.10748" lon="1.75324">
        <ele>328</ele>
        <time>2019-08-31T14:13:22Z</time>
      </trkpt>
      <trkpt lat="43.10743" lon="1.7534">
        <ele>330</ele>
        <time>2019-08-31T14:13:27Z</time>
      </trkpt>
      <trkpt lat="43.10741" lon="1.75345">
        <ele>331</ele>
        <time>2019-08-31T14:13:29Z</time>
      </trkpt>
      <trkpt lat="43.1074" lon="1.75349">
        <ele>331</ele>
        <time>2019-08-31T14:13:31Z</time>
      </trkpt>
      <trkpt lat="43.10738" lon="1.75354">
        <ele>332</ele>
        <time>2019-08-31T14:13:34Z</time>
      </trkpt>
      <trkpt lat="43.10738" lon="1.75356">
        <ele>333</ele>
        <time>2019-08-31T14:13:35Z</time>
      </trkpt>
      <trkpt lat="43.10737" lon="1.7536">
        <ele>333</ele>
        <time>2019-08-31T14:13:37Z</time>
      </trkpt>
      <trkpt lat="43.10735" lon="1.75369">
        <ele>334</ele>
        <time>2019-08-31T14:13:42Z</time>
      </trkpt>
      <trkpt lat="43.10734" lon="1.75371">
        <ele>334</ele>
        <time>2019-08-31T14:13:43Z</time>
      </trkpt>
      <trkpt lat="43.10731" lon="1.75383">
        <ele>335</ele>
        <time>2019-08-31T14:13:49Z</time>
      </trkpt>
      <trkpt lat="43.10726" lon="1.75398">
        <ele>335</ele>
        <time>2019-08-31T14:13:57Z</time>
      </trkpt>
      <trkpt lat="43.10721" lon="1.75415">
        <ele>336</ele>
        <time>2019-08-31T14:14:05Z</time>
      </trkpt>
      <trkpt lat="43.10719" lon="1.75424">
        <ele>337</ele>
        <time>2019-08-31T14:14:09Z</time>
      </trkpt>
      <trkpt lat="43.10714" lon="1.75436">
        <ele>337</ele>
        <time>2019-08-31T14:14:15Z</time>
      </trkpt>
      <trkpt lat="43.10712" lon="1.75446">
        <ele>338</ele>
        <time>2019-08-31T14:14:20Z</time>
      </trkpt>
      <trkpt lat="43.10708" lon="1.75455">
        <ele>339</ele>
        <time>2019-08-31T14:14:24Z</time>
      </trkpt>
      <trkpt lat="43.10707" lon="1.75457">
        <ele>339</ele>
        <time>2019-08-31T14:14:25Z</time>
      </trkpt>
      <trkpt lat="43.10707" lon="1.7546">
        <ele>339</ele>
        <time>2019-08-31T14:14:26Z</time>
      </trkpt>
      <trkpt lat="43.10703" lon="1.75472">
        <ele>339</ele>
        <time>2019-08-31T14:14:32Z</time>
      </trkpt>
      <trkpt lat="43.10701" lon="1.75478">
        <ele>340</ele>
        <time>2019-08-31T14:14:35Z</time>
      </trkpt>
      <trkpt lat="43.10698" lon="1.75491">
        <ele>341</ele>
        <time>2019-08-31T14:14:41Z</time>
      </trkpt>
      <trkpt lat="43.10696" lon="1.75495">
        <ele>341</ele>
        <time>2019-08-31T14:14:43Z</time>
      </trkpt>
      <trkpt lat="43.10693" lon="1.75507">
        <ele>342</ele>
        <time>2019-08-31T14:14:49Z</time>
      </trkpt>
      <trkpt lat="43.10689" lon="1.75521">
        <ele>342</ele>
        <time>2019-08-31T14:14:56Z</time>
      </trkpt>
      <trkpt lat="43.10687" lon="1.75529">
        <ele>343</ele>
        <time>2019-08-31T14:15:00Z</time>
      </trkpt>
      <trkpt lat="43.10685" lon="1.75534">
        <ele>343</ele>
        <time>2019-08-31T14:15:03Z</time>
      </trkpt>
      <trkpt lat="43.10682" lon="1.75546">
        <ele>344</ele>
        <time>2019-08-31T14:15:09Z</time>
      </trkpt>
      <trkpt lat="43.10681" lon="1.75547">
        <ele>344</ele>
        <time>2019-08-31T14:15:10Z</time>
      </trkpt>
      <trkpt lat="43.10678" lon="1.75557">
        <ele>345</ele>
        <time>2019-08-31T14:15:16Z</time>
      </trkpt>
      <trkpt lat="43.10676" lon="1.75562">
        <ele>345</ele>
        <time>2019-08-31T14:15:19Z</time>
      </trkpt>
      <trkpt lat="43.10676" lon="1.75565">
        <ele>346</ele>
        <time>2019-08-31T14:15:21Z</time>
      </trkpt>
      <trkpt lat="43.10675" lon="1.75567">
        <ele>346</ele>
        <time>2019-08-31T14:15:22Z</time>
      </trkpt>
      <trkpt lat="43.10675" lon="1.75569">
        <ele>347</ele>
        <time>2019-08-31T14:15:23Z</time>
      </trkpt>
      <trkpt lat="43.10672" lon="1.75576">
        <ele>347</ele>
        <time>2019-08-31T14:15:28Z</time>
      </trkpt>
      <trkpt lat="43.10671" lon="1.7558">
        <ele>348</ele>
        <time>2019-08-31T14:15:30Z</time>
      </trkpt>
      <trkpt lat="43.10669" lon="1.75588">
        <ele>349</ele>
        <time>2019-08-31T14:15:35Z</time>
      </trkpt>
      <trkpt lat="43.10664" lon="1.75599">
        <ele>349</ele>
        <time>2019-08-31T14:15:42Z</time>
      </trkpt>
      <trkpt lat="43.10662" lon="1.75606">
        <ele>350</ele>
        <time>2019-08-31T14:15:46Z</time>
      </trkpt>
      <trkpt lat="43.1066" lon="1.75614">
        <ele>350</ele>
        <time>2019-08-31T14:15:50Z</time>
      </trkpt>
      <trkpt lat="43.10654" lon="1.75627">
        <ele>351</ele>
        <time>2019-08-31T14:15:55Z</time>
      </trkpt>
      <trkpt lat="43.10653" lon="1.75629">
        <ele>352</ele>
        <time>2019-08-31T14:15:56Z</time>
      </trkpt>
      <trkpt lat="43.1065" lon="1.75635">
        <ele>352</ele>
        <time>2019-08-31T14:15:59Z</time>
      </trkpt>
      <trkpt lat="43.10645" lon="1.75646">
        <ele>353</ele>
        <time>2019-08-31T14:16:04Z</time>
      </trkpt>
      <trkpt lat="43.10643" lon="1.75652">
        <ele>354</ele>
        <time>2019-08-31T14:16:07Z</time>
      </trkpt>
      <trkpt lat="43.10639" lon="1.75658">
        <ele>354</ele>
        <time>2019-08-31T14:16:10Z</time>
      </trkpt>
      <trkpt lat="43.10637" lon="1.75661">
        <ele>355</ele>
        <time>2019-08-31T14:16:12Z</time>
      </trkpt>
      <trkpt lat="43.10633" lon="1.75671">
        <ele>355</ele>
        <time>2019-08-31T14:16:17Z</time>
      </trkpt>
      <trkpt lat="43.10621" lon="1.75697">
        <ele>355</ele>
        <time>2019-08-31T14:16:25Z</time>
      </trkpt>
      <trkpt lat="43.10608" lon="1.7573">
        <ele>354</ele>
        <time>2019-08-31T14:16:31Z</time>
      </trkpt>
      <trkpt lat="43.10605" lon="1.75737">
        <ele>353</ele>
        <time>2019-08-31T14:16:32Z</time>
      </trkpt>
      <trkpt lat="43.10601" lon="1.75751">
        <ele>352</ele>
        <time>2019-08-31T14:16:34Z</time>
      </trkpt>
      <trkpt lat="43.10599" lon="1.75758">
        <ele>352</ele>
        <time>2019-08-31T14:16:35Z</time>
      </trkpt>
      <trkpt lat="43.10597" lon="1.75771">
        <ele>351</ele>
        <time>2019-08-31T14:16:37Z</time>
      </trkpt>
      <trkpt lat="43.10596" lon="1.75777">
        <ele>351</ele>
        <time>2019-08-31T14:16:38Z</time>
      </trkpt>
      <trkpt lat="43.10599" lon="1.75793">
        <ele>350</ele>
        <time>2019-08-31T14:16:40Z</time>
      </trkpt>
      <trkpt lat="43.10603" lon="1.75801">
        <ele>349</ele>
        <time>2019-08-31T14:16:41Z</time>
      </trkpt>
      <trkpt lat="43.10605" lon="1.75809">
        <ele>349</ele>
        <time>2019-08-31T14:16:42Z</time>
      </trkpt>
      <trkpt lat="43.10608" lon="1.75823">
        <ele>347</ele>
        <time>2019-08-31T14:16:44Z</time>
      </trkpt>
      <trkpt lat="43.10609" lon="1.75829">
        <ele>347</ele>
        <time>2019-08-31T14:16:45Z</time>
      </trkpt>
      <trkpt lat="43.1061" lon="1.75841">
        <ele>346</ele>
        <time>2019-08-31T14:16:47Z</time>
      </trkpt>
      <trkpt lat="43.10611" lon="1.75851">
        <ele>346</ele>
        <time>2019-08-31T14:16:49Z</time>
      </trkpt>
      <trkpt lat="43.1062" lon="1.75879">
        <ele>345</ele>
        <time>2019-08-31T14:16:55Z</time>
      </trkpt>
      <trkpt lat="43.10622" lon="1.75885">
        <ele>345</ele>
        <time>2019-08-31T14:16:56Z</time>
      </trkpt>
      <trkpt lat="43.10625" lon="1.75901">
        <ele>345</ele>
        <time>2019-08-31T14:17:00Z</time>
      </trkpt>
      <trkpt lat="43.1063" lon="1.75921">
        <ele>345</ele>
        <time>2019-08-31T14:17:05Z</time>
      </trkpt>
      <trkpt lat="43.10629" lon="1.75925">
        <ele>345</ele>
        <time>2019-08-31T14:17:06Z</time>
      </trkpt>
      <trkpt lat="43.10622" lon="1.75955">
        <ele>344</ele>
        <time>2019-08-31T14:17:12Z</time>
      </trkpt>
      <trkpt lat="43.10621" lon="1.75962">
        <ele>344</ele>
        <time>2019-08-31T14:17:13Z</time>
      </trkpt>
      <trkpt lat="43.10615" lon="1.7599">
        <ele>343</ele>
        <time>2019-08-31T14:17:17Z</time>
      </trkpt>
      <trkpt lat="43.10613" lon="1.75997">
        <ele>343</ele>
        <time>2019-08-31T14:17:18Z</time>
      </trkpt>
      <trkpt lat="43.10604" lon="1.76027">
        <ele>342</ele>
        <time>2019-08-31T14:17:22Z</time>
      </trkpt>
      <trkpt lat="43.10601" lon="1.76034">
        <ele>342</ele>
        <time>2019-08-31T14:17:23Z</time>
      </trkpt>
      <trkpt lat="43.10596" lon="1.76041">
        <ele>341</ele>
        <time>2019-08-31T14:17:24Z</time>
      </trkpt>
      <trkpt lat="43.10585" lon="1.7605">
        <ele>340</ele>
        <time>2019-08-31T14:17:26Z</time>
      </trkpt>
      <trkpt lat="43.10565" lon="1.76066">
        <ele>339</ele>
        <time>2019-08-31T14:17:30Z</time>
      </trkpt>
      <trkpt lat="43.10537" lon="1.76077">
        <ele>339</ele>
        <time>2019-08-31T14:17:35Z</time>
      </trkpt>
      <trkpt lat="43.10532" lon="1.76079">
        <ele>338</ele>
        <time>2019-08-31T14:17:36Z</time>
      </trkpt>
      <trkpt lat="43.10509" lon="1.76086">
        <ele>338</ele>
        <time>2019-08-31T14:17:41Z</time>
      </trkpt>
      <trkpt lat="43.10503" lon="1.76089">
        <ele>337</ele>
        <time>2019-08-31T14:17:43Z</time>
      </trkpt>
      <trkpt lat="43.10493" lon="1.76096">
        <ele>337</ele>
        <time>2019-08-31T14:17:47Z</time>
      </trkpt>
      <trkpt lat="43.10485" lon="1.76108">
        <ele>336</ele>
        <time>2019-08-31T14:17:51Z</time>
      </trkpt>
      <trkpt lat="43.10479" lon="1.76119">
        <ele>335</ele>
        <time>2019-08-31T14:17:54Z</time>
      </trkpt>
      <trkpt lat="43.10474" lon="1.7613">
        <ele>335</ele>
        <time>2019-08-31T14:17:56Z</time>
      </trkpt>
      <trkpt lat="43.10467" lon="1.76142">
        <ele>334</ele>
        <time>2019-08-31T14:17:58Z</time>
      </trkpt>
      <trkpt lat="43.10464" lon="1.7615">
        <ele>334</ele>
        <time>2019-08-31T14:17:59Z</time>
      </trkpt>
      <trkpt lat="43.10459" lon="1.76159">
        <ele>333</ele>
        <time>2019-08-31T14:18:00Z</time>
      </trkpt>
      <trkpt lat="43.10456" lon="1.7617">
        <ele>332</ele>
        <time>2019-08-31T14:18:01Z</time>
      </trkpt>
      <trkpt lat="43.1045" lon="1.76193">
        <ele>331</ele>
        <time>2019-08-31T14:18:03Z</time>
      </trkpt>
      <trkpt lat="43.10448" lon="1.76205">
        <ele>330</ele>
        <time>2019-08-31T14:18:04Z</time>
      </trkpt>
      <trkpt lat="43.10447" lon="1.76218">
        <ele>329</ele>
        <time>2019-08-31T14:18:05Z</time>
      </trkpt>
      <trkpt lat="43.10445" lon="1.76231">
        <ele>328</ele>
        <time>2019-08-31T14:18:06Z</time>
      </trkpt>
      <trkpt lat="43.10443" lon="1.76242">
        <ele>328</ele>
        <time>2019-08-31T14:18:07Z</time>
      </trkpt>
      <trkpt lat="43.10439" lon="1.76253">
        <ele>327</ele>
        <time>2019-08-31T14:18:08Z</time>
      </trkpt>
      <trkpt lat="43.10436" lon="1.76263">
        <ele>326</ele>
        <time>2019-08-31T14:18:09Z</time>
      </trkpt>
      <trkpt lat="43.10432" lon="1.76272">
        <ele>326</ele>
        <time>2019-08-31T14:18:10Z</time>
      </trkpt>
      <trkpt lat="43.10428" lon="1.7628">
        <ele>325</ele>
        <time>2019-08-31T14:18:11Z</time>
      </trkpt>
      <trkpt lat="43.10423" lon="1.76284">
        <ele>324</ele>
        <time>2019-08-31T14:18:12Z</time>
      </trkpt>
      <trkpt lat="43.10419" lon="1.76284">
        <ele>324</ele>
        <time>2019-08-31T14:18:13Z</time>
      </trkpt>
      <trkpt lat="43.10416" lon="1.76281">
        <ele>322</ele>
        <time>2019-08-31T14:18:14Z</time>
      </trkpt>
      <trkpt lat="43.10413" lon="1.76276">
        <ele>321</ele>
        <time>2019-08-31T14:18:15Z</time>
      </trkpt>
      <trkpt lat="43.1041" lon="1.76269">
        <ele>320</ele>
        <time>2019-08-31T14:18:16Z</time>
      </trkpt>
      <trkpt lat="43.10407" lon="1.7626">
        <ele>319</ele>
        <time>2019-08-31T14:18:17Z</time>
      </trkpt>
      <trkpt lat="43.10404" lon="1.76251">
        <ele>318</ele>
        <time>2019-08-31T14:18:18Z</time>
      </trkpt>
      <trkpt lat="43.10402" lon="1.76241">
        <ele>317</ele>
        <time>2019-08-31T14:18:19Z</time>
      </trkpt>
      <trkpt lat="43.10398" lon="1.76223">
        <ele>315</ele>
        <time>2019-08-31T14:18:21Z</time>
      </trkpt>
      <trkpt lat="43.10391" lon="1.76205">
        <ele>313</ele>
        <time>2019-08-31T14:18:23Z</time>
      </trkpt>
      <trkpt lat="43.10387" lon="1.76196">
        <ele>313</ele>
        <time>2019-08-31T14:18:24Z</time>
      </trkpt>
      <trkpt lat="43.10382" lon="1.76188">
        <ele>312</ele>
        <time>2019-08-31T14:18:25Z</time>
      </trkpt>
      <trkpt lat="43.10372" lon="1.76173">
        <ele>310</ele>
        <time>2019-08-31T14:18:27Z</time>
      </trkpt>
      <trkpt lat="43.10366" lon="1.76168">
        <ele>309</ele>
        <time>2019-08-31T14:18:28Z</time>
      </trkpt>
      <trkpt lat="43.1036" lon="1.76162">
        <ele>308</ele>
        <time>2019-08-31T14:18:29Z</time>
      </trkpt>
      <trkpt lat="43.10353" lon="1.76156">
        <ele>307</ele>
        <time>2019-08-31T14:18:30Z</time>
      </trkpt>
      <trkpt lat="43.10345" lon="1.76142">
        <ele>305</ele>
        <time>2019-08-31T14:18:32Z</time>
      </trkpt>
      <trkpt lat="43.10345" lon="1.76131">
        <ele>303</ele>
        <time>2019-08-31T14:18:34Z</time>
      </trkpt>
      <trkpt lat="43.10346" lon="1.76119">
        <ele>301</ele>
        <time>2019-08-31T14:18:36Z</time>
      </trkpt>
      <trkpt lat="43.10345" lon="1.76112">
        <ele>300</ele>
        <time>2019-08-31T14:18:37Z</time>
      </trkpt>
      <trkpt lat="43.10345" lon="1.76105">
        <ele>299</ele>
        <time>2019-08-31T14:18:38Z</time>
      </trkpt>
      <trkpt lat="43.10345" lon="1.76098">
        <ele>298</ele>
        <time>2019-08-31T14:18:39Z</time>
      </trkpt>
      <trkpt lat="43.10348" lon="1.76084">
        <ele>296</ele>
        <time>2019-08-31T14:18:41Z</time>
      </trkpt>
      <trkpt lat="43.10349" lon="1.76076">
        <ele>296</ele>
        <time>2019-08-31T14:18:42Z</time>
      </trkpt>
      <trkpt lat="43.1035" lon="1.76067">
        <ele>295</ele>
        <time>2019-08-31T14:18:43Z</time>
      </trkpt>
      <trkpt lat="43.10353" lon="1.76049">
        <ele>293</ele>
        <time>2019-08-31T14:18:45Z</time>
      </trkpt>
      <trkpt lat="43.10356" lon="1.7603">
        <ele>292</ele>
        <time>2019-08-31T14:18:47Z</time>
      </trkpt>
      <trkpt lat="43.10358" lon="1.76014">
        <ele>291</ele>
        <time>2019-08-31T14:18:49Z</time>
      </trkpt>
      <trkpt lat="43.10361" lon="1.7599">
        <ele>290</ele>
        <time>2019-08-31T14:18:52Z</time>
      </trkpt>
      <trkpt lat="43.10362" lon="1.75983">
        <ele>290</ele>
        <time>2019-08-31T14:18:53Z</time>
      </trkpt>
      <trkpt lat="43.10364" lon="1.75955">
        <ele>289</ele>
        <time>2019-08-31T14:18:57Z</time>
      </trkpt>
      <trkpt lat="43.10365" lon="1.75931">
        <ele>290</ele>
        <time>2019-08-31T14:19:02Z</time>
      </trkpt>
      <trkpt lat="43.10362" lon="1.75915">
        <ele>291</ele>
        <time>2019-08-31T14:19:05Z</time>
      </trkpt>
      <trkpt lat="43.1036" lon="1.75905">
        <ele>292</ele>
        <time>2019-08-31T14:19:07Z</time>
      </trkpt>
      <trkpt lat="43.10359" lon="1.759">
        <ele>293</ele>
        <time>2019-08-31T14:19:08Z</time>
      </trkpt>
      <trkpt lat="43.10355" lon="1.75887">
        <ele>294</ele>
        <time>2019-08-31T14:19:11Z</time>
      </trkpt>
      <trkpt lat="43.10353" lon="1.75877">
        <ele>295</ele>
        <time>2019-08-31T14:19:13Z</time>
      </trkpt>
      <trkpt lat="43.10351" lon="1.75873">
        <ele>295</ele>
        <time>2019-08-31T14:19:14Z</time>
      </trkpt>
      <trkpt lat="43.10345" lon="1.75859">
        <ele>296</ele>
        <time>2019-08-31T14:19:17Z</time>
      </trkpt>
      <trkpt lat="43.10342" lon="1.75854">
        <ele>296</ele>
        <time>2019-08-31T14:19:18Z</time>
      </trkpt>
      <trkpt lat="43.10336" lon="1.75846">
        <ele>297</ele>
        <time>2019-08-31T14:19:20Z</time>
      </trkpt>
      <trkpt lat="43.10325" lon="1.75838">
        <ele>298</ele>
        <time>2019-08-31T14:19:23Z</time>
      </trkpt>
      <trkpt lat="43.10317" lon="1.75834">
        <ele>299</ele>
        <time>2019-08-31T14:19:25Z</time>
      </trkpt>
      <trkpt lat="43.10312" lon="1.75833">
        <ele>299</ele>
        <time>2019-08-31T14:19:26Z</time>
      </trkpt>
      <trkpt lat="43.10299" lon="1.75832">
        <ele>299</ele>
        <time>2019-08-31T14:19:29Z</time>
      </trkpt>
      <trkpt lat="43.10266" lon="1.75823">
        <ele>298</ele>
        <time>2019-08-31T14:19:35Z</time>
      </trkpt>
      <trkpt lat="43.10246" lon="1.75814">
        <ele>298</ele>
        <time>2019-08-31T14:19:38Z</time>
      </trkpt>
      <trkpt lat="43.10238" lon="1.75814">
        <ele>297</ele>
        <time>2019-08-31T14:19:39Z</time>
      </trkpt>
      <trkpt lat="43.10229" lon="1.75815">
        <ele>296</ele>
        <time>2019-08-31T14:19:40Z</time>
      </trkpt>
      <trkpt lat="43.10212" lon="1.75813">
        <ele>295</ele>
        <time>2019-08-31T14:19:42Z</time>
      </trkpt>
      <trkpt lat="43.102" lon="1.75803">
        <ele>294</ele>
        <time>2019-08-31T14:19:44Z</time>
      </trkpt>
      <trkpt lat="43.10193" lon="1.75797">
        <ele>293</ele>
        <time>2019-08-31T14:19:45Z</time>
      </trkpt>
      <trkpt lat="43.10186" lon="1.7579">
        <ele>292</ele>
        <time>2019-08-31T14:19:46Z</time>
      </trkpt>
      <trkpt lat="43.10178" lon="1.75784">
        <ele>292</ele>
        <time>2019-08-31T14:19:47Z</time>
      </trkpt>
      <trkpt lat="43.10171" lon="1.75781">
        <ele>291</ele>
        <time>2019-08-31T14:19:48Z</time>
      </trkpt>
      <trkpt lat="43.10156" lon="1.75784">
        <ele>290</ele>
        <time>2019-08-31T14:19:50Z</time>
      </trkpt>
      <trkpt lat="43.10149" lon="1.75787">
        <ele>289</ele>
        <time>2019-08-31T14:19:51Z</time>
      </trkpt>
      <trkpt lat="43.10135" lon="1.75792">
        <ele>288</ele>
        <time>2019-08-31T14:19:53Z</time>
      </trkpt>
      <trkpt lat="43.10112" lon="1.75801">
        <ele>287</ele>
        <time>2019-08-31T14:19:56Z</time>
      </trkpt>
      <trkpt lat="43.10105" lon="1.75804">
        <ele>286</ele>
        <time>2019-08-31T14:19:57Z</time>
      </trkpt>
      <trkpt lat="43.10099" lon="1.75809">
        <ele>286</ele>
        <time>2019-08-31T14:19:58Z</time>
      </trkpt>
      <trkpt lat="43.10095" lon="1.75814">
        <ele>285</ele>
        <time>2019-08-31T14:19:59Z</time>
      </trkpt>
      <trkpt lat="43.10092" lon="1.7582">
        <ele>285</ele>
        <time>2019-08-31T14:20:00Z</time>
      </trkpt>
      <trkpt lat="43.10085" lon="1.75829">
        <ele>283</ele>
        <time>2019-08-31T14:20:02Z</time>
      </trkpt>
      <trkpt lat="43.10077" lon="1.75836">
        <ele>282</ele>
        <time>2019-08-31T14:20:04Z</time>
      </trkpt>
      <trkpt lat="43.10073" lon="1.75838">
        <ele>282</ele>
        <time>2019-08-31T14:20:05Z</time>
      </trkpt>
      <trkpt lat="43.10069" lon="1.7584">
        <ele>282</ele>
        <time>2019-08-31T14:20:06Z</time>
      </trkpt>
      <trkpt lat="43.10061" lon="1.75845">
        <ele>281</ele>
        <time>2019-08-31T14:20:08Z</time>
      </trkpt>
      <trkpt lat="43.10057" lon="1.75848">
        <ele>281</ele>
        <time>2019-08-31T14:20:09Z</time>
      </trkpt>
      <trkpt lat="43.10047" lon="1.75858">
        <ele>280</ele>
        <time>2019-08-31T14:20:11Z</time>
      </trkpt>
      <trkpt lat="43.10041" lon="1.75862">
        <ele>279</ele>
        <time>2019-08-31T14:20:12Z</time>
      </trkpt>
      <trkpt lat="43.10035" lon="1.75866">
        <ele>278</ele>
        <time>2019-08-31T14:20:13Z</time>
      </trkpt>
      <trkpt lat="43.10023" lon="1.75874">
        <ele>278</ele>
        <time>2019-08-31T14:20:15Z</time>
      </trkpt>
      <trkpt lat="43.10018" lon="1.75881">
        <ele>277</ele>
        <time>2019-08-31T14:20:16Z</time>
      </trkpt>
      <trkpt lat="43.09999" lon="1.75908">
        <ele>276</ele>
        <time>2019-08-31T14:20:20Z</time>
      </trkpt>
      <trkpt lat="43.09995" lon="1.75914">
        <ele>276</ele>
        <time>2019-08-31T14:20:21Z</time>
      </trkpt>
      <trkpt lat="43.09983" lon="1.75929">
        <ele>275</ele>
        <time>2019-08-31T14:20:25Z</time>
      </trkpt>
      <trkpt lat="43.09976" lon="1.75936">
        <ele>278</ele>
        <time>2019-08-31T14:20:29Z</time>
      </trkpt>
      <trkpt lat="43.09973" lon="1.75939">
        <ele>279</ele>
        <time>2019-08-31T14:20:31Z</time>
      </trkpt>
      <trkpt lat="43.09968" lon="1.75944">
        <ele>280</ele>
        <time>2019-08-31T14:20:34Z</time>
      </trkpt>
      <trkpt lat="43.09966" lon="1.75947">
        <ele>282</ele>
        <time>2019-08-31T14:20:36Z</time>
      </trkpt>
      <trkpt lat="43.09962" lon="1.75951">
        <ele>283</ele>
        <time>2019-08-31T14:20:38Z</time>
      </trkpt>
      <trkpt lat="43.0996" lon="1.75954">
        <ele>284</ele>
        <time>2019-08-31T14:20:40Z</time>
      </trkpt>
      <trkpt lat="43.09957" lon="1.75958">
        <ele>285</ele>
        <time>2019-08-31T14:20:42Z</time>
      </trkpt>
      <trkpt lat="43.09952" lon="1.75963">
        <ele>286</ele>
        <time>2019-08-31T14:20:45Z</time>
      </trkpt>
      <trkpt lat="43.09949" lon="1.75967">
        <ele>287</ele>
        <time>2019-08-31T14:20:47Z</time>
      </trkpt>
      <trkpt lat="43.09948" lon="1.75969">
        <ele>287</ele>
        <time>2019-08-31T14:20:48Z</time>
      </trkpt>
      <trkpt lat="43.09943" lon="1.75974">
        <ele>288</ele>
        <time>2019-08-31T14:20:51Z</time>
      </trkpt>
      <trkpt lat="43.09939" lon="1.75978">
        <ele>289</ele>
        <time>2019-08-31T14:20:54Z</time>
      </trkpt>
      <trkpt lat="43.09931" lon="1.75988">
        <ele>291</ele>
        <time>2019-08-31T14:20:59Z</time>
      </trkpt>
      <trkpt lat="43.09929" lon="1.7599">
        <ele>291</ele>
        <time>2019-08-31T14:21:00Z</time>
      </trkpt>
      <trkpt lat="43.09926" lon="1.75993">
        <ele>292</ele>
        <time>2019-08-31T14:21:02Z</time>
      </trkpt>
      <trkpt lat="43.09916" lon="1.76006">
        <ele>293</ele>
        <time>2019-08-31T14:21:09Z</time>
      </trkpt>
      <trkpt lat="43.09911" lon="1.76013">
        <ele>294</ele>
        <time>2019-08-31T14:21:13Z</time>
      </trkpt>
      <trkpt lat="43.09907" lon="1.7602">
        <ele>295</ele>
        <time>2019-08-31T14:21:16Z</time>
      </trkpt>
      <trkpt lat="43.09904" lon="1.76024">
        <ele>295</ele>
        <time>2019-08-31T14:21:18Z</time>
      </trkpt>
      <trkpt lat="43.09898" lon="1.76035">
        <ele>296</ele>
        <time>2019-08-31T14:21:23Z</time>
      </trkpt>
      <trkpt lat="43.09894" lon="1.76041">
        <ele>298</ele>
        <time>2019-08-31T14:21:26Z</time>
      </trkpt>
      <trkpt lat="43.09891" lon="1.76047">
        <ele>299</ele>
        <time>2019-08-31T14:21:29Z</time>
      </trkpt>
      <trkpt lat="43.09888" lon="1.76052">
        <ele>299</ele>
        <time>2019-08-31T14:21:31Z</time>
      </trkpt>
      <trkpt lat="43.09884" lon="1.76057">
        <ele>300</ele>
        <time>2019-08-31T14:21:33Z</time>
      </trkpt>
      <trkpt lat="43.0988" lon="1.76062">
        <ele>301</ele>
        <time>2019-08-31T14:21:36Z</time>
      </trkpt>
      <trkpt lat="43.09872" lon="1.76072">
        <ele>304</ele>
        <time>2019-08-31T14:22:27Z</time>
      </trkpt>
      <trkpt lat="43.09871" lon="1.76073">
        <ele>304</ele>
        <time>2019-08-31T14:22:28Z</time>
      </trkpt>
      <trkpt lat="43.09869" lon="1.76075">
        <ele>305</ele>
        <time>2019-08-31T14:22:30Z</time>
      </trkpt>
      <trkpt lat="43.09865" lon="1.76078">
        <ele>307</ele>
        <time>2019-08-31T14:22:33Z</time>
      </trkpt>
      <trkpt lat="43.09863" lon="1.7608">
        <ele>308</ele>
        <time>2019-08-31T14:22:35Z</time>
      </trkpt>
      <trkpt lat="43.09861" lon="1.76081">
        <ele>308</ele>
        <time>2019-08-31T14:22:36Z</time>
      </trkpt>
      <trkpt lat="43.09856" lon="1.76085">
        <ele>309</ele>
        <time>2019-08-31T14:22:41Z</time>
      </trkpt>
      <trkpt lat="43.09855" lon="1.76086">
        <ele>309</ele>
        <time>2019-08-31T14:22:42Z</time>
      </trkpt>
      <trkpt lat="43.09852" lon="1.76087">
        <ele>309</ele>
        <time>2019-08-31T14:22:44Z</time>
      </trkpt>
      <trkpt lat="43.09846" lon="1.76092">
        <ele>309</ele>
        <time>2019-08-31T14:22:49Z</time>
      </trkpt>
      <trkpt lat="43.09837" lon="1.76098">
        <ele>310</ele>
        <time>2019-08-31T14:22:56Z</time>
      </trkpt>
      <trkpt lat="43.09828" lon="1.76106">
        <ele>310</ele>
        <time>2019-08-31T14:23:03Z</time>
      </trkpt>
      <trkpt lat="43.09826" lon="1.76109">
        <ele>311</ele>
        <time>2019-08-31T14:23:05Z</time>
      </trkpt>
      <trkpt lat="43.0982" lon="1.76119">
        <ele>310</ele>
        <time>2019-08-31T14:23:12Z</time>
      </trkpt>
      <trkpt lat="43.09817" lon="1.76129">
        <ele>311</ele>
        <time>2019-08-31T14:23:17Z</time>
      </trkpt>
      <trkpt lat="43.09817" lon="1.76146">
        <ele>311</ele>
        <time>2019-08-31T14:23:25Z</time>
      </trkpt>
      <trkpt lat="43.09823" lon="1.76162">
        <ele>311</ele>
        <time>2019-08-31T14:23:33Z</time>
      </trkpt>
      <trkpt lat="43.09831" lon="1.76175">
        <ele>311</ele>
        <time>2019-08-31T14:23:40Z</time>
      </trkpt>
      <trkpt lat="43.09832" lon="1.76177">
        <ele>311</ele>
        <time>2019-08-31T14:23:41Z</time>
      </trkpt>
      <trkpt lat="43.09834" lon="1.76185">
        <ele>312</ele>
        <time>2019-08-31T14:24:35Z</time>
      </trkpt>
      <trkpt lat="43.09841" lon="1.76195">
        <ele>311</ele>
        <time>2019-08-31T14:24:40Z</time>
      </trkpt>
      <trkpt lat="43.09854" lon="1.7622">
        <ele>310</ele>
        <time>2019-08-31T14:24:46Z</time>
      </trkpt>
      <trkpt lat="43.09857" lon="1.76225">
        <ele>310</ele>
        <time>2019-08-31T14:24:47Z</time>
      </trkpt>
      <trkpt lat="43.09875" lon="1.76252">
        <ele>310</ele>
        <time>2019-08-31T14:24:52Z</time>
      </trkpt>
      <trkpt lat="43.09883" lon="1.76262">
        <ele>309</ele>
        <time>2019-08-31T14:24:54Z</time>
      </trkpt>
      <trkpt lat="43.09887" lon="1.76267">
        <ele>309</ele>
        <time>2019-08-31T14:24:55Z</time>
      </trkpt>
      <trkpt lat="43.09899" lon="1.76279">
        <ele>309</ele>
        <time>2019-08-31T14:24:58Z</time>
      </trkpt>
      <trkpt lat="43.09925" lon="1.76312">
        <ele>308</ele>
        <time>2019-08-31T14:25:05Z</time>
      </trkpt>
      <trkpt lat="43.09944" lon="1.76342">
        <ele>308</ele>
        <time>2019-08-31T14:25:11Z</time>
      </trkpt>
      <trkpt lat="43.09949" lon="1.76352">
        <ele>308</ele>
        <time>2019-08-31T14:25:13Z</time>
      </trkpt>
      <trkpt lat="43.09966" lon="1.7638">
        <ele>309</ele>
        <time>2019-08-31T14:25:20Z</time>
      </trkpt>
      <trkpt lat="43.09969" lon="1.76388">
        <ele>309</ele>
        <time>2019-08-31T14:25:22Z</time>
      </trkpt>
      <trkpt lat="43.0997" lon="1.76399">
        <ele>309</ele>
        <time>2019-08-31T14:25:25Z</time>
      </trkpt>
      <trkpt lat="43.09971" lon="1.7642">
        <ele>309</ele>
        <time>2019-08-31T14:25:30Z</time>
      </trkpt>
      <trkpt lat="43.09977" lon="1.76437">
        <ele>309</ele>
        <time>2019-08-31T14:25:35Z</time>
      </trkpt>
      <trkpt lat="43.09983" lon="1.76457">
        <ele>309</ele>
        <time>2019-08-31T14:25:42Z</time>
      </trkpt>
      <trkpt lat="43.0999" lon="1.76476">
        <ele>310</ele>
        <time>2019-08-31T14:25:48Z</time>
      </trkpt>
      <trkpt lat="43.09996" lon="1.76493">
        <ele>310</ele>
        <time>2019-08-31T14:25:55Z</time>
      </trkpt>
      <trkpt lat="43.09998" lon="1.765">
        <ele>310</ele>
        <time>2019-08-31T14:25:58Z</time>
      </trkpt>
      <trkpt lat="43.09999" lon="1.76502">
        <ele>310</ele>
        <time>2019-08-31T14:25:59Z</time>
      </trkpt>
      <trkpt lat="43.10001" lon="1.76507">
        <ele>310</ele>
        <time>2019-08-31T14:26:01Z</time>
      </trkpt>
      <trkpt lat="43.10003" lon="1.76513">
        <ele>309</ele>
        <time>2019-08-31T14:26:04Z</time>
      </trkpt>
      <trkpt lat="43.10005" lon="1.76519">
        <ele>310</ele>
        <time>2019-08-31T14:26:07Z</time>
      </trkpt>
      <trkpt lat="43.10008" lon="1.76526">
        <ele>311</ele>
        <time>2019-08-31T14:26:12Z</time>
      </trkpt>
      <trkpt lat="43.10017" lon="1.76537">
        <ele>316</ele>
        <time>2019-08-31T14:36:39Z</time>
      </trkpt>
      <trkpt lat="43.10024" lon="1.76545">
        <ele>316</ele>
        <time>2019-08-31T14:36:46Z</time>
      </trkpt>
      <trkpt lat="43.10034" lon="1.76553">
        <ele>315</ele>
        <time>2019-08-31T14:36:53Z</time>
      </trkpt>
      <trkpt lat="43.10043" lon="1.76562">
        <ele>315</ele>
        <time>2019-08-31T14:36:59Z</time>
      </trkpt>
      <trkpt lat="43.10051" lon="1.7657">
        <ele>317</ele>
        <time>2019-08-31T14:37:04Z</time>
      </trkpt>
      <trkpt lat="43.10057" lon="1.76575">
        <ele>318</ele>
        <time>2019-08-31T14:37:08Z</time>
      </trkpt>
      <trkpt lat="43.10079" lon="1.76591">
        <ele>323</ele>
        <time>2019-08-31T14:37:24Z</time>
      </trkpt>
      <trkpt lat="43.1008" lon="1.76591">
        <ele>323</ele>
        <time>2019-08-31T14:37:25Z</time>
      </trkpt>
      <trkpt lat="43.10089" lon="1.76594">
        <ele>323</ele>
        <time>2019-08-31T14:37:32Z</time>
      </trkpt>
      <trkpt lat="43.10124" lon="1.766">
        <ele>325</ele>
        <time>2019-08-31T14:38:00Z</time>
      </trkpt>
      <trkpt lat="43.10125" lon="1.76601">
        <ele>325</ele>
        <time>2019-08-31T14:38:01Z</time>
      </trkpt>
      <trkpt lat="43.10134" lon="1.76601">
        <ele>326</ele>
        <time>2019-08-31T14:38:07Z</time>
      </trkpt>
      <trkpt lat="43.10136" lon="1.76602">
        <ele>326</ele>
        <time>2019-08-31T14:38:09Z</time>
      </trkpt>
      <trkpt lat="43.10142" lon="1.76605">
        <ele>327</ele>
        <time>2019-08-31T14:38:14Z</time>
      </trkpt>
      <trkpt lat="43.10151" lon="1.76606">
        <ele>327</ele>
        <time>2019-08-31T14:38:20Z</time>
      </trkpt>
      <trkpt lat="43.10152" lon="1.76607">
        <ele>327</ele>
        <time>2019-08-31T14:38:21Z</time>
      </trkpt>
      <trkpt lat="43.10165" lon="1.76609">
        <ele>328</ele>
        <time>2019-08-31T14:38:30Z</time>
      </trkpt>
      <trkpt lat="43.10168" lon="1.76611">
        <ele>329</ele>
        <time>2019-08-31T14:38:32Z</time>
      </trkpt>
      <trkpt lat="43.10174" lon="1.76614">
        <ele>329</ele>
        <time>2019-08-31T14:38:37Z</time>
      </trkpt>
      <trkpt lat="43.10177" lon="1.76614">
        <ele>329</ele>
        <time>2019-08-31T14:38:39Z</time>
      </trkpt>
      <trkpt lat="43.10178" lon="1.76615">
        <ele>330</ele>
        <time>2019-08-31T14:38:40Z</time>
      </trkpt>
      <trkpt lat="43.10183" lon="1.76616">
        <ele>330</ele>
        <time>2019-08-31T14:38:43Z</time>
      </trkpt>
      <trkpt lat="43.10193" lon="1.76617">
        <ele>329</ele>
        <time>2019-08-31T14:38:50Z</time>
      </trkpt>
      <trkpt lat="43.10199" lon="1.76618">
        <ele>329</ele>
        <time>2019-08-31T14:38:54Z</time>
      </trkpt>
      <trkpt lat="43.10204" lon="1.76619">
        <ele>329</ele>
        <time>2019-08-31T14:38:57Z</time>
      </trkpt>
      <trkpt lat="43.10207" lon="1.7662">
        <ele>330</ele>
        <time>2019-08-31T14:39:00Z</time>
      </trkpt>
      <trkpt lat="43.10213" lon="1.76619">
        <ele>331</ele>
        <time>2019-08-31T14:39:04Z</time>
      </trkpt>
      <trkpt lat="43.10221" lon="1.76619">
        <ele>332</ele>
        <time>2019-08-31T14:39:09Z</time>
      </trkpt>
      <trkpt lat="43.10224" lon="1.76619">
        <ele>333</ele>
        <time>2019-08-31T14:39:11Z</time>
      </trkpt>
      <trkpt lat="43.10227" lon="1.76619">
        <ele>334</ele>
        <time>2019-08-31T14:39:14Z</time>
      </trkpt>
      <trkpt lat="43.10232" lon="1.76619">
        <ele>335</ele>
        <time>2019-08-31T14:39:17Z</time>
      </trkpt>
      <trkpt lat="43.10233" lon="1.76619">
        <ele>336</ele>
        <time>2019-08-31T14:39:18Z</time>
      </trkpt>
      <trkpt lat="43.10235" lon="1.76619">
        <ele>336</ele>
        <time>2019-08-31T14:39:19Z</time>
      </trkpt>
      <trkpt lat="43.10241" lon="1.7662">
        <ele>337</ele>
        <time>2019-08-31T14:39:22Z</time>
      </trkpt>
      <trkpt lat="43.10245" lon="1.7662">
        <ele>338</ele>
        <time>2019-08-31T14:39:25Z</time>
      </trkpt>
      <trkpt lat="43.10258" lon="1.7662">
        <ele>338</ele>
        <time>2019-08-31T14:39:33Z</time>
      </trkpt>
      <trkpt lat="43.10259" lon="1.7662">
        <ele>339</ele>
        <time>2019-08-31T14:39:34Z</time>
      </trkpt>
      <trkpt lat="43.10267" lon="1.76621">
        <ele>340</ele>
        <time>2019-08-31T14:39:39Z</time>
      </trkpt>
      <trkpt lat="43.10273" lon="1.76622">
        <ele>341</ele>
        <time>2019-08-31T14:39:43Z</time>
      </trkpt>
      <trkpt lat="43.10277" lon="1.76625">
        <ele>341</ele>
        <time>2019-08-31T14:39:46Z</time>
      </trkpt>
      <trkpt lat="43.10282" lon="1.76629">
        <ele>342</ele>
        <time>2019-08-31T14:39:50Z</time>
      </trkpt>
      <trkpt lat="43.10286" lon="1.76635">
        <ele>343</ele>
        <time>2019-08-31T14:39:55Z</time>
      </trkpt>
      <trkpt lat="43.10286" lon="1.76637">
        <ele>343</ele>
        <time>2019-08-31T14:39:56Z</time>
      </trkpt>
      <trkpt lat="43.10288" lon="1.76642">
        <ele>343</ele>
        <time>2019-08-31T14:39:59Z</time>
      </trkpt>
      <trkpt lat="43.1029" lon="1.76647">
        <ele>344</ele>
        <time>2019-08-31T14:40:02Z</time>
      </trkpt>
      <trkpt lat="43.10291" lon="1.76649">
        <ele>344</ele>
        <time>2019-08-31T14:40:03Z</time>
      </trkpt>
      <trkpt lat="43.10292" lon="1.76655">
        <ele>345</ele>
        <time>2019-08-31T14:40:06Z</time>
      </trkpt>
      <trkpt lat="43.10293" lon="1.76662">
        <ele>346</ele>
        <time>2019-08-31T14:40:09Z</time>
      </trkpt>
      <trkpt lat="43.10292" lon="1.76667">
        <ele>347</ele>
        <time>2019-08-31T14:40:11Z</time>
      </trkpt>
      <trkpt lat="43.10291" lon="1.76673">
        <ele>347</ele>
        <time>2019-08-31T14:40:14Z</time>
      </trkpt>
      <trkpt lat="43.10292" lon="1.76677">
        <ele>348</ele>
        <time>2019-08-31T14:40:16Z</time>
      </trkpt>
      <trkpt lat="43.10295" lon="1.76679">
        <ele>350</ele>
        <time>2019-08-31T14:44:01Z</time>
      </trkpt>
      <trkpt lat="43.10297" lon="1.76679">
        <ele>350</ele>
        <time>2019-08-31T14:44:02Z</time>
      </trkpt>
      <trkpt lat="43.10302" lon="1.76676">
        <ele>352</ele>
        <time>2019-08-31T14:44:05Z</time>
      </trkpt>
      <trkpt lat="43.10306" lon="1.76671">
        <ele>353</ele>
        <time>2019-08-31T14:44:07Z</time>
      </trkpt>
      <trkpt lat="43.10307" lon="1.76669">
        <ele>354</ele>
        <time>2019-08-31T14:44:08Z</time>
      </trkpt>
      <trkpt lat="43.10309" lon="1.76664">
        <ele>356</ele>
        <time>2019-08-31T14:44:10Z</time>
      </trkpt>
      <trkpt lat="43.10311" lon="1.7666">
        <ele>357</ele>
        <time>2019-08-31T14:44:12Z</time>
      </trkpt>
      <trkpt lat="43.10312" lon="1.76655">
        <ele>358</ele>
        <time>2019-08-31T14:44:14Z</time>
      </trkpt>
      <trkpt lat="43.10313" lon="1.76653">
        <ele>359</ele>
        <time>2019-08-31T14:44:15Z</time>
      </trkpt>
      <trkpt lat="43.10316" lon="1.76644">
        <ele>360</ele>
        <time>2019-08-31T14:44:19Z</time>
      </trkpt>
      <trkpt lat="43.10317" lon="1.7664">
        <ele>361</ele>
        <time>2019-08-31T14:44:21Z</time>
      </trkpt>
      <trkpt lat="43.10319" lon="1.76637">
        <ele>361</ele>
        <time>2019-08-31T14:44:23Z</time>
      </trkpt>
      <trkpt lat="43.10321" lon="1.76636">
        <ele>362</ele>
        <time>2019-08-31T14:44:24Z</time>
      </trkpt>
      <trkpt lat="43.10325" lon="1.76634">
        <ele>361</ele>
        <time>2019-08-31T14:46:07Z</time>
      </trkpt>
      <trkpt lat="43.10329" lon="1.76633">
        <ele>361</ele>
        <time>2019-08-31T14:46:10Z</time>
      </trkpt>
      <trkpt lat="43.10334" lon="1.76635">
        <ele>362</ele>
        <time>2019-08-31T14:46:13Z</time>
      </trkpt>
      <trkpt lat="43.10339" lon="1.76637">
        <ele>362</ele>
        <time>2019-08-31T14:46:16Z</time>
      </trkpt>
      <trkpt lat="43.10342" lon="1.76639">
        <ele>362</ele>
        <time>2019-08-31T14:46:18Z</time>
      </trkpt>
      <trkpt lat="43.10348" lon="1.76644">
        <ele>363</ele>
        <time>2019-08-31T14:46:22Z</time>
      </trkpt>
      <trkpt lat="43.10349" lon="1.76646">
        <ele>364</ele>
        <time>2019-08-31T14:46:23Z</time>
      </trkpt>
      <trkpt lat="43.10352" lon="1.76658">
        <ele>365</ele>
        <time>2019-08-31T14:46:29Z</time>
      </trkpt>
      <trkpt lat="43.10353" lon="1.7666">
        <ele>365</ele>
        <time>2019-08-31T14:46:30Z</time>
      </trkpt>
      <trkpt lat="43.10356" lon="1.76671">
        <ele>366</ele>
        <time>2019-08-31T14:46:35Z</time>
      </trkpt>
      <trkpt lat="43.10356" lon="1.76674">
        <ele>366</ele>
        <time>2019-08-31T14:46:36Z</time>
      </trkpt>
      <trkpt lat="43.10358" lon="1.76685">
        <ele>367</ele>
        <time>2019-08-31T14:46:41Z</time>
      </trkpt>
      <trkpt lat="43.10359" lon="1.76689">
        <ele>367</ele>
        <time>2019-08-31T14:46:43Z</time>
      </trkpt>
      <trkpt lat="43.10359" lon="1.76696">
        <ele>368</ele>
        <time>2019-08-31T14:46:46Z</time>
      </trkpt>
      <trkpt lat="43.1036" lon="1.76705">
        <ele>368</ele>
        <time>2019-08-31T14:46:50Z</time>
      </trkpt>
      <trkpt lat="43.10359" lon="1.76713">
        <ele>369</ele>
        <time>2019-08-31T14:46:54Z</time>
      </trkpt>
      <trkpt lat="43.10357" lon="1.7672">
        <ele>370</ele>
        <time>2019-08-31T14:46:57Z</time>
      </trkpt>
      <trkpt lat="43.10356" lon="1.76724">
        <ele>370</ele>
        <time>2019-08-31T14:46:59Z</time>
      </trkpt>
      <trkpt lat="43.10351" lon="1.76738">
        <ele>371</ele>
        <time>2019-08-31T14:47:05Z</time>
      </trkpt>
      <trkpt lat="43.10351" lon="1.76741">
        <ele>372</ele>
        <time>2019-08-31T14:47:06Z</time>
      </trkpt>
      <trkpt lat="43.10352" lon="1.76752">
        <ele>373</ele>
        <time>2019-08-31T14:47:10Z</time>
      </trkpt>
      <trkpt lat="43.10353" lon="1.76754">
        <ele>373</ele>
        <time>2019-08-31T14:47:11Z</time>
      </trkpt>
      <trkpt lat="43.10359" lon="1.76764">
        <ele>374</ele>
        <time>2019-08-31T14:47:17Z</time>
      </trkpt>
      <trkpt lat="43.10366" lon="1.76773">
        <ele>374</ele>
        <time>2019-08-31T14:47:24Z</time>
      </trkpt>
      <trkpt lat="43.10371" lon="1.76782">
        <ele>374</ele>
        <time>2019-08-31T14:49:16Z</time>
      </trkpt>
      <trkpt lat="43.10374" lon="1.76785">
        <ele>374</ele>
        <time>2019-08-31T14:49:17Z</time>
      </trkpt>
      <trkpt lat="43.10385" lon="1.76798">
        <ele>374</ele>
        <time>2019-08-31T14:49:22Z</time>
      </trkpt>
      <trkpt lat="43.10393" lon="1.76805">
        <ele>375</ele>
        <time>2019-08-31T14:49:25Z</time>
      </trkpt>
      <trkpt lat="43.10402" lon="1.76814">
        <ele>376</ele>
        <time>2019-08-31T14:49:28Z</time>
      </trkpt>
      <trkpt lat="43.10418" lon="1.7682">
        <ele>376</ele>
        <time>2019-08-31T14:49:33Z</time>
      </trkpt>
      <trkpt lat="43.10434" lon="1.76824">
        <ele>376</ele>
        <time>2019-08-31T14:49:40Z</time>
      </trkpt>
      <trkpt lat="43.10444" lon="1.76826">
        <ele>376</ele>
        <time>2019-08-31T14:49:44Z</time>
      </trkpt>
      <trkpt lat="43.10453" lon="1.76826">
        <ele>377</ele>
        <time>2019-08-31T14:49:47Z</time>
      </trkpt>
      <trkpt lat="43.10456" lon="1.76826">
        <ele>377</ele>
        <time>2019-08-31T14:49:48Z</time>
      </trkpt>
      <trkpt lat="43.10467" lon="1.76828">
        <ele>378</ele>
        <time>2019-08-31T14:49:52Z</time>
      </trkpt>
      <trkpt lat="43.10469" lon="1.76829">
        <ele>379</ele>
        <time>2019-08-31T14:49:53Z</time>
      </trkpt>
      <trkpt lat="43.1049" lon="1.76832">
        <ele>379</ele>
        <time>2019-08-31T14:50:00Z</time>
      </trkpt>
      <trkpt lat="43.10501" lon="1.76834">
        <ele>378</ele>
        <time>2019-08-31T14:50:02Z</time>
      </trkpt>
      <trkpt lat="43.10508" lon="1.76834">
        <ele>377</ele>
        <time>2019-08-31T14:50:03Z</time>
      </trkpt>
      <trkpt lat="43.10514" lon="1.76833">
        <ele>377</ele>
        <time>2019-08-31T14:50:04Z</time>
      </trkpt>
      <trkpt lat="43.1052" lon="1.76831">
        <ele>376</ele>
        <time>2019-08-31T14:50:05Z</time>
      </trkpt>
      <trkpt lat="43.10528" lon="1.76827">
        <ele>375</ele>
        <time>2019-08-31T14:50:07Z</time>
      </trkpt>
      <trkpt lat="43.10531" lon="1.76826">
        <ele>374</ele>
        <time>2019-08-31T14:50:08Z</time>
      </trkpt>
      <trkpt lat="43.10532" lon="1.76825">
        <ele>373</ele>
        <time>2019-08-31T14:50:09Z</time>
      </trkpt>
      <trkpt lat="43.10535" lon="1.76825">
        <ele>372</ele>
        <time>2019-08-31T14:50:11Z</time>
      </trkpt>
      <trkpt lat="43.1054" lon="1.76825">
        <ele>371</ele>
        <time>2019-08-31T14:50:49Z</time>
      </trkpt>
      <trkpt lat="43.10548" lon="1.76824">
        <ele>371</ele>
        <time>2019-08-31T14:50:51Z</time>
      </trkpt>
      <trkpt lat="43.1056" lon="1.76817">
        <ele>371</ele>
        <time>2019-08-31T14:50:54Z</time>
      </trkpt>
      <trkpt lat="43.10565" lon="1.76814">
        <ele>372</ele>
        <time>2019-08-31T14:50:55Z</time>
      </trkpt>
      <trkpt lat="43.10581" lon="1.76801">
        <ele>372</ele>
        <time>2019-08-31T14:50:58Z</time>
      </trkpt>
      <trkpt lat="43.10586" lon="1.76794">
        <ele>372</ele>
        <time>2019-08-31T14:50:59Z</time>
      </trkpt>
      <trkpt lat="43.10599" lon="1.76766">
        <ele>373</ele>
        <time>2019-08-31T14:51:02Z</time>
      </trkpt>
      <trkpt lat="43.10622" lon="1.76747">
        <ele>373</ele>
        <time>2019-08-31T14:51:05Z</time>
      </trkpt>
      <trkpt lat="43.10645" lon="1.76719">
        <ele>372</ele>
        <time>2019-08-31T14:51:09Z</time>
      </trkpt>
      <trkpt lat="43.1066" lon="1.76703">
        <ele>371</ele>
        <time>2019-08-31T14:51:12Z</time>
      </trkpt>
      <trkpt lat="43.10664" lon="1.767">
        <ele>370</ele>
        <time>2019-08-31T14:51:13Z</time>
      </trkpt>
      <trkpt lat="43.10673" lon="1.76695">
        <ele>369</ele>
        <time>2019-08-31T14:51:15Z</time>
      </trkpt>
      <trkpt lat="43.10679" lon="1.76692">
        <ele>368</ele>
        <time>2019-08-31T14:51:17Z</time>
      </trkpt>
      <trkpt lat="43.1068" lon="1.76691">
        <ele>367</ele>
        <time>2019-08-31T14:51:18Z</time>
      </trkpt>
      <trkpt lat="43.10681" lon="1.76691">
        <ele>367</ele>
        <time>2019-08-31T14:51:19Z</time>
      </trkpt>
      <trkpt lat="43.10683" lon="1.7669">
        <ele>365</ele>
        <time>2019-08-31T14:51:21Z</time>
      </trkpt>
      <trkpt lat="43.10687" lon="1.76689">
        <ele>364</ele>
        <time>2019-08-31T14:51:23Z</time>
      </trkpt>
      <trkpt lat="43.1069" lon="1.76687">
        <ele>363</ele>
        <time>2019-08-31T14:51:25Z</time>
      </trkpt>
      <trkpt lat="43.10694" lon="1.76688">
        <ele>363</ele>
        <time>2019-08-31T14:51:26Z</time>
      </trkpt>
      <trkpt lat="43.10699" lon="1.7669">
        <ele>362</ele>
        <time>2019-08-31T14:51:28Z</time>
      </trkpt>
      <trkpt lat="43.10705" lon="1.76691">
        <ele>360</ele>
        <time>2019-08-31T14:51:30Z</time>
      </trkpt>
      <trkpt lat="43.10711" lon="1.76693">
        <ele>358</ele>
        <time>2019-08-31T14:51:32Z</time>
      </trkpt>
      <trkpt lat="43.10715" lon="1.76694">
        <ele>358</ele>
        <time>2019-08-31T14:51:33Z</time>
      </trkpt>
      <trkpt lat="43.10721" lon="1.76693">
        <ele>356</ele>
        <time>2019-08-31T14:51:34Z</time>
      </trkpt>
      <trkpt lat="43.10726" lon="1.76693">
        <ele>355</ele>
        <time>2019-08-31T14:51:35Z</time>
      </trkpt>
      <trkpt lat="43.10735" lon="1.76693">
        <ele>353</ele>
        <time>2019-08-31T14:51:37Z</time>
      </trkpt>
      <trkpt lat="43.10742" lon="1.7669">
        <ele>351</ele>
        <time>2019-08-31T14:51:39Z</time>
      </trkpt>
      <trkpt lat="43.10748" lon="1.76695">
        <ele>350</ele>
        <time>2019-08-31T14:51:41Z</time>
      </trkpt>
      <trkpt lat="43.10753" lon="1.76707">
        <ele>348</ele>
        <time>2019-08-31T14:51:43Z</time>
      </trkpt>
      <trkpt lat="43.10756" lon="1.76714">
        <ele>347</ele>
        <time>2019-08-31T14:51:44Z</time>
      </trkpt>
      <trkpt lat="43.1076" lon="1.76723">
        <ele>346</ele>
        <time>2019-08-31T14:51:45Z</time>
      </trkpt>
      <trkpt lat="43.10767" lon="1.76739">
        <ele>345</ele>
        <time>2019-08-31T14:51:47Z</time>
      </trkpt>
      <trkpt lat="43.1077" lon="1.76746">
        <ele>344</ele>
        <time>2019-08-31T14:51:48Z</time>
      </trkpt>
      <trkpt lat="43.10772" lon="1.76752">
        <ele>344</ele>
        <time>2019-08-31T14:51:49Z</time>
      </trkpt>
      <trkpt lat="43.10778" lon="1.76766">
        <ele>342</ele>
        <time>2019-08-31T14:51:51Z</time>
      </trkpt>
      <trkpt lat="43.10781" lon="1.76771">
        <ele>342</ele>
        <time>2019-08-31T14:51:52Z</time>
      </trkpt>
      <trkpt lat="43.10784" lon="1.76777">
        <ele>341</ele>
        <time>2019-08-31T14:51:53Z</time>
      </trkpt>
      <trkpt lat="43.10793" lon="1.7679">
        <ele>339</ele>
        <time>2019-08-31T14:51:56Z</time>
      </trkpt>
      <trkpt lat="43.10801" lon="1.76799">
        <ele>338</ele>
        <time>2019-08-31T14:51:59Z</time>
      </trkpt>
      <trkpt lat="43.10806" lon="1.76804">
        <ele>337</ele>
        <time>2019-08-31T14:52:02Z</time>
      </trkpt>
      <trkpt lat="43.10809" lon="1.76808">
        <ele>336</ele>
        <time>2019-08-31T14:52:04Z</time>
      </trkpt>
      <trkpt lat="43.10812" lon="1.76808">
        <ele>336</ele>
        <time>2019-08-31T14:52:05Z</time>
      </trkpt>
      <trkpt lat="43.10817" lon="1.76805">
        <ele>335</ele>
        <time>2019-08-31T14:52:07Z</time>
      </trkpt>
      <trkpt lat="43.1082" lon="1.76802">
        <ele>335</ele>
        <time>2019-08-31T14:52:09Z</time>
      </trkpt>
      <trkpt lat="43.10823" lon="1.76799">
        <ele>334</ele>
        <time>2019-08-31T14:52:12Z</time>
      </trkpt>
      <trkpt lat="43.10825" lon="1.76798">
        <ele>333</ele>
        <time>2019-08-31T14:52:13Z</time>
      </trkpt>
      <trkpt lat="43.1083" lon="1.76794">
        <ele>333</ele>
        <time>2019-08-31T14:52:17Z</time>
      </trkpt>
      <trkpt lat="43.10831" lon="1.76793">
        <ele>332</ele>
        <time>2019-08-31T14:52:19Z</time>
      </trkpt>
      <trkpt lat="43.10835" lon="1.76673">
        <ele>355</ele>
        <time>2019-08-31T14:54:24Z</time>
      </trkpt>
      <trkpt lat="43.10835" lon="1.76672">
        <ele>355</ele>
        <time>2019-08-31T14:54:25Z</time>
      </trkpt>
      <trkpt lat="43.10837" lon="1.76665">
        <ele>356</ele>
        <time>2019-08-31T14:55:56Z</time>
      </trkpt>
      <trkpt lat="43.10837" lon="1.76661">
        <ele>357</ele>
        <time>2019-08-31T14:55:58Z</time>
      </trkpt>
      <trkpt lat="43.10838" lon="1.76657">
        <ele>358</ele>
        <time>2019-08-31T14:56:00Z</time>
      </trkpt>
      <trkpt lat="43.10839" lon="1.76654">
        <ele>359</ele>
        <time>2019-08-31T14:56:02Z</time>
      </trkpt>
      <trkpt lat="43.10839" lon="1.76652">
        <ele>360</ele>
        <time>2019-08-31T14:56:03Z</time>
      </trkpt>
      <trkpt lat="43.10839" lon="1.7665">
        <ele>360</ele>
        <time>2019-08-31T14:56:04Z</time>
      </trkpt>
      <trkpt lat="43.10841" lon="1.76647">
        <ele>361</ele>
        <time>2019-08-31T14:56:06Z</time>
      </trkpt>
      <trkpt lat="43.10856" lon="1.76633">
        <ele>364</ele>
        <time>2019-08-31T14:56:19Z</time>
      </trkpt>
      <trkpt lat="43.10857" lon="1.76632">
        <ele>364</ele>
        <time>2019-08-31T14:56:20Z</time>
      </trkpt>
      <trkpt lat="43.10861" lon="1.76629">
        <ele>364</ele>
        <time>2019-08-31T14:56:23Z</time>
      </trkpt>
      <trkpt lat="43.10866" lon="1.76627">
        <ele>363</ele>
        <time>2019-08-31T14:56:26Z</time>
      </trkpt>
      <trkpt lat="43.10871" lon="1.76625">
        <ele>363</ele>
        <time>2019-08-31T14:56:29Z</time>
      </trkpt>
      <trkpt lat="43.10875" lon="1.76624">
        <ele>362</ele>
        <time>2019-08-31T14:56:31Z</time>
      </trkpt>
      <trkpt lat="43.10876" lon="1.76623">
        <ele>362</ele>
        <time>2019-08-31T14:56:32Z</time>
      </trkpt>
      <trkpt lat="43.10887" lon="1.76617">
        <ele>362</ele>
        <time>2019-08-31T14:56:39Z</time>
      </trkpt>
      <trkpt lat="43.10892" lon="1.76614">
        <ele>361</ele>
        <time>2019-08-31T14:56:42Z</time>
      </trkpt>
      <trkpt lat="43.10897" lon="1.76612">
        <ele>360</ele>
        <time>2019-08-31T14:56:45Z</time>
      </trkpt>
      <trkpt lat="43.10906" lon="1.76609">
        <ele>361</ele>
        <time>2019-08-31T14:56:51Z</time>
      </trkpt>
      <trkpt lat="43.10916" lon="1.76604">
        <ele>362</ele>
        <time>2019-08-31T14:56:58Z</time>
      </trkpt>
      <trkpt lat="43.10918" lon="1.76603">
        <ele>362</ele>
        <time>2019-08-31T14:56:59Z</time>
      </trkpt>
      <trkpt lat="43.1092" lon="1.76602">
        <ele>362</ele>
        <time>2019-08-31T14:57:00Z</time>
      </trkpt>
      <trkpt lat="43.10924" lon="1.76601">
        <ele>363</ele>
        <time>2019-08-31T14:57:03Z</time>
      </trkpt>
      <trkpt lat="43.10926" lon="1.766">
        <ele>363</ele>
        <time>2019-08-31T14:57:05Z</time>
      </trkpt>
      <trkpt lat="43.10928" lon="1.76599">
        <ele>363</ele>
        <time>2019-08-31T14:57:07Z</time>
      </trkpt>
      <trkpt lat="43.10932" lon="1.76599">
        <ele>364</ele>
        <time>2019-08-31T14:57:10Z</time>
      </trkpt>
      <trkpt lat="43.10933" lon="1.76598">
        <ele>364</ele>
        <time>2019-08-31T14:57:12Z</time>
      </trkpt>
      <trkpt lat="43.10937" lon="1.76595">
        <ele>365</ele>
        <time>2019-08-31T14:57:16Z</time>
      </trkpt>
      <trkpt lat="43.10941" lon="1.76593">
        <ele>366</ele>
        <time>2019-08-31T14:57:20Z</time>
      </trkpt>
      <trkpt lat="43.10945" lon="1.76592">
        <ele>366</ele>
        <time>2019-08-31T14:57:22Z</time>
      </trkpt>
      <trkpt lat="43.10949" lon="1.7659">
        <ele>368</ele>
        <time>2019-08-31T14:57:25Z</time>
      </trkpt>
      <trkpt lat="43.10953" lon="1.76589">
        <ele>369</ele>
        <time>2019-08-31T14:57:28Z</time>
      </trkpt>
      <trkpt lat="43.10954" lon="1.76588">
        <ele>369</ele>
        <time>2019-08-31T14:57:29Z</time>
      </trkpt>
      <trkpt lat="43.10961" lon="1.76585">
        <ele>370</ele>
        <time>2019-08-31T14:57:35Z</time>
      </trkpt>
      <trkpt lat="43.10962" lon="1.76584">
        <ele>370</ele>
        <time>2019-08-31T14:57:36Z</time>
      </trkpt>
      <trkpt lat="43.10964" lon="1.76584">
        <ele>371</ele>
        <time>2019-08-31T14:57:38Z</time>
      </trkpt>
      <trkpt lat="43.11018" lon="1.76561">
        <ele>381</ele>
        <time>2019-08-31T14:58:27Z</time>
      </trkpt>
      <trkpt lat="43.1102" lon="1.76561">
        <ele>381</ele>
        <time>2019-08-31T14:58:28Z</time>
      </trkpt>
      <trkpt lat="43.11021" lon="1.7656">
        <ele>381</ele>
        <time>2019-08-31T14:58:29Z</time>
      </trkpt>
      <trkpt lat="43.11027" lon="1.76556">
        <ele>381</ele>
        <time>2019-08-31T14:58:33Z</time>
      </trkpt>
      <trkpt lat="43.11046" lon="1.76546">
        <ele>381</ele>
        <time>2019-08-31T14:58:42Z</time>
      </trkpt>
      <trkpt lat="43.11063" lon="1.76534">
        <ele>381</ele>
        <time>2019-08-31T14:58:47Z</time>
      </trkpt>
      <trkpt lat="43.11081" lon="1.76521">
        <ele>380</ele>
        <time>2019-08-31T14:58:51Z</time>
      </trkpt>
      <trkpt lat="43.11085" lon="1.7652">
        <ele>380</ele>
        <time>2019-08-31T14:58:52Z</time>
      </trkpt>
      <trkpt lat="43.11087" lon="1.76519">
        <ele>379</ele>
        <time>2019-08-31T14:58:53Z</time>
      </trkpt>
      <trkpt lat="43.11094" lon="1.76517">
        <ele>378</ele>
        <time>2019-08-31T14:58:56Z</time>
      </trkpt>
      <trkpt lat="43.11095" lon="1.76517">
        <ele>378</ele>
        <time>2019-08-31T14:58:57Z</time>
      </trkpt>
      <trkpt lat="43.11108" lon="1.76506">
        <ele>380</ele>
        <time>2019-08-31T15:13:37Z</time>
      </trkpt>
      <trkpt lat="43.11117" lon="1.76499">
        <ele>379</ele>
        <time>2019-08-31T15:13:40Z</time>
      </trkpt>
      <trkpt lat="43.1112" lon="1.76496">
        <ele>379</ele>
        <time>2019-08-31T15:13:41Z</time>
      </trkpt>
      <trkpt lat="43.11128" lon="1.76491">
        <ele>379</ele>
        <time>2019-08-31T15:13:43Z</time>
      </trkpt>
      <trkpt lat="43.11143" lon="1.76482">
        <ele>378</ele>
        <time>2019-08-31T15:13:46Z</time>
      </trkpt>
      <trkpt lat="43.11147" lon="1.76478">
        <ele>378</ele>
        <time>2019-08-31T15:13:47Z</time>
      </trkpt>
      <trkpt lat="43.11162" lon="1.76469">
        <ele>378</ele>
        <time>2019-08-31T15:13:50Z</time>
      </trkpt>
      <trkpt lat="43.11172" lon="1.76463">
        <ele>378</ele>
        <time>2019-08-31T15:13:52Z</time>
      </trkpt>
      <trkpt lat="43.11186" lon="1.76453">
        <ele>378</ele>
        <time>2019-08-31T15:13:55Z</time>
      </trkpt>
      <trkpt lat="43.112" lon="1.76442">
        <ele>377</ele>
        <time>2019-08-31T15:13:58Z</time>
      </trkpt>
      <trkpt lat="43.11209" lon="1.76435">
        <ele>377</ele>
        <time>2019-08-31T15:14:00Z</time>
      </trkpt>
      <trkpt lat="43.11227" lon="1.76423">
        <ele>376</ele>
        <time>2019-08-31T15:14:04Z</time>
      </trkpt>
      <trkpt lat="43.11244" lon="1.76411">
        <ele>375</ele>
        <time>2019-08-31T15:14:09Z</time>
      </trkpt>
      <trkpt lat="43.11264" lon="1.76397">
        <ele>375</ele>
        <time>2019-08-31T15:14:15Z</time>
      </trkpt>
      <trkpt lat="43.11279" lon="1.76388">
        <ele>376</ele>
        <time>2019-08-31T15:14:21Z</time>
      </trkpt>
      <trkpt lat="43.1129" lon="1.76381">
        <ele>376</ele>
        <time>2019-08-31T15:14:26Z</time>
      </trkpt>
      <trkpt lat="43.113" lon="1.76374">
        <ele>377</ele>
        <time>2019-08-31T15:14:32Z</time>
      </trkpt>
      <trkpt lat="43.11303" lon="1.76371">
        <ele>377</ele>
        <time>2019-08-31T15:14:34Z</time>
      </trkpt>
      <trkpt lat="43.11314" lon="1.76364">
        <ele>377</ele>
        <time>2019-08-31T15:14:40Z</time>
      </trkpt>
      <trkpt lat="43.11327" lon="1.76355">
        <ele>376</ele>
        <time>2019-08-31T15:14:46Z</time>
      </trkpt>
      <trkpt lat="43.11347" lon="1.76338">
        <ele>376</ele>
        <time>2019-08-31T15:14:56Z</time>
      </trkpt>
      <trkpt lat="43.11353" lon="1.76333">
        <ele>376</ele>
        <time>2019-08-31T15:14:59Z</time>
      </trkpt>
      <trkpt lat="43.11362" lon="1.76325">
        <ele>376</ele>
        <time>2019-08-31T15:15:04Z</time>
      </trkpt>
      <trkpt lat="43.11371" lon="1.76317">
        <ele>377</ele>
        <time>2019-08-31T15:15:09Z</time>
      </trkpt>
      <trkpt lat="43.11373" lon="1.76314">
        <ele>377</ele>
        <time>2019-08-31T15:15:11Z</time>
      </trkpt>
      <trkpt lat="43.11372" lon="1.76298">
        <ele>377</ele>
        <time>2019-08-31T15:15:15Z</time>
      </trkpt>
      <trkpt lat="43.11372" lon="1.76293">
        <ele>377</ele>
        <time>2019-08-31T15:15:16Z</time>
      </trkpt>
      <trkpt lat="43.11373" lon="1.76277">
        <ele>376</ele>
        <time>2019-08-31T15:15:19Z</time>
      </trkpt>
      <trkpt lat="43.11373" lon="1.76273">
        <ele>376</ele>
        <time>2019-08-31T15:15:20Z</time>
      </trkpt>
      <trkpt lat="43.11375" lon="1.76258">
        <ele>375</ele>
        <time>2019-08-31T15:15:23Z</time>
      </trkpt>
      <trkpt lat="43.11375" lon="1.76257">
        <ele>374</ele>
        <time>2019-08-31T15:15:24Z</time>
      </trkpt>
      <trkpt lat="43.11376" lon="1.76254">
        <ele>374</ele>
        <time>2019-08-31T15:16:28Z</time>
      </trkpt>
      <trkpt lat="43.11377" lon="1.76249">
        <ele>373</ele>
        <time>2019-08-31T15:16:29Z</time>
      </trkpt>
      <trkpt lat="43.11379" lon="1.76244">
        <ele>372</ele>
        <time>2019-08-31T15:16:30Z</time>
      </trkpt>
      <trkpt lat="43.11383" lon="1.76231">
        <ele>372</ele>
        <time>2019-08-31T15:16:32Z</time>
      </trkpt>
      <trkpt lat="43.11386" lon="1.76224">
        <ele>371</ele>
        <time>2019-08-31T15:16:33Z</time>
      </trkpt>
      <trkpt lat="43.11395" lon="1.76199">
        <ele>371</ele>
        <time>2019-08-31T15:16:37Z</time>
      </trkpt>
      <trkpt lat="43.11397" lon="1.76192">
        <ele>370</ele>
        <time>2019-08-31T15:16:38Z</time>
      </trkpt>
      <trkpt lat="43.11398" lon="1.76174">
        <ele>369</ele>
        <time>2019-08-31T15:16:40Z</time>
      </trkpt>
      <trkpt lat="43.11398" lon="1.76164">
        <ele>368</ele>
        <time>2019-08-31T15:16:41Z</time>
      </trkpt>
      <trkpt lat="43.11397" lon="1.76154">
        <ele>368</ele>
        <time>2019-08-31T15:16:42Z</time>
      </trkpt>
      <trkpt lat="43.11398" lon="1.76133">
        <ele>366</ele>
        <time>2019-08-31T15:16:44Z</time>
      </trkpt>
      <trkpt lat="43.11403" lon="1.76111">
        <ele>364</ele>
        <time>2019-08-31T15:16:46Z</time>
      </trkpt>
      <trkpt lat="43.1141" lon="1.76085">
        <ele>363</ele>
        <time>2019-08-31T15:16:48Z</time>
      </trkpt>
      <trkpt lat="43.11414" lon="1.76072">
        <ele>362</ele>
        <time>2019-08-31T15:16:49Z</time>
      </trkpt>
      <trkpt lat="43.11418" lon="1.76059">
        <ele>361</ele>
        <time>2019-08-31T15:16:50Z</time>
      </trkpt>
      <trkpt lat="43.11428" lon="1.76035">
        <ele>360</ele>
        <time>2019-08-31T15:16:52Z</time>
      </trkpt>
      <trkpt lat="43.11437" lon="1.76013">
        <ele>359</ele>
        <time>2019-08-31T15:16:54Z</time>
      </trkpt>
      <trkpt lat="43.11441" lon="1.76002">
        <ele>359</ele>
        <time>2019-08-31T15:16:55Z</time>
      </trkpt>
      <trkpt lat="43.1145" lon="1.75971">
        <ele>358</ele>
        <time>2019-08-31T15:16:58Z</time>
      </trkpt>
      <trkpt lat="43.11457" lon="1.75935">
        <ele>357</ele>
        <time>2019-08-31T15:17:02Z</time>
      </trkpt>
      <trkpt lat="43.11459" lon="1.75928">
        <ele>357</ele>
        <time>2019-08-31T15:17:03Z</time>
      </trkpt>
      <trkpt lat="43.11463" lon="1.75915">
        <ele>356</ele>
        <time>2019-08-31T15:17:05Z</time>
      </trkpt>
      <trkpt lat="43.11468" lon="1.75898">
        <ele>356</ele>
        <time>2019-08-31T15:17:08Z</time>
      </trkpt>
      <trkpt lat="43.11474" lon="1.75881">
        <ele>356</ele>
        <time>2019-08-31T15:17:11Z</time>
      </trkpt>
      <trkpt lat="43.11478" lon="1.7587">
        <ele>356</ele>
        <time>2019-08-31T15:17:13Z</time>
      </trkpt>
      <trkpt lat="43.11492" lon="1.75835">
        <ele>357</ele>
        <time>2019-08-31T15:17:20Z</time>
      </trkpt>
      <trkpt lat="43.11501" lon="1.75806">
        <ele>357</ele>
        <time>2019-08-31T15:17:27Z</time>
      </trkpt>
      <trkpt lat="43.11505" lon="1.75789">
        <ele>357</ele>
        <time>2019-08-31T15:17:32Z</time>
      </trkpt>
      <trkpt lat="43.11509" lon="1.75772">
        <ele>358</ele>
        <time>2019-08-31T15:17:38Z</time>
      </trkpt>
      <trkpt lat="43.1151" lon="1.75769">
        <ele>358</ele>
        <time>2019-08-31T15:17:39Z</time>
      </trkpt>
      <trkpt lat="43.11511" lon="1.75761">
        <ele>359</ele>
        <time>2019-08-31T15:17:42Z</time>
      </trkpt>
      <trkpt lat="43.11513" lon="1.75741">
        <ele>365</ele>
        <time>2019-08-31T15:19:23Z</time>
      </trkpt>
      <trkpt lat="43.11513" lon="1.75737">
        <ele>367</ele>
        <time>2019-08-31T15:19:25Z</time>
      </trkpt>
      <trkpt lat="43.11513" lon="1.75732">
        <ele>368</ele>
        <time>2019-08-31T15:19:27Z</time>
      </trkpt>
      <trkpt lat="43.11513" lon="1.75728">
        <ele>369</ele>
        <time>2019-08-31T15:19:29Z</time>
      </trkpt>
      <trkpt lat="43.11513" lon="1.75724">
        <ele>370</ele>
        <time>2019-08-31T15:19:31Z</time>
      </trkpt>
      <trkpt lat="43.11513" lon="1.75719">
        <ele>371</ele>
        <time>2019-08-31T15:19:34Z</time>
      </trkpt>
      <trkpt lat="43.11513" lon="1.75701">
        <ele>370</ele>
        <time>2019-08-31T15:19:44Z</time>
      </trkpt>
      <trkpt lat="43.11514" lon="1.75686">
        <ele>370</ele>
        <time>2019-08-31T15:19:52Z</time>
      </trkpt>
      <trkpt lat="43.11515" lon="1.75674">
        <ele>369</ele>
        <time>2019-08-31T15:20:00Z</time>
      </trkpt>
      <trkpt lat="43.11516" lon="1.75661">
        <ele>370</ele>
        <time>2019-08-31T15:20:09Z</time>
      </trkpt>
      <trkpt lat="43.11517" lon="1.75653">
        <ele>370</ele>
        <time>2019-08-31T15:20:12Z</time>
      </trkpt>
      <trkpt lat="43.11523" lon="1.7563">
        <ele>370</ele>
        <time>2019-08-31T15:20:18Z</time>
      </trkpt>
      <trkpt lat="43.11533" lon="1.75598">
        <ele>369</ele>
        <time>2019-08-31T15:20:25Z</time>
      </trkpt>
      <trkpt lat="43.1154" lon="1.75584">
        <ele>369</ele>
        <time>2019-08-31T15:20:28Z</time>
      </trkpt>
      <trkpt lat="43.11543" lon="1.75579">
        <ele>369</ele>
        <time>2019-08-31T15:20:29Z</time>
      </trkpt>
      <trkpt lat="43.11549" lon="1.7557">
        <ele>369</ele>
        <time>2019-08-31T15:20:31Z</time>
      </trkpt>
      <trkpt lat="43.11557" lon="1.75554">
        <ele>368</ele>
        <time>2019-08-31T15:20:34Z</time>
      </trkpt>
      <trkpt lat="43.11562" lon="1.75544">
        <ele>368</ele>
        <time>2019-08-31T15:20:36Z</time>
      </trkpt>
      <trkpt lat="43.11564" lon="1.75538">
        <ele>367</ele>
        <time>2019-08-31T15:20:37Z</time>
      </trkpt>
      <trkpt lat="43.11569" lon="1.75527">
        <ele>367</ele>
        <time>2019-08-31T15:20:39Z</time>
      </trkpt>
      <trkpt lat="43.11575" lon="1.75516">
        <ele>366</ele>
        <time>2019-08-31T15:20:41Z</time>
      </trkpt>
      <trkpt lat="43.11579" lon="1.75502">
        <ele>366</ele>
        <time>2019-08-31T15:20:43Z</time>
      </trkpt>
      <trkpt lat="43.11581" lon="1.75494">
        <ele>365</ele>
        <time>2019-08-31T15:20:44Z</time>
      </trkpt>
      <trkpt lat="43.11582" lon="1.75487">
        <ele>365</ele>
        <time>2019-08-31T15:20:45Z</time>
      </trkpt>
      <trkpt lat="43.11583" lon="1.75478">
        <ele>365</ele>
        <time>2019-08-31T15:20:46Z</time>
      </trkpt>
      <trkpt lat="43.11583" lon="1.75461">
        <ele>364</ele>
        <time>2019-08-31T15:20:48Z</time>
      </trkpt>
      <trkpt lat="43.11584" lon="1.75451">
        <ele>363</ele>
        <time>2019-08-31T15:20:49Z</time>
      </trkpt>
      <trkpt lat="43.11584" lon="1.7544">
        <ele>362</ele>
        <time>2019-08-31T15:20:50Z</time>
      </trkpt>
      <trkpt lat="43.11585" lon="1.7542">
        <ele>361</ele>
        <time>2019-08-31T15:20:52Z</time>
      </trkpt>
      <trkpt lat="43.11584" lon="1.75411">
        <ele>360</ele>
        <time>2019-08-31T15:20:53Z</time>
      </trkpt>
      <trkpt lat="43.11584" lon="1.75401">
        <ele>360</ele>
        <time>2019-08-31T15:20:54Z</time>
      </trkpt>
      <trkpt lat="43.11586" lon="1.7538">
        <ele>358</ele>
        <time>2019-08-31T15:20:56Z</time>
      </trkpt>
      <trkpt lat="43.11588" lon="1.75369">
        <ele>356</ele>
        <time>2019-08-31T15:20:57Z</time>
      </trkpt>
      <trkpt lat="43.11591" lon="1.75358">
        <ele>355</ele>
        <time>2019-08-31T15:20:58Z</time>
      </trkpt>
      <trkpt lat="43.11594" lon="1.75345">
        <ele>354</ele>
        <time>2019-08-31T15:20:59Z</time>
      </trkpt>
      <trkpt lat="43.11598" lon="1.75333">
        <ele>353</ele>
        <time>2019-08-31T15:21:00Z</time>
      </trkpt>
      <trkpt lat="43.11601" lon="1.7532">
        <ele>351</ele>
        <time>2019-08-31T15:21:01Z</time>
      </trkpt>
      <trkpt lat="43.11604" lon="1.75308">
        <ele>350</ele>
        <time>2019-08-31T15:21:02Z</time>
      </trkpt>
      <trkpt lat="43.11606" lon="1.75296">
        <ele>349</ele>
        <time>2019-08-31T15:21:03Z</time>
      </trkpt>
      <trkpt lat="43.11609" lon="1.75285">
        <ele>348</ele>
        <time>2019-08-31T15:21:04Z</time>
      </trkpt>
      <trkpt lat="43.11614" lon="1.75264">
        <ele>346</ele>
        <time>2019-08-31T15:21:06Z</time>
      </trkpt>
      <trkpt lat="43.11619" lon="1.75243">
        <ele>345</ele>
        <time>2019-08-31T15:21:08Z</time>
      </trkpt>
      <trkpt lat="43.11625" lon="1.75221">
        <ele>343</ele>
        <time>2019-08-31T15:21:10Z</time>
      </trkpt>
      <trkpt lat="43.11629" lon="1.7521">
        <ele>342</ele>
        <time>2019-08-31T15:21:11Z</time>
      </trkpt>
      <trkpt lat="43.11633" lon="1.75199">
        <ele>341</ele>
        <time>2019-08-31T15:21:12Z</time>
      </trkpt>
      <trkpt lat="43.11636" lon="1.75188">
        <ele>340</ele>
        <time>2019-08-31T15:21:13Z</time>
      </trkpt>
      <trkpt lat="43.11643" lon="1.75163">
        <ele>338</ele>
        <time>2019-08-31T15:21:15Z</time>
      </trkpt>
      <trkpt lat="43.11646" lon="1.75151">
        <ele>337</ele>
        <time>2019-08-31T15:21:16Z</time>
      </trkpt>
      <trkpt lat="43.11649" lon="1.7514">
        <ele>336</ele>
        <time>2019-08-31T15:21:17Z</time>
      </trkpt>
      <trkpt lat="43.11653" lon="1.75118">
        <ele>334</ele>
        <time>2019-08-31T15:21:19Z</time>
      </trkpt>
      <trkpt lat="43.11655" lon="1.75107">
        <ele>333</ele>
        <time>2019-08-31T15:21:20Z</time>
      </trkpt>
      <trkpt lat="43.11657" lon="1.75096">
        <ele>332</ele>
        <time>2019-08-31T15:21:21Z</time>
      </trkpt>
      <trkpt lat="43.11661" lon="1.75075">
        <ele>330</ele>
        <time>2019-08-31T15:21:23Z</time>
      </trkpt>
      <trkpt lat="43.11666" lon="1.75055">
        <ele>328</ele>
        <time>2019-08-31T15:21:25Z</time>
      </trkpt>
      <trkpt lat="43.11669" lon="1.75047">
        <ele>327</ele>
        <time>2019-08-31T15:21:26Z</time>
      </trkpt>
      <trkpt lat="43.11672" lon="1.75039">
        <ele>326</ele>
        <time>2019-08-31T15:21:27Z</time>
      </trkpt>
      <trkpt lat="43.11675" lon="1.75033">
        <ele>326</ele>
        <time>2019-08-31T15:21:28Z</time>
      </trkpt>
      <trkpt lat="43.11679" lon="1.75026">
        <ele>325</ele>
        <time>2019-08-31T15:21:29Z</time>
      </trkpt>
      <trkpt lat="43.11681" lon="1.75018">
        <ele>325</ele>
        <time>2019-08-31T15:21:30Z</time>
      </trkpt>
      <trkpt lat="43.11688" lon="1.75002">
        <ele>324</ele>
        <time>2019-08-31T15:21:32Z</time>
      </trkpt>
      <trkpt lat="43.11693" lon="1.74984">
        <ele>322</ele>
        <time>2019-08-31T15:21:34Z</time>
      </trkpt>
      <trkpt lat="43.11695" lon="1.74975">
        <ele>322</ele>
        <time>2019-08-31T15:21:35Z</time>
      </trkpt>
      <trkpt lat="43.11698" lon="1.74967">
        <ele>321</ele>
        <time>2019-08-31T15:21:36Z</time>
      </trkpt>
      <trkpt lat="43.11707" lon="1.74942">
        <ele>320</ele>
        <time>2019-08-31T15:21:39Z</time>
      </trkpt>
      <trkpt lat="43.1171" lon="1.74935">
        <ele>320</ele>
        <time>2019-08-31T15:21:40Z</time>
      </trkpt>
      <trkpt lat="43.11712" lon="1.74927">
        <ele>320</ele>
        <time>2019-08-31T15:21:41Z</time>
      </trkpt>
      <trkpt lat="43.11719" lon="1.74898">
        <ele>319</ele>
        <time>2019-08-31T15:21:45Z</time>
      </trkpt>
      <trkpt lat="43.11721" lon="1.7489">
        <ele>319</ele>
        <time>2019-08-31T15:21:46Z</time>
      </trkpt>
      <trkpt lat="43.11728" lon="1.74863">
        <ele>318</ele>
        <time>2019-08-31T15:21:49Z</time>
      </trkpt>
      <trkpt lat="43.11737" lon="1.74831">
        <ele>317</ele>
        <time>2019-08-31T15:21:52Z</time>
      </trkpt>
      <trkpt lat="43.11743" lon="1.74807">
        <ele>316</ele>
        <time>2019-08-31T15:21:54Z</time>
      </trkpt>
      <trkpt lat="43.1175" lon="1.74782">
        <ele>314</ele>
        <time>2019-08-31T15:21:56Z</time>
      </trkpt>
      <trkpt lat="43.11752" lon="1.74772">
        <ele>313</ele>
        <time>2019-08-31T15:21:57Z</time>
      </trkpt>
      <trkpt lat="43.11753" lon="1.74762">
        <ele>312</ele>
        <time>2019-08-31T15:21:58Z</time>
      </trkpt>
      <trkpt lat="43.11754" lon="1.74751">
        <ele>310</ele>
        <time>2019-08-31T15:21:59Z</time>
      </trkpt>
      <trkpt lat="43.11754" lon="1.7474">
        <ele>309</ele>
        <time>2019-08-31T15:22:00Z</time>
      </trkpt>
      <trkpt lat="43.11751" lon="1.74728">
        <ele>308</ele>
        <time>2019-08-31T15:22:01Z</time>
      </trkpt>
      <trkpt lat="43.11747" lon="1.74716">
        <ele>306</ele>
        <time>2019-08-31T15:22:02Z</time>
      </trkpt>
      <trkpt lat="43.11742" lon="1.74705">
        <ele>305</ele>
        <time>2019-08-31T15:22:03Z</time>
      </trkpt>
      <trkpt lat="43.11737" lon="1.74695">
        <ele>304</ele>
        <time>2019-08-31T15:22:04Z</time>
      </trkpt>
      <trkpt lat="43.11732" lon="1.74686">
        <ele>302</ele>
        <time>2019-08-31T15:22:05Z</time>
      </trkpt>
      <trkpt lat="43.11724" lon="1.74679">
        <ele>301</ele>
        <time>2019-08-31T15:22:06Z</time>
      </trkpt>
      <trkpt lat="43.11717" lon="1.74674">
        <ele>300</ele>
        <time>2019-08-31T15:22:07Z</time>
      </trkpt>
      <trkpt lat="43.11709" lon="1.74672">
        <ele>298</ele>
        <time>2019-08-31T15:22:08Z</time>
      </trkpt>
      <trkpt lat="43.11701" lon="1.74673">
        <ele>297</ele>
        <time>2019-08-31T15:22:09Z</time>
      </trkpt>
      <trkpt lat="43.11694" lon="1.74676">
        <ele>296</ele>
        <time>2019-08-31T15:22:10Z</time>
      </trkpt>
      <trkpt lat="43.11687" lon="1.74679">
        <ele>295</ele>
        <time>2019-08-31T15:22:11Z</time>
      </trkpt>
      <trkpt lat="43.11679" lon="1.74681">
        <ele>294</ele>
        <time>2019-08-31T15:22:12Z</time>
      </trkpt>
      <trkpt lat="43.11666" lon="1.74686">
        <ele>293</ele>
        <time>2019-08-31T15:22:14Z</time>
      </trkpt>
      <trkpt lat="43.11652" lon="1.74692">
        <ele>291</ele>
        <time>2019-08-31T15:22:16Z</time>
      </trkpt>
      <trkpt lat="43.11634" lon="1.74701">
        <ele>290</ele>
        <time>2019-08-31T15:22:19Z</time>
      </trkpt>
      <trkpt lat="43.11628" lon="1.74704">
        <ele>290</ele>
        <time>2019-08-31T15:22:20Z</time>
      </trkpt>
      <trkpt lat="43.11618" lon="1.74709">
        <ele>289</ele>
        <time>2019-08-31T15:22:22Z</time>
      </trkpt>
      <trkpt lat="43.11608" lon="1.74714">
        <ele>289</ele>
        <time>2019-08-31T15:22:24Z</time>
      </trkpt>
      <trkpt lat="43.11594" lon="1.74723">
        <ele>288</ele>
        <time>2019-08-31T15:22:27Z</time>
      </trkpt>
      <trkpt lat="43.11568" lon="1.74745">
        <ele>286</ele>
        <time>2019-08-31T15:22:33Z</time>
      </trkpt>
      <trkpt lat="43.11564" lon="1.74749">
        <ele>286</ele>
        <time>2019-08-31T15:22:34Z</time>
      </trkpt>
      <trkpt lat="43.11559" lon="1.74752">
        <ele>286</ele>
        <time>2019-08-31T15:22:35Z</time>
      </trkpt>
      <trkpt lat="43.11549" lon="1.74759">
        <ele>286</ele>
        <time>2019-08-31T15:22:37Z</time>
      </trkpt>
      <trkpt lat="43.11543" lon="1.74763">
        <ele>285</ele>
        <time>2019-08-31T15:22:38Z</time>
      </trkpt>
      <trkpt lat="43.11538" lon="1.74768">
        <ele>285</ele>
        <time>2019-08-31T15:22:39Z</time>
      </trkpt>
      <trkpt lat="43.11524" lon="1.74783">
        <ele>284</ele>
        <time>2019-08-31T15:22:42Z</time>
      </trkpt>
      <trkpt lat="43.11519" lon="1.74787">
        <ele>284</ele>
        <time>2019-08-31T15:22:43Z</time>
      </trkpt>
      <trkpt lat="43.11513" lon="1.74788">
        <ele>284</ele>
        <time>2019-08-31T15:22:44Z</time>
      </trkpt>
      <trkpt lat="43.11501" lon="1.74782">
        <ele>284</ele>
        <time>2019-08-31T15:22:47Z</time>
      </trkpt>
      <trkpt lat="43.11496" lon="1.7477">
        <ele>285</ele>
        <time>2019-08-31T15:22:51Z</time>
      </trkpt>
      <trkpt lat="43.11496" lon="1.74766">
        <ele>285</ele>
        <time>2019-08-31T15:22:52Z</time>
      </trkpt>
      <trkpt lat="43.11496" lon="1.74762">
        <ele>286</ele>
        <time>2019-08-31T15:22:53Z</time>
      </trkpt>
      <trkpt lat="43.11496" lon="1.74748">
        <ele>286</ele>
        <time>2019-08-31T15:22:56Z</time>
      </trkpt>
      <trkpt lat="43.11497" lon="1.74723">
        <ele>286</ele>
        <time>2019-08-31T15:23:01Z</time>
      </trkpt>
      <trkpt lat="43.11497" lon="1.74702">
        <ele>286</ele>
        <time>2019-08-31T15:23:06Z</time>
      </trkpt>
      <trkpt lat="43.11497" lon="1.74685">
        <ele>286</ele>
        <time>2019-08-31T15:23:10Z</time>
      </trkpt>
      <trkpt lat="43.11496" lon="1.74677">
        <ele>287</ele>
        <time>2019-08-31T15:23:12Z</time>
      </trkpt>
      <trkpt lat="43.11494" lon="1.74658">
        <ele>287</ele>
        <time>2019-08-31T15:23:18Z</time>
      </trkpt>
      <trkpt lat="43.11498" lon="1.7465">
        <ele>286</ele>
        <time>2019-08-31T15:23:20Z</time>
      </trkpt>
      <trkpt lat="43.11502" lon="1.74646">
        <ele>286</ele>
        <time>2019-08-31T15:23:21Z</time>
      </trkpt>
      <trkpt lat="43.11506" lon="1.74641">
        <ele>285</ele>
        <time>2019-08-31T15:23:22Z</time>
      </trkpt>
      <trkpt lat="43.11513" lon="1.74619">
        <ele>284</ele>
        <time>2019-08-31T15:23:25Z</time>
      </trkpt>
      <trkpt lat="43.11515" lon="1.74612">
        <ele>284</ele>
        <time>2019-08-31T15:23:26Z</time>
      </trkpt>
      <trkpt lat="43.11516" lon="1.74604">
        <ele>283</ele>
        <time>2019-08-31T15:23:27Z</time>
      </trkpt>
      <trkpt lat="43.11516" lon="1.74596">
        <ele>283</ele>
        <time>2019-08-31T15:23:28Z</time>
      </trkpt>
      <trkpt lat="43.11516" lon="1.74588">
        <ele>282</ele>
        <time>2019-08-31T15:23:29Z</time>
      </trkpt>
      <trkpt lat="43.11517" lon="1.74572">
        <ele>282</ele>
        <time>2019-08-31T15:23:31Z</time>
      </trkpt>
      <trkpt lat="43.11518" lon="1.74564">
        <ele>281</ele>
        <time>2019-08-31T15:23:32Z</time>
      </trkpt>
      <trkpt lat="43.11521" lon="1.74547">
        <ele>281</ele>
        <time>2019-08-31T15:23:34Z</time>
      </trkpt>
      <trkpt lat="43.11524" lon="1.74529">
        <ele>281</ele>
        <time>2019-08-31T15:23:36Z</time>
      </trkpt>
      <trkpt lat="43.11528" lon="1.74497">
        <ele>280</ele>
        <time>2019-08-31T15:23:40Z</time>
      </trkpt>
      <trkpt lat="43.11529" lon="1.74489">
        <ele>280</ele>
        <time>2019-08-31T15:23:41Z</time>
      </trkpt>
      <trkpt lat="43.11536" lon="1.74438">
        <ele>279</ele>
        <time>2019-08-31T15:23:48Z</time>
      </trkpt>
      <trkpt lat="43.11537" lon="1.74427">
        <ele>278</ele>
        <time>2019-08-31T15:23:50Z</time>
      </trkpt>
      <trkpt lat="43.11541" lon="1.74415">
        <ele>278</ele>
        <time>2019-08-31T15:23:53Z</time>
      </trkpt>
      <trkpt lat="43.11541" lon="1.74408">
        <ele>277</ele>
        <time>2019-08-31T15:23:55Z</time>
      </trkpt>
      <trkpt lat="43.1154" lon="1.74404">
        <ele>277</ele>
        <time>2019-08-31T15:23:56Z</time>
      </trkpt>
      <trkpt lat="43.1154" lon="1.74394">
        <ele>276</ele>
        <time>2019-08-31T15:23:59Z</time>
      </trkpt>
      <trkpt lat="43.1154" lon="1.74391">
        <ele>275</ele>
        <time>2019-08-31T15:24:00Z</time>
      </trkpt>
      <trkpt lat="43.1154" lon="1.74387">
        <ele>275</ele>
        <time>2019-08-31T15:24:01Z</time>
      </trkpt>
      <trkpt lat="43.11538" lon="1.74377">
        <ele>274</ele>
        <time>2019-08-31T15:24:03Z</time>
      </trkpt>
      <trkpt lat="43.11537" lon="1.74369">
        <ele>272</ele>
        <time>2019-08-31T15:24:05Z</time>
      </trkpt>
      <trkpt lat="43.11538" lon="1.74358">
        <ele>270</ele>
        <time>2019-08-31T15:24:07Z</time>
      </trkpt>
      <trkpt lat="43.11538" lon="1.74352">
        <ele>269</ele>
        <time>2019-08-31T15:24:08Z</time>
      </trkpt>
      <trkpt lat="43.11537" lon="1.74347">
        <ele>268</ele>
        <time>2019-08-31T15:24:09Z</time>
      </trkpt>
      <trkpt lat="43.11537" lon="1.7434">
        <ele>267</ele>
        <time>2019-08-31T15:24:10Z</time>
      </trkpt>
      <trkpt lat="43.11536" lon="1.74333">
        <ele>266</ele>
        <time>2019-08-31T15:24:11Z</time>
      </trkpt>
      <trkpt lat="43.11536" lon="1.74324">
        <ele>265</ele>
        <time>2019-08-31T15:24:12Z</time>
      </trkpt>
      <trkpt lat="43.11536" lon="1.74317">
        <ele>264</ele>
        <time>2019-08-31T15:24:13Z</time>
      </trkpt>
      <trkpt lat="43.11535" lon="1.74311">
        <ele>263</ele>
        <time>2019-08-31T15:24:14Z</time>
      </trkpt>
      <trkpt lat="43.11534" lon="1.74296">
        <ele>261</ele>
        <time>2019-08-31T15:24:16Z</time>
      </trkpt>
      <trkpt lat="43.11535" lon="1.74289">
        <ele>260</ele>
        <time>2019-08-31T15:24:17Z</time>
      </trkpt>
      <trkpt lat="43.11535" lon="1.74283">
        <ele>258</ele>
        <time>2019-08-31T15:24:18Z</time>
      </trkpt>
      <trkpt lat="43.11536" lon="1.74279">
        <ele>257</ele>
        <time>2019-08-31T15:24:19Z</time>
      </trkpt>
      <trkpt lat="43.11535" lon="1.74277">
        <ele>256</ele>
        <time>2019-08-31T15:24:20Z</time>
      </trkpt>
      <trkpt lat="43.11535" lon="1.74274">
        <ele>255</ele>
        <time>2019-08-31T15:24:21Z</time>
      </trkpt>
      <trkpt lat="43.11534" lon="1.74272">
        <ele>254</ele>
        <time>2019-08-31T15:24:22Z</time>
      </trkpt>
      <trkpt lat="43.11523" lon="1.74247">
        <ele>245</ele>
        <time>2019-08-31T15:24:43Z</time>
      </trkpt>
      <trkpt lat="43.11521" lon="1.74232">
        <ele>244</ele>
        <time>2019-08-31T15:24:49Z</time>
      </trkpt>
      <trkpt lat="43.1152" lon="1.7423">
        <ele>245</ele>
        <time>2019-08-31T15:24:50Z</time>
      </trkpt>
      <trkpt lat="43.11515" lon="1.74218">
        <ele>246</ele>
        <time>2019-08-31T15:24:55Z</time>
      </trkpt>
      <trkpt lat="43.11512" lon="1.74213">
        <ele>247</ele>
        <time>2019-08-31T15:24:57Z</time>
      </trkpt>
      <trkpt lat="43.1151" lon="1.74208">
        <ele>247</ele>
        <time>2019-08-31T15:24:59Z</time>
      </trkpt>
      <trkpt lat="43.11504" lon="1.74196">
        <ele>248</ele>
        <time>2019-08-31T15:25:03Z</time>
      </trkpt>
      <trkpt lat="43.11501" lon="1.7419">
        <ele>249</ele>
        <time>2019-08-31T15:25:06Z</time>
      </trkpt>
      <trkpt lat="43.11499" lon="1.74186">
        <ele>249</ele>
        <time>2019-08-31T15:25:08Z</time>
      </trkpt>
      <trkpt lat="43.11497" lon="1.74181">
        <ele>250</ele>
        <time>2019-08-31T15:25:11Z</time>
      </trkpt>
      <trkpt lat="43.11496" lon="1.74177">
        <ele>251</ele>
        <time>2019-08-31T15:25:13Z</time>
      </trkpt>
      <trkpt lat="43.11495" lon="1.74176">
        <ele>251</ele>
        <time>2019-08-31T15:25:14Z</time>
      </trkpt>
      <trkpt lat="43.11493" lon="1.74172">
        <ele>252</ele>
        <time>2019-08-31T15:25:16Z</time>
      </trkpt>
      <trkpt lat="43.1149" lon="1.74169">
        <ele>252</ele>
        <time>2019-08-31T15:25:27Z</time>
      </trkpt>
      <trkpt lat="43.11476" lon="1.74163">
        <ele>251</ele>
        <time>2019-08-31T15:25:30Z</time>
      </trkpt>
      <trkpt lat="43.11473" lon="1.74161">
        <ele>250</ele>
        <time>2019-08-31T15:25:31Z</time>
      </trkpt>
      <trkpt lat="43.11469" lon="1.74155">
        <ele>249</ele>
        <time>2019-08-31T15:25:33Z</time>
      </trkpt>
      <trkpt lat="43.11465" lon="1.74154">
        <ele>249</ele>
        <time>2019-08-31T15:25:34Z</time>
      </trkpt>
      <trkpt lat="43.1146" lon="1.74151">
        <ele>248</ele>
        <time>2019-08-31T15:25:35Z</time>
      </trkpt>
      <trkpt lat="43.11454" lon="1.74146">
        <ele>246</ele>
        <time>2019-08-31T15:25:37Z</time>
      </trkpt>
      <trkpt lat="43.11452" lon="1.74146">
        <ele>245</ele>
        <time>2019-08-31T15:25:38Z</time>
      </trkpt>
      <trkpt lat="43.1145" lon="1.74146">
        <ele>244</ele>
        <time>2019-08-31T15:25:39Z</time>
      </trkpt>
      <trkpt lat="43.11447" lon="1.74145">
        <ele>243</ele>
        <time>2019-08-31T15:25:40Z</time>
      </trkpt>
      <trkpt lat="43.11444" lon="1.74145">
        <ele>242</ele>
        <time>2019-08-31T15:25:41Z</time>
      </trkpt>
      <trkpt lat="43.11439" lon="1.74145">
        <ele>241</ele>
        <time>2019-08-31T15:25:42Z</time>
      </trkpt>
      <trkpt lat="43.11435" lon="1.74146">
        <ele>240</ele>
        <time>2019-08-31T15:25:43Z</time>
      </trkpt>
      <trkpt lat="43.11431" lon="1.74147">
        <ele>239</ele>
        <time>2019-08-31T15:25:44Z</time>
      </trkpt>
      <trkpt lat="43.11426" lon="1.74148">
        <ele>237</ele>
        <time>2019-08-31T15:25:45Z</time>
      </trkpt>
      <trkpt lat="43.11422" lon="1.7415">
        <ele>236</ele>
        <time>2019-08-31T15:25:46Z</time>
      </trkpt>
      <trkpt lat="43.11418" lon="1.74149">
        <ele>235</ele>
        <time>2019-08-31T15:25:47Z</time>
      </trkpt>
      <trkpt lat="43.11411" lon="1.74147">
        <ele>234</ele>
        <time>2019-08-31T15:25:49Z</time>
      </trkpt>
      <trkpt lat="43.11403" lon="1.74143">
        <ele>232</ele>
        <time>2019-08-31T15:25:52Z</time>
      </trkpt>
      <trkpt lat="43.114" lon="1.74142">
        <ele>231</ele>
        <time>2019-08-31T15:25:53Z</time>
      </trkpt>
      <trkpt lat="43.11398" lon="1.74139">
        <ele>230</ele>
        <time>2019-08-31T15:25:54Z</time>
      </trkpt>
      <trkpt lat="43.11396" lon="1.74135">
        <ele>228</ele>
        <time>2019-08-31T15:25:55Z</time>
      </trkpt>
      <trkpt lat="43.11395" lon="1.74131">
        <ele>227</ele>
        <time>2019-08-31T15:25:56Z</time>
      </trkpt>
      <trkpt lat="43.11394" lon="1.74127">
        <ele>226</ele>
        <time>2019-08-31T15:25:57Z</time>
      </trkpt>
      <trkpt lat="43.11391" lon="1.74122">
        <ele>226</ele>
        <time>2019-08-31T15:25:58Z</time>
      </trkpt>
      <trkpt lat="43.1139" lon="1.74118">
        <ele>225</ele>
        <time>2019-08-31T15:25:59Z</time>
      </trkpt>
      <trkpt lat="43.11386" lon="1.74108">
        <ele>224</ele>
        <time>2019-08-31T15:26:01Z</time>
      </trkpt>
      <trkpt lat="43.11383" lon="1.74096">
        <ele>222</ele>
        <time>2019-08-31T15:26:04Z</time>
      </trkpt>
      <trkpt lat="43.11374" lon="1.74077">
        <ele>222</ele>
        <time>2019-08-31T15:26:10Z</time>
      </trkpt>
      <trkpt lat="43.11371" lon="1.74075">
        <ele>224</ele>
        <time>2019-08-31T15:26:11Z</time>
      </trkpt>
      <trkpt lat="43.11368" lon="1.74069">
        <ele>226</ele>
        <time>2019-08-31T15:26:13Z</time>
      </trkpt>
      <trkpt lat="43.11367" lon="1.74067">
        <ele>228</ele>
        <time>2019-08-31T15:26:14Z</time>
      </trkpt>
      <trkpt lat="43.11365" lon="1.74064">
        <ele>229</ele>
        <time>2019-08-31T15:26:15Z</time>
      </trkpt>
      <trkpt lat="43.11362" lon="1.74056">
        <ele>230</ele>
        <time>2019-08-31T15:26:17Z</time>
      </trkpt>
      <trkpt lat="43.11359" lon="1.74048">
        <ele>231</ele>
        <time>2019-08-31T15:26:19Z</time>
      </trkpt>
      <trkpt lat="43.11357" lon="1.74047">
        <ele>232</ele>
        <time>2019-08-31T15:26:20Z</time>
      </trkpt>
      <trkpt lat="43.11354" lon="1.74045">
        <ele>235</ele>
        <time>2019-08-31T15:26:21Z</time>
      </trkpt>
      <trkpt lat="43.11351" lon="1.74045">
        <ele>237</ele>
        <time>2019-08-31T15:26:22Z</time>
      </trkpt>
      <trkpt lat="43.11349" lon="1.74046">
        <ele>238</ele>
        <time>2019-08-31T15:26:23Z</time>
      </trkpt>
      <trkpt lat="43.11346" lon="1.74046">
        <ele>239</ele>
        <time>2019-08-31T15:26:24Z</time>
      </trkpt>
      <trkpt lat="43.11341" lon="1.74044">
        <ele>240</ele>
        <time>2019-08-31T15:26:26Z</time>
      </trkpt>
      <trkpt lat="43.11339" lon="1.74042">
        <ele>241</ele>
        <time>2019-08-31T15:26:27Z</time>
      </trkpt>
      <trkpt lat="43.11334" lon="1.74039">
        <ele>241</ele>
        <time>2019-08-31T15:26:29Z</time>
      </trkpt>
      <trkpt lat="43.11324" lon="1.74036">
        <ele>242</ele>
        <time>2019-08-31T15:26:32Z</time>
      </trkpt>
      <trkpt lat="43.11307" lon="1.74037">
        <ele>241</ele>
        <time>2019-08-31T15:26:37Z</time>
      </trkpt>
      <trkpt lat="43.11291" lon="1.74038">
        <ele>240</ele>
        <time>2019-08-31T15:26:41Z</time>
      </trkpt>
      <trkpt lat="43.11282" lon="1.74038">
        <ele>240</ele>
        <time>2019-08-31T15:26:43Z</time>
      </trkpt>
      <trkpt lat="43.11268" lon="1.74043">
        <ele>241</ele>
        <time>2019-08-31T15:26:46Z</time>
      </trkpt>
      <trkpt lat="43.11265" lon="1.74045">
        <ele>241</ele>
        <time>2019-08-31T15:26:47Z</time>
      </trkpt>
      <trkpt lat="43.11253" lon="1.74055">
        <ele>241</ele>
        <time>2019-08-31T15:26:51Z</time>
      </trkpt>
      <trkpt lat="43.11237" lon="1.74062">
        <ele>242</ele>
        <time>2019-08-31T15:26:55Z</time>
      </trkpt>
      <trkpt lat="43.11218" lon="1.74076">
        <ele>243</ele>
        <time>2019-08-31T15:27:00Z</time>
      </trkpt>
      <trkpt lat="43.11205" lon="1.74087">
        <ele>244</ele>
        <time>2019-08-31T15:27:04Z</time>
      </trkpt>
      <trkpt lat="43.11199" lon="1.74092">
        <ele>245</ele>
        <time>2019-08-31T15:27:06Z</time>
      </trkpt>
      <trkpt lat="43.11192" lon="1.74098">
        <ele>246</ele>
        <time>2019-08-31T15:27:08Z</time>
      </trkpt>
      <trkpt lat="43.11176" lon="1.7411">
        <ele>247</ele>
        <time>2019-08-31T15:27:12Z</time>
      </trkpt>
      <trkpt lat="43.11162" lon="1.74122">
        <ele>248</ele>
        <time>2019-08-31T15:27:16Z</time>
      </trkpt>
      <trkpt lat="43.11156" lon="1.74131">
        <ele>249</ele>
        <time>2019-08-31T15:27:18Z</time>
      </trkpt>
      <trkpt lat="43.1115" lon="1.74137">
        <ele>250</ele>
        <time>2019-08-31T15:27:20Z</time>
      </trkpt>
      <trkpt lat="43.11144" lon="1.7414">
        <ele>250</ele>
        <time>2019-08-31T15:27:22Z</time>
      </trkpt>
      <trkpt lat="43.11138" lon="1.74142">
        <ele>251</ele>
        <time>2019-08-31T15:27:24Z</time>
      </trkpt>
      <trkpt lat="43.11129" lon="1.74147">
        <ele>250</ele>
        <time>2019-08-31T15:27:28Z</time>
      </trkpt>
      <trkpt lat="43.11127" lon="1.74149">
        <ele>250</ele>
        <time>2019-08-31T15:27:29Z</time>
      </trkpt>
      <trkpt lat="43.11122" lon="1.74153">
        <ele>251</ele>
        <time>2019-08-31T15:27:31Z</time>
      </trkpt>
      <trkpt lat="43.11117" lon="1.74151">
        <ele>250</ele>
        <time>2019-08-31T15:27:34Z</time>
      </trkpt>
      <trkpt lat="43.11103" lon="1.74143">
        <ele>251</ele>
        <time>2019-08-31T15:27:39Z</time>
      </trkpt>
      <trkpt lat="43.11101" lon="1.74142">
        <ele>251</ele>
        <time>2019-08-31T15:27:40Z</time>
      </trkpt>
      <trkpt lat="43.11088" lon="1.74144">
        <ele>250</ele>
        <time>2019-08-31T15:27:44Z</time>
      </trkpt>
      <trkpt lat="43.11085" lon="1.74144">
        <ele>250</ele>
        <time>2019-08-31T15:27:45Z</time>
      </trkpt>
      <trkpt lat="43.11073" lon="1.7414">
        <ele>249</ele>
        <time>2019-08-31T15:27:49Z</time>
      </trkpt>
      <trkpt lat="43.11067" lon="1.74135">
        <ele>248</ele>
        <time>2019-08-31T15:27:51Z</time>
      </trkpt>
      <trkpt lat="43.11063" lon="1.7413">
        <ele>249</ele>
        <time>2019-08-31T15:27:53Z</time>
      </trkpt>
      <trkpt lat="43.11055" lon="1.74129">
        <ele>249</ele>
        <time>2019-08-31T15:27:56Z</time>
      </trkpt>
      <trkpt lat="43.11053" lon="1.74131">
        <ele>249</ele>
        <time>2019-08-31T15:27:57Z</time>
      </trkpt>
      <trkpt lat="43.11041" lon="1.74136">
        <ele>247</ele>
        <time>2019-08-31T15:28:02Z</time>
      </trkpt>
      <trkpt lat="43.11029" lon="1.74136">
        <ele>246</ele>
        <time>2019-08-31T15:28:06Z</time>
      </trkpt>
      <trkpt lat="43.11026" lon="1.74135">
        <ele>246</ele>
        <time>2019-08-31T15:28:07Z</time>
      </trkpt>
      <trkpt lat="43.1101" lon="1.74133">
        <ele>246</ele>
        <time>2019-08-31T15:28:12Z</time>
      </trkpt>
      <trkpt lat="43.11" lon="1.74141">
        <ele>245</ele>
        <time>2019-08-31T15:28:16Z</time>
      </trkpt>
      <trkpt lat="43.10998" lon="1.74144">
        <ele>245</ele>
        <time>2019-08-31T15:28:17Z</time>
      </trkpt>
      <trkpt lat="43.10985" lon="1.74153">
        <ele>244</ele>
        <time>2019-08-31T15:28:21Z</time>
      </trkpt>
      <trkpt lat="43.10982" lon="1.74155">
        <ele>244</ele>
        <time>2019-08-31T15:28:22Z</time>
      </trkpt>
      <trkpt lat="43.10974" lon="1.74157">
        <ele>243</ele>
        <time>2019-08-31T15:28:24Z</time>
      </trkpt>
      <trkpt lat="43.10971" lon="1.74156">
        <ele>243</ele>
        <time>2019-08-31T15:28:25Z</time>
      </trkpt>
      <trkpt lat="43.10968" lon="1.74157">
        <ele>243</ele>
        <time>2019-08-31T15:28:26Z</time>
      </trkpt>
      <trkpt lat="43.10959" lon="1.74162">
        <ele>243</ele>
        <time>2019-08-31T15:28:29Z</time>
      </trkpt>
      <trkpt lat="43.10956" lon="1.74165">
        <ele>242</ele>
        <time>2019-08-31T15:28:30Z</time>
      </trkpt>
      <trkpt lat="43.10954" lon="1.74168">
        <ele>242</ele>
        <time>2019-08-31T15:28:31Z</time>
      </trkpt>
      <trkpt lat="43.10952" lon="1.74171">
        <ele>241</ele>
        <time>2019-08-31T15:28:32Z</time>
      </trkpt>
      <trkpt lat="43.1094" lon="1.74173">
        <ele>240</ele>
        <time>2019-08-31T15:28:35Z</time>
      </trkpt>
      <trkpt lat="43.10932" lon="1.74171">
        <ele>239</ele>
        <time>2019-08-31T15:28:37Z</time>
      </trkpt>
      <trkpt lat="43.10925" lon="1.74172">
        <ele>238</ele>
        <time>2019-08-31T15:28:39Z</time>
      </trkpt>
      <trkpt lat="43.10922" lon="1.74174">
        <ele>237</ele>
        <time>2019-08-31T15:28:40Z</time>
      </trkpt>
      <trkpt lat="43.10908" lon="1.74182">
        <ele>239</ele>
        <time>2019-08-31T15:28:44Z</time>
      </trkpt>
      <trkpt lat="43.10903" lon="1.74183">
        <ele>240</ele>
        <time>2019-08-31T15:28:45Z</time>
      </trkpt>
      <trkpt lat="43.10896" lon="1.74187">
        <ele>242</ele>
        <time>2019-08-31T15:28:47Z</time>
      </trkpt>
      <trkpt lat="43.10892" lon="1.74189">
        <ele>242</ele>
        <time>2019-08-31T15:28:48Z</time>
      </trkpt>
      <trkpt lat="43.10888" lon="1.74191">
        <ele>243</ele>
        <time>2019-08-31T15:28:49Z</time>
      </trkpt>
      <trkpt lat="43.10876" lon="1.74196">
        <ele>244</ele>
        <time>2019-08-31T15:28:53Z</time>
      </trkpt>
      <trkpt lat="43.10867" lon="1.74196">
        <ele>245</ele>
        <time>2019-08-31T15:28:56Z</time>
      </trkpt>
      <trkpt lat="43.10864" lon="1.74195">
        <ele>245</ele>
        <time>2019-08-31T15:28:57Z</time>
      </trkpt>
      <trkpt lat="43.10858" lon="1.74195">
        <ele>247</ele>
        <time>2019-08-31T15:28:59Z</time>
      </trkpt>
      <trkpt lat="43.10842" lon="1.74199">
        <ele>246</ele>
        <time>2019-08-31T15:29:04Z</time>
      </trkpt>
      <trkpt lat="43.10839" lon="1.74199">
        <ele>246</ele>
        <time>2019-08-31T15:29:05Z</time>
      </trkpt>
      <trkpt lat="43.10836" lon="1.742">
        <ele>245</ele>
        <time>2019-08-31T15:29:06Z</time>
      </trkpt>
      <trkpt lat="43.1083" lon="1.74201">
        <ele>244</ele>
        <time>2019-08-31T15:29:08Z</time>
      </trkpt>
      <trkpt lat="43.10823" lon="1.74202">
        <ele>244</ele>
        <time>2019-08-31T15:29:10Z</time>
      </trkpt>
      <trkpt lat="43.10816" lon="1.74205">
        <ele>243</ele>
        <time>2019-08-31T15:29:13Z</time>
      </trkpt>
      <trkpt lat="43.10806" lon="1.74209">
        <ele>244</ele>
        <time>2019-08-31T15:29:17Z</time>
      </trkpt>
      <trkpt lat="43.10803" lon="1.74211">
        <ele>244</ele>
        <time>2019-08-31T15:29:18Z</time>
      </trkpt>
      <trkpt lat="43.10792" lon="1.74214">
        <ele>246</ele>
        <time>2019-08-31T15:29:21Z</time>
      </trkpt>
      <trkpt lat="43.10787" lon="1.74215">
        <ele>246</ele>
        <time>2019-08-31T15:29:23Z</time>
      </trkpt>
      <trkpt lat="43.10767" lon="1.74219">
        <ele>247</ele>
        <time>2019-08-31T15:29:28Z</time>
      </trkpt>
      <trkpt lat="43.10763" lon="1.74221">
        <ele>247</ele>
        <time>2019-08-31T15:29:29Z</time>
      </trkpt>
      <trkpt lat="43.1074" lon="1.74232">
        <ele>249</ele>
        <time>2019-08-31T15:29:34Z</time>
      </trkpt>
      <trkpt lat="43.10719" lon="1.74242">
        <ele>250</ele>
        <time>2019-08-31T15:29:39Z</time>
      </trkpt>
      <trkpt lat="43.10712" lon="1.74246">
        <ele>250</ele>
        <time>2019-08-31T15:29:41Z</time>
      </trkpt>
      <trkpt lat="43.10702" lon="1.74251">
        <ele>251</ele>
        <time>2019-08-31T15:29:44Z</time>
      </trkpt>
      <trkpt lat="43.10692" lon="1.74258">
        <ele>252</ele>
        <time>2019-08-31T15:29:47Z</time>
      </trkpt>
      <trkpt lat="43.1068" lon="1.74268">
        <ele>253</ele>
        <time>2019-08-31T15:29:51Z</time>
      </trkpt>
      <trkpt lat="43.10667" lon="1.74279">
        <ele>254</ele>
        <time>2019-08-31T15:29:55Z</time>
      </trkpt>
      <trkpt lat="43.10655" lon="1.74291">
        <ele>255</ele>
        <time>2019-08-31T15:29:59Z</time>
      </trkpt>
      <trkpt lat="43.1065" lon="1.74296">
        <ele>256</ele>
        <time>2019-08-31T15:30:01Z</time>
      </trkpt>
      <trkpt lat="43.10643" lon="1.74305">
        <ele>256</ele>
        <time>2019-08-31T15:30:04Z</time>
      </trkpt>
      <trkpt lat="43.10634" lon="1.74313">
        <ele>257</ele>
        <time>2019-08-31T15:30:07Z</time>
      </trkpt>
      <trkpt lat="43.10629" lon="1.74318">
        <ele>258</ele>
        <time>2019-08-31T15:30:09Z</time>
      </trkpt>
      <trkpt lat="43.1062" lon="1.74325">
        <ele>258</ele>
        <time>2019-08-31T15:30:12Z</time>
      </trkpt>
      <trkpt lat="43.10613" lon="1.74328">
        <ele>259</ele>
        <time>2019-08-31T15:30:14Z</time>
      </trkpt>
      <trkpt lat="43.10602" lon="1.74329">
        <ele>258</ele>
        <time>2019-08-31T15:30:18Z</time>
      </trkpt>
      <trkpt lat="43.10586" lon="1.74326">
        <ele>258</ele>
        <time>2019-08-31T15:30:24Z</time>
      </trkpt>
      <trkpt lat="43.10579" lon="1.74329">
        <ele>257</ele>
        <time>2019-08-31T15:30:26Z</time>
      </trkpt>
      <trkpt lat="43.10574" lon="1.7433">
        <ele>257</ele>
        <time>2019-08-31T15:30:28Z</time>
      </trkpt>
      <trkpt lat="43.10571" lon="1.74332">
        <ele>256</ele>
        <time>2019-08-31T15:30:29Z</time>
      </trkpt>
      <trkpt lat="43.10557" lon="1.74337">
        <ele>256</ele>
        <time>2019-08-31T15:30:34Z</time>
      </trkpt>
      <trkpt lat="43.10551" lon="1.74338">
        <ele>255</ele>
        <time>2019-08-31T15:30:36Z</time>
      </trkpt>
      <trkpt lat="43.10541" lon="1.7434">
        <ele>254</ele>
        <time>2019-08-31T15:30:39Z</time>
      </trkpt>
      <trkpt lat="43.10535" lon="1.74341">
        <ele>253</ele>
        <time>2019-08-31T15:30:41Z</time>
      </trkpt>
      <trkpt lat="43.1052" lon="1.74353">
        <ele>254</ele>
        <time>2019-08-31T15:30:46Z</time>
      </trkpt>
      <trkpt lat="43.10508" lon="1.74366">
        <ele>255</ele>
        <time>2019-08-31T15:30:50Z</time>
      </trkpt>
      <trkpt lat="43.10499" lon="1.74376">
        <ele>256</ele>
        <time>2019-08-31T15:30:53Z</time>
      </trkpt>
      <trkpt lat="43.10493" lon="1.74382">
        <ele>257</ele>
        <time>2019-08-31T15:30:55Z</time>
      </trkpt>
      <trkpt lat="43.10483" lon="1.7439">
        <ele>258</ele>
        <time>2019-08-31T15:30:58Z</time>
      </trkpt>
      <trkpt lat="43.1048" lon="1.74392">
        <ele>258</ele>
        <time>2019-08-31T15:30:59Z</time>
      </trkpt>
      <trkpt lat="43.10465" lon="1.74407">
        <ele>259</ele>
        <time>2019-08-31T15:31:04Z</time>
      </trkpt>
      <trkpt lat="43.10459" lon="1.74412">
        <ele>260</ele>
        <time>2019-08-31T15:31:06Z</time>
      </trkpt>
      <trkpt lat="43.10438" lon="1.74435">
        <ele>260</ele>
        <time>2019-08-31T15:31:13Z</time>
      </trkpt>
      <trkpt lat="43.10415" lon="1.74464">
        <ele>260</ele>
        <time>2019-08-31T15:31:21Z</time>
      </trkpt>
      <trkpt lat="43.10392" lon="1.74489">
        <ele>260</ele>
        <time>2019-08-31T15:31:29Z</time>
      </trkpt>
      <trkpt lat="43.10375" lon="1.74508">
        <ele>260</ele>
        <time>2019-08-31T15:31:35Z</time>
      </trkpt>
      <trkpt lat="43.10353" lon="1.74535">
        <ele>261</ele>
        <time>2019-08-31T15:31:43Z</time>
      </trkpt>
      <trkpt lat="43.10331" lon="1.74562">
        <ele>261</ele>
        <time>2019-08-31T15:31:51Z</time>
      </trkpt>
      <trkpt lat="43.10325" lon="1.74568">
        <ele>262</ele>
        <time>2019-08-31T15:31:53Z</time>
      </trkpt>
      <trkpt lat="43.10313" lon="1.74584">
        <ele>262</ele>
        <time>2019-08-31T15:31:58Z</time>
      </trkpt>
      <trkpt lat="43.10295" lon="1.74597">
        <ele>262</ele>
        <time>2019-08-31T15:32:04Z</time>
      </trkpt>
      <trkpt lat="43.10271" lon="1.74605">
        <ele>262</ele>
        <time>2019-08-31T15:32:10Z</time>
      </trkpt>
      <trkpt lat="43.10237" lon="1.74615">
        <ele>262</ele>
        <time>2019-08-31T15:32:19Z</time>
      </trkpt>
      <trkpt lat="43.10207" lon="1.74622">
        <ele>262</ele>
        <time>2019-08-31T15:32:27Z</time>
      </trkpt>
      <trkpt lat="43.10181" lon="1.74632">
        <ele>262</ele>
        <time>2019-08-31T15:32:33Z</time>
      </trkpt>
      <trkpt lat="43.10172" lon="1.74633">
        <ele>262</ele>
        <time>2019-08-31T15:32:35Z</time>
      </trkpt>
      <trkpt lat="43.10152" lon="1.74635">
        <ele>261</ele>
        <time>2019-08-31T15:32:39Z</time>
      </trkpt>
      <trkpt lat="43.10122" lon="1.74631">
        <ele>261</ele>
        <time>2019-08-31T15:32:45Z</time>
      </trkpt>
      <trkpt lat="43.10117" lon="1.74629">
        <ele>260</ele>
        <time>2019-08-31T15:32:46Z</time>
      </trkpt>
      <trkpt lat="43.10099" lon="1.74615">
        <ele>260</ele>
        <time>2019-08-31T15:32:50Z</time>
      </trkpt>
      <trkpt lat="43.10095" lon="1.74611">
        <ele>260</ele>
        <time>2019-08-31T15:32:51Z</time>
      </trkpt>
      <trkpt lat="43.10062" lon="1.74579">
        <ele>260</ele>
        <time>2019-08-31T15:32:59Z</time>
      </trkpt>
      <trkpt lat="43.10042" lon="1.74558">
        <ele>261</ele>
        <time>2019-08-31T15:33:04Z</time>
      </trkpt>
      <trkpt lat="43.10037" lon="1.74554">
        <ele>261</ele>
        <time>2019-08-31T15:33:05Z</time>
      </trkpt>
      <trkpt lat="43.10011" lon="1.74526">
        <ele>261</ele>
        <time>2019-08-31T15:33:12Z</time>
      </trkpt>
      <trkpt lat="43.10002" lon="1.74521">
        <ele>261</ele>
        <time>2019-08-31T15:33:14Z</time>
      </trkpt>
      <trkpt lat="43.09994" lon="1.74527">
        <ele>261</ele>
        <time>2019-08-31T15:33:16Z</time>
      </trkpt>
      <trkpt lat="43.09993" lon="1.74541">
        <ele>261</ele>
        <time>2019-08-31T15:33:18Z</time>
      </trkpt>
      <trkpt lat="43.09993" lon="1.74562">
        <ele>261</ele>
        <time>2019-08-31T15:33:21Z</time>
      </trkpt>
      <trkpt lat="43.09992" lon="1.74583">
        <ele>260</ele>
        <time>2019-08-31T15:33:24Z</time>
      </trkpt>
      <trkpt lat="43.0999" lon="1.74633">
        <ele>260</ele>
        <time>2019-08-31T15:33:31Z</time>
      </trkpt>
      <trkpt lat="43.09988" lon="1.74664">
        <ele>261</ele>
        <time>2019-08-31T15:33:36Z</time>
      </trkpt>
      <trkpt lat="43.09985" lon="1.74706">
        <ele>261</ele>
        <time>2019-08-31T15:33:42Z</time>
      </trkpt>
      <trkpt lat="43.09982" lon="1.74758">
        <ele>262</ele>
        <time>2019-08-31T15:33:50Z</time>
      </trkpt>
      <trkpt lat="43.09981" lon="1.74763">
        <ele>262</ele>
        <time>2019-08-31T15:33:51Z</time>
      </trkpt>
      <trkpt lat="43.09974" lon="1.74765">
        <ele>261</ele>
        <time>2019-08-31T15:33:53Z</time>
      </trkpt>
      <trkpt lat="43.09968" lon="1.74757">
        <ele>261</ele>
        <time>2019-08-31T15:33:55Z</time>
      </trkpt>
      <trkpt lat="43.09965" lon="1.74753">
        <ele>261</ele>
        <time>2019-08-31T15:33:56Z</time>
      </trkpt>
      <trkpt lat="43.09962" lon="1.74748">
        <ele>261</ele>
        <time>2019-08-31T15:33:57Z</time>
      </trkpt>
      <trkpt lat="43.09945" lon="1.74725">
        <ele>261</ele>
        <time>2019-08-31T15:34:02Z</time>
      </trkpt>
      <trkpt lat="43.0992" lon="1.74694">
        <ele>261</ele>
        <time>2019-08-31T15:34:09Z</time>
      </trkpt>
      <trkpt lat="43.09894" lon="1.7466">
        <ele>261</ele>
        <time>2019-08-31T15:34:16Z</time>
      </trkpt>
      <trkpt lat="43.0986" lon="1.74615">
        <ele>261</ele>
        <time>2019-08-31T15:34:25Z</time>
      </trkpt>
      <trkpt lat="43.09841" lon="1.74592">
        <ele>262</ele>
        <time>2019-08-31T15:34:31Z</time>
      </trkpt>
      <trkpt lat="43.09822" lon="1.74564">
        <ele>262</ele>
        <time>2019-08-31T15:34:39Z</time>
      </trkpt>
      <trkpt lat="43.09809" lon="1.74546">
        <ele>262</ele>
        <time>2019-08-31T15:34:45Z</time>
      </trkpt>
      <trkpt lat="43.09794" lon="1.74526">
        <ele>263</ele>
        <time>2019-08-31T15:34:51Z</time>
      </trkpt>
      <trkpt lat="43.09777" lon="1.74506">
        <ele>263</ele>
        <time>2019-08-31T15:34:58Z</time>
      </trkpt>
      <trkpt lat="43.09772" lon="1.74498">
        <ele>264</ele>
        <time>2019-08-31T15:35:01Z</time>
      </trkpt>
      <trkpt lat="43.09765" lon="1.74488">
        <ele>264</ele>
        <time>2019-08-31T15:35:04Z</time>
      </trkpt>
      <trkpt lat="43.09755" lon="1.74477">
        <ele>263</ele>
        <time>2019-08-31T15:35:07Z</time>
      </trkpt>
      <trkpt lat="43.09748" lon="1.74467">
        <ele>263</ele>
        <time>2019-08-31T15:35:09Z</time>
      </trkpt>
      <trkpt lat="43.09744" lon="1.74461">
        <ele>263</ele>
        <time>2019-08-31T15:35:10Z</time>
      </trkpt>
      <trkpt lat="43.09741" lon="1.74454">
        <ele>262</ele>
        <time>2019-08-31T15:35:11Z</time>
      </trkpt>
      <trkpt lat="43.09733" lon="1.7443">
        <ele>262</ele>
        <time>2019-08-31T15:35:14Z</time>
      </trkpt>
      <trkpt lat="43.09728" lon="1.74413">
        <ele>262</ele>
        <time>2019-08-31T15:35:16Z</time>
      </trkpt>
      <trkpt lat="43.09726" lon="1.74405">
        <ele>261</ele>
        <time>2019-08-31T15:35:17Z</time>
      </trkpt>
      <trkpt lat="43.09719" lon="1.74381">
        <ele>261</ele>
        <time>2019-08-31T15:35:20Z</time>
      </trkpt>
      <trkpt lat="43.09702" lon="1.74315">
        <ele>262</ele>
        <time>2019-08-31T15:35:28Z</time>
      </trkpt>
      <trkpt lat="43.09699" lon="1.74298">
        <ele>263</ele>
        <time>2019-08-31T15:35:30Z</time>
      </trkpt>
      <trkpt lat="43.097" lon="1.74281">
        <ele>263</ele>
        <time>2019-08-31T15:35:32Z</time>
      </trkpt>
      <trkpt lat="43.09707" lon="1.74251">
        <ele>263</ele>
        <time>2019-08-31T15:35:36Z</time>
      </trkpt>
      <trkpt lat="43.0971" lon="1.74244">
        <ele>263</ele>
        <time>2019-08-31T15:35:37Z</time>
      </trkpt>
      <trkpt lat="43.09723" lon="1.74209">
        <ele>262</ele>
        <time>2019-08-31T15:35:43Z</time>
      </trkpt>
      <trkpt lat="43.09728" lon="1.74184">
        <ele>262</ele>
        <time>2019-08-31T15:35:48Z</time>
      </trkpt>
      <trkpt lat="43.09732" lon="1.74171">
        <ele>262</ele>
        <time>2019-08-31T15:35:51Z</time>
      </trkpt>
      <trkpt lat="43.0973" lon="1.74172">
        <ele>262</ele>
        <time>2019-08-31T15:35:52Z</time>
      </trkpt>
      <trkpt lat="43.09727" lon="1.74179">
        <ele>262</ele>
        <time>2019-08-31T15:35:55Z</time>
      </trkpt>
      <trkpt lat="43.09725" lon="1.74179">
        <ele>261</ele>
        <time>2019-08-31T15:35:56Z</time>
      </trkpt>
      <trkpt lat="43.09717" lon="1.74176">
        <ele>261</ele>
        <time>2019-08-31T15:35:59Z</time>
      </trkpt>
      <trkpt lat="43.09713" lon="1.74174">
        <ele>261</ele>
        <time>2019-08-31T15:36:00Z</time>
      </trkpt>
      <trkpt lat="43.09705" lon="1.74169">
        <ele>261</ele>
        <time>2019-08-31T15:36:02Z</time>
      </trkpt>
      <trkpt lat="43.097" lon="1.74166">
        <ele>261</ele>
        <time>2019-08-31T15:36:03Z</time>
      </trkpt>
      <trkpt lat="43.09685" lon="1.74158">
        <ele>260</ele>
        <time>2019-08-31T15:36:06Z</time>
      </trkpt>
      <trkpt lat="43.09681" lon="1.74154">
        <ele>260</ele>
        <time>2019-08-31T15:36:07Z</time>
      </trkpt>
      <trkpt lat="43.09673" lon="1.7415">
        <ele>260</ele>
        <time>2019-08-31T15:36:09Z</time>
      </trkpt>
      <trkpt lat="43.09657" lon="1.74145">
        <ele>259</ele>
        <time>2019-08-31T15:36:14Z</time>
      </trkpt>
      <trkpt lat="43.09647" lon="1.74148">
        <ele>259</ele>
        <time>2019-08-31T15:36:18Z</time>
      </trkpt>
      <trkpt lat="43.09645" lon="1.7415">
        <ele>259</ele>
        <time>2019-08-31T15:36:19Z</time>
      </trkpt>
      <trkpt lat="43.09632" lon="1.74163">
        <ele>260</ele>
        <time>2019-08-31T15:36:25Z</time>
      </trkpt>
      <trkpt lat="43.09617" lon="1.74176">
        <ele>261</ele>
        <time>2019-08-31T15:36:31Z</time>
      </trkpt>
      <trkpt lat="43.0961" lon="1.74182">
        <ele>261</ele>
        <time>2019-08-31T15:36:33Z</time>
      </trkpt>
      <trkpt lat="43.09588" lon="1.74196">
        <ele>263</ele>
        <time>2019-08-31T15:36:39Z</time>
      </trkpt>
      <trkpt lat="43.09562" lon="1.74207">
        <ele>263</ele>
        <time>2019-08-31T15:36:46Z</time>
      </trkpt>
      <trkpt lat="43.09556" lon="1.74207">
        <ele>264</ele>
        <time>2019-08-31T15:36:48Z</time>
      </trkpt>
      <trkpt lat="43.09553" lon="1.74206">
        <ele>264</ele>
        <time>2019-08-31T15:36:50Z</time>
      </trkpt>
      <trkpt lat="43.09544" lon="1.74206">
        <ele>263</ele>
        <time>2019-08-31T15:36:57Z</time>
      </trkpt>
      <trkpt lat="43.09542" lon="1.74205">
        <ele>263</ele>
        <time>2019-08-31T15:36:59Z</time>
      </trkpt>
      <trkpt lat="43.09538" lon="1.74204">
        <ele>263</ele>
        <time>2019-08-31T15:37:02Z</time>
      </trkpt>
      <trkpt lat="43.09526" lon="1.742">
        <ele>263</ele>
        <time>2019-08-31T15:37:08Z</time>
      </trkpt>
      <trkpt lat="43.09513" lon="1.74199">
        <ele>264</ele>
        <time>2019-08-31T15:37:15Z</time>
      </trkpt>
      <trkpt lat="43.09501" lon="1.74197">
        <ele>264</ele>
        <time>2019-08-31T15:37:21Z</time>
      </trkpt>
      <trkpt lat="43.09487" lon="1.74193">
        <ele>264</ele>
        <time>2019-08-31T15:37:28Z</time>
      </trkpt>
      <trkpt lat="43.09481" lon="1.74192">
        <ele>265</ele>
        <time>2019-08-31T15:37:31Z</time>
      </trkpt>
      <trkpt lat="43.09473" lon="1.74191">
        <ele>265</ele>
        <time>2019-08-31T15:37:35Z</time>
      </trkpt>
      <trkpt lat="43.09469" lon="1.7419">
        <ele>266</ele>
        <time>2019-08-31T15:37:37Z</time>
      </trkpt>
      <trkpt lat="43.09462" lon="1.74189">
        <ele>267</ele>
        <time>2019-08-31T15:37:40Z</time>
      </trkpt>
      <trkpt lat="43.09456" lon="1.74188">
        <ele>268</ele>
        <time>2019-08-31T15:37:43Z</time>
      </trkpt>
      <trkpt lat="43.09446" lon="1.74187">
        <ele>269</ele>
        <time>2019-08-31T15:37:48Z</time>
      </trkpt>
      <trkpt lat="43.0944" lon="1.74186">
        <ele>270</ele>
        <time>2019-08-31T15:37:51Z</time>
      </trkpt>
      <trkpt lat="43.09434" lon="1.74186">
        <ele>270</ele>
        <time>2019-08-31T15:37:54Z</time>
      </trkpt>
      <trkpt lat="43.09424" lon="1.74185">
        <ele>271</ele>
        <time>2019-08-31T15:37:58Z</time>
      </trkpt>
      <trkpt lat="43.09409" lon="1.7418">
        <ele>271</ele>
        <time>2019-08-31T15:38:05Z</time>
      </trkpt>
      <trkpt lat="43.09394" lon="1.74179">
        <ele>273</ele>
        <time>2019-08-31T15:38:11Z</time>
      </trkpt>
      <trkpt lat="43.09392" lon="1.74178">
        <ele>273</ele>
        <time>2019-08-31T15:38:12Z</time>
      </trkpt>
      <trkpt lat="43.09376" lon="1.74177">
        <ele>273</ele>
        <time>2019-08-31T15:38:19Z</time>
      </trkpt>
      <trkpt lat="43.09363" lon="1.74176">
        <ele>274</ele>
        <time>2019-08-31T15:38:25Z</time>
      </trkpt>
      <trkpt lat="43.09362" lon="1.74175">
        <ele>274</ele>
        <time>2019-08-31T15:38:26Z</time>
      </trkpt>
      <trkpt lat="43.09355" lon="1.74169">
        <ele>275</ele>
        <time>2019-08-31T15:41:27Z</time>
      </trkpt>
      <trkpt lat="43.09355" lon="1.74166">
        <ele>275</ele>
        <time>2019-08-31T15:41:28Z</time>
      </trkpt>
      <trkpt lat="43.0936" lon="1.74152">
        <ele>275</ele>
        <time>2019-08-31T15:41:32Z</time>
      </trkpt>
      <trkpt lat="43.09367" lon="1.74137">
        <ele>276</ele>
        <time>2019-08-31T15:41:36Z</time>
      </trkpt>
      <trkpt lat="43.09371" lon="1.74128">
        <ele>277</ele>
        <time>2019-08-31T15:41:38Z</time>
      </trkpt>
      <trkpt lat="43.09375" lon="1.74119">
        <ele>277</ele>
        <time>2019-08-31T15:41:40Z</time>
      </trkpt>
      <trkpt lat="43.0938" lon="1.74109">
        <ele>277</ele>
        <time>2019-08-31T15:41:42Z</time>
      </trkpt>
      <trkpt lat="43.09385" lon="1.74098">
        <ele>278</ele>
        <time>2019-08-31T15:41:44Z</time>
      </trkpt>
      <trkpt lat="43.0939" lon="1.74086">
        <ele>278</ele>
        <time>2019-08-31T15:41:46Z</time>
      </trkpt>
      <trkpt lat="43.09402" lon="1.74064">
        <ele>277</ele>
        <time>2019-08-31T15:41:50Z</time>
      </trkpt>
      <trkpt lat="43.09422" lon="1.74029">
        <ele>277</ele>
        <time>2019-08-31T15:41:57Z</time>
      </trkpt>
      <trkpt lat="43.09432" lon="1.74014">
        <ele>276</ele>
        <time>2019-08-31T15:42:00Z</time>
      </trkpt>
      <trkpt lat="43.0944" lon="1.73998">
        <ele>275</ele>
        <time>2019-08-31T15:42:03Z</time>
      </trkpt>
      <trkpt lat="43.09449" lon="1.73976">
        <ele>274</ele>
        <time>2019-08-31T15:42:07Z</time>
      </trkpt>
      <trkpt lat="43.09451" lon="1.73971">
        <ele>274</ele>
        <time>2019-08-31T15:42:08Z</time>
      </trkpt>
      <trkpt lat="43.09457" lon="1.73954">
        <ele>273</ele>
        <time>2019-08-31T15:42:11Z</time>
      </trkpt>
      <trkpt lat="43.0946" lon="1.73942">
        <ele>272</ele>
        <time>2019-08-31T15:42:13Z</time>
      </trkpt>
      <trkpt lat="43.09462" lon="1.73936">
        <ele>272</ele>
        <time>2019-08-31T15:42:14Z</time>
      </trkpt>
      <trkpt lat="43.09463" lon="1.73931">
        <ele>271</ele>
        <time>2019-08-31T15:42:15Z</time>
      </trkpt>
      <trkpt lat="43.09466" lon="1.73925">
        <ele>271</ele>
        <time>2019-08-31T15:42:16Z</time>
      </trkpt>
      <trkpt lat="43.09469" lon="1.73923">
        <ele>271</ele>
        <time>2019-08-31T15:42:17Z</time>
      </trkpt>
      <trkpt lat="43.09474" lon="1.73923">
        <ele>270</ele>
        <time>2019-08-31T15:42:18Z</time>
      </trkpt>
      <trkpt lat="43.09478" lon="1.73924">
        <ele>270</ele>
        <time>2019-08-31T15:42:19Z</time>
      </trkpt>
      <trkpt lat="43.0949" lon="1.73926">
        <ele>269</ele>
        <time>2019-08-31T15:42:22Z</time>
      </trkpt>
      <trkpt lat="43.09494" lon="1.73924">
        <ele>268</ele>
        <time>2019-08-31T15:42:23Z</time>
      </trkpt>
      <trkpt lat="43.095" lon="1.73917">
        <ele>268</ele>
        <time>2019-08-31T15:42:25Z</time>
      </trkpt>
      <trkpt lat="43.09507" lon="1.73909">
        <ele>268</ele>
        <time>2019-08-31T15:42:28Z</time>
      </trkpt>
      <trkpt lat="43.09515" lon="1.73899">
        <ele>269</ele>
        <time>2019-08-31T15:42:31Z</time>
      </trkpt>
      <trkpt lat="43.09525" lon="1.73886">
        <ele>269</ele>
        <time>2019-08-31T15:42:35Z</time>
      </trkpt>
      <trkpt lat="43.09528" lon="1.73883">
        <ele>269</ele>
        <time>2019-08-31T15:42:36Z</time>
      </trkpt>
      <trkpt lat="43.09539" lon="1.73863">
        <ele>270</ele>
        <time>2019-08-31T15:42:41Z</time>
      </trkpt>
      <trkpt lat="43.09541" lon="1.7386">
        <ele>271</ele>
        <time>2019-08-31T15:42:42Z</time>
      </trkpt>
      <trkpt lat="43.09552" lon="1.73838">
        <ele>272</ele>
        <time>2019-08-31T15:42:48Z</time>
      </trkpt>
      <trkpt lat="43.09555" lon="1.7383">
        <ele>272</ele>
        <time>2019-08-31T15:42:50Z</time>
      </trkpt>
      <trkpt lat="43.09557" lon="1.73827">
        <ele>273</ele>
        <time>2019-08-31T15:42:51Z</time>
      </trkpt>
      <trkpt lat="43.09561" lon="1.73819">
        <ele>274</ele>
        <time>2019-08-31T15:42:54Z</time>
      </trkpt>
      <trkpt lat="43.09563" lon="1.73815">
        <ele>274</ele>
        <time>2019-08-31T15:42:56Z</time>
      </trkpt>
      <trkpt lat="43.09564" lon="1.7381">
        <ele>275</ele>
        <time>2019-08-31T15:42:58Z</time>
      </trkpt>
      <trkpt lat="43.09568" lon="1.73802">
        <ele>275</ele>
        <time>2019-08-31T15:43:02Z</time>
      </trkpt>
      <trkpt lat="43.09569" lon="1.73797">
        <ele>274</ele>
        <time>2019-08-31T15:43:04Z</time>
      </trkpt>
      <trkpt lat="43.09572" lon="1.73791">
        <ele>275</ele>
        <time>2019-08-31T15:43:06Z</time>
      </trkpt>
      <trkpt lat="43.09583" lon="1.73773">
        <ele>276</ele>
        <time>2019-08-31T15:43:13Z</time>
      </trkpt>
      <trkpt lat="43.09582" lon="1.73771">
        <ele>276</ele>
        <time>2019-08-31T15:43:16Z</time>
      </trkpt>
    </trkseg>
  </trk>
</gpx>